GFSMA_sfc_temp_000.txt.gz
Temp
56 56 56 55 55 55 54 54 52 52 52 53 53 54 54 55 56 56 56 61 62 65 67 69 70 71 72 70 69 69 70 70 71 71 70 69 69 68 68 68 68 68 68
56 55 55 55 54 54 53 51 50 50 49 50 52 53 53 53 54 54 54 55 60 62 64 66 68 69 70 70 70 69 69 69 70 70 70 69 68 68 68 68 68 68 68
56 56 55 54 54 53 52 50 50 49 49 50 50 50 51 52 53 53 52 54 55 58 61 63 65 67 67 68 69 69 69 68 68 69 70 69 68 68 68 67 67 67 68
55 54 52 52 53 51 50 49 48 48 48 47 47 48 49 50 51 52 52 52 52 54 57 60 63 64 65 66 67 68 69 69 69 69 68 68 68 68 68 68 67 67 67
55 52 52 52 51 50 49 49 47 47 47 47 48 49 48 49 50 53 52 52 52 53 54 58 60 61 62 64 66 67 68 69 69 69 68 67 67 67 68 68 67 67 67
54 53 52 52 50 49 48 47 47 46 47 47 51 50 47 48 48 49 50 52 51 52 52 53 54 55 59 62 64 66 68 68 69 69 69 68 67 65 65 67 68 67 67
54 54 53 51 50 50 52 48 47 47 46 45 45 45 45 46 47 48 49 48 50 50 52 52 51 52 54 59 61 64 67 68 68 67 63 62 65 64 64 64 67 68 67
54 55 54 53 52 52 48 48 47 45 45 44 44 41 41 44 45 47 47 49 48 49 50 51 51 52 53 53 56 62 64 65 65 65 64 62 62 63 64 63 64 66 67
55 54 55 54 53 52 52 51 49 46 47 43 43 44 38 37 39 43 46 47 46 46 47 48 50 51 51 51 54 54 56 57 62 64 64 63 61 62 62 63 63 64 65
51 53 54 53 53 53 52 50 51 48 44 42 42 46 43 42 38 38 43 45 46 47 45 45 47 49 50 50 52 52 52 53 55 61 63 63 62 61 61 61 60 63 64
48 49 51 52 50 49 48 48 46 44 46 43 43 42 41 40 40 38 36 40 44 45 45 44 44 45 48 50 49 52 52 51 52 56 60 60 61 60 61 60 59 60 63
44 44 45 45 44 44 43 43 45 45 43 45 43 43 42 41 39 37 35 37 38 42 44 45 44 45 45 46 51 52 51 50 50 53 58 59 59 59 59 60 58 58 63
39 39 41 42 42 42 43 45 43 44 43 43 43 43 44 43 43 41 38 36 35 38 41 43 44 45 47 45 46 50 52 49 50 52 55 56 57 56 56 57 57 58 58
39 40 40 41 42 42 43 43 42 42 42 41 41 41 39 40 41 41 41 36 35 36 37 38 42 44 45 46 47 49 50 48 49 47 47 51 54 54 55 55 55 56 57
41 40 41 41 42 44 44 44 42 41 40 40 39 40 40 41 41 41 41 39 36 32 34 38 38 44 45 45 46 47 48 48 48 46 45 48 48 50 52 52 53 53 55
40 40 41 42 43 42 42 43 41 41 40 40 41 40 40 40 40 40 39 38 37 36 32 38 39 41 44 47 47 46 45 48 47 46 43 44 44 45 48 49 49 51 52
41 42 43 42 42 42 42 40 40 40 40 40 40 39 38 38 37 36 36 36 36 36 33 37 38 41 41 42 44 45 45 44 46 45 45 45 44 44 43 44 44 46 49
42 42 43 43 43 41 40 40 39 39 38 36 36 35 35 40 36 36 35 34 34 34 34 32 34 36 38 41 42 41 44 45 43 45 45 45 45 45 43 43 42 43 44
42 42 43 43 42 41 40 38 37 36 35 34 33 33 33 33 31 32 32 31 31 35 33 31 32 34 35 37 38 39 40 40 43 46 45 44 44 45 44 43 43 43 43
42 42 42 40 38 38 38 37 36 33 32 33 32 32 31 31 31 31 31 31 32 31 31 31 32 32 32 35 35 34 34 36 38 43 44 43 43 43 43 43 43 43 43
41 40 40 38 37 37 38 33 33 32 31 30 31 32 32 33 36 35 33 31 30 29 30 30 30 31 31 30 31 34 33 34 35 37 38 39 39 40 41 41 43 42 42
39 38 35 33 33 36 37 36 35 31 31 31 29 30 30 32 32 33 34 35 34 30 29 28 29 28 29 29 31 30 30 29 28 35 35 35 37 37 38 39 40 41 41
33 32 32 32 32 32 36 36 36 31 30 29 28 28 29 32 32 31 32 33 33 33 31 31 29 29 30 32 31 29 29 29 30 33 34 32 33 34 36 38 40 40 40
32 31 30 30 29 31 34 34 34 29 27 27 27 28 28 28 30 31 31 30 30 31 32 32 30 31 32 33 32 32 32 32 32 33 33 29 31 30 33 34 38 40 40
30 29 30 29 27 28 32 32 31 24 23 24 27 28 28 29 30 32 29 27 28 30 34 35 35 34 34 35 34 31 28 28 26 29 31 31 31 28 29 32 34 38 39
29 29 28 27 27 23 28 31 30 25 22 25 25 29 30 30 31 32 29 27 26 29 31 31 31 34 35 34 34 33 31 28 27 26 29 29 30 29 28 29 30 33 34

GFSMA_sfc_temp_003.txt.gz
Temp
69 69 69 69 68 68 68 67 67 66 66 66 67 67 67 67 68 72 71 61 62 64 66 68 69 70 70 70 70 69 70 70 70 70 70 70 69 69 69 68 68 68 68
69 69 69 69 69 69 69 67 65 66 65 65 65 66 66 68 68 68 71 70 60 61 63 65 67 68 69 69 69 68 69 69 69 69 69 69 69 69 68 68 68 68 68
69 68 69 69 69 69 66 65 64 64 65 64 64 65 66 66 67 67 69 70 69 61 61 63 65 65 67 67 67 68 68 68 68 69 68 68 68 68 68 68 68 67 68
68 68 68 68 69 67 66 65 65 64 64 65 65 67 67 66 66 66 68 68 69 70 65 61 62 63 64 65 67 67 68 68 68 68 67 67 67 67 67 67 68 68 67
67 67 68 68 67 67 65 65 64 63 64 64 65 65 65 66 65 67 66 66 65 67 68 61 59 60 61 63 65 66 67 68 68 69 68 67 67 66 67 67 67 68 67
67 67 67 65 66 65 65 63 62 63 63 65 65 65 65 66 65 65 66 67 67 66 67 65 66 66 58 61 63 64 67 68 69 68 67 65 65 65 66 66 65 67 68
66 65 66 66 65 63 64 64 62 60 61 61 61 62 63 63 63 65 65 66 65 65 64 65 66 67 67 61 61 62 64 66 67 67 66 64 63 62 64 64 65 64 65
65 65 64 65 65 64 63 63 61 61 61 61 60 60 57 61 61 61 63 63 62 64 63 64 63 63 64 65 62 59 60 61 63 66 66 64 63 62 63 64 65 65 64
65 64 63 63 63 63 61 63 62 60 61 62 59 61 56 54 61 60 59 61 60 61 62 63 62 61 62 62 61 60 57 55 58 62 65 65 62 62 63 63 63 63 65
62 62 61 60 60 61 61 61 63 61 60 59 58 58 57 57 55 55 58 59 59 59 58 61 61 61 61 62 58 55 52 52 54 59 62 63 63 62 62 62 62 61 63
60 58 57 57 57 58 59 58 58 58 59 58 58 56 53 54 54 53 51 56 55 57 58 58 58 59 59 60 60 58 52 50 51 55 58 62 62 62 61 62 60 60 60
57 55 55 55 54 54 54 54 54 53 54 54 54 54 54 51 52 50 48 48 48 53 55 56 56 58 59 60 58 51 51 49 50 54 56 59 60 61 61 61 60 60 60
55 53 53 53 54 53 53 53 52 51 50 49 47 45 46 43 43 42 41 43 46 52 53 56 56 57 58 59 59 51 53 48 49 51 50 55 57 58 58 58 58 58 59
52 51 53 54 54 54 53 53 52 50 48 46 42 41 41 40 40 40 39 40 40 46 50 49 55 56 57 58 56 49 57 48 49 48 47 49 52 51 53 56 56 56 57
51 51 51 51 52 52 51 51 50 49 46 45 44 43 42 44 43 43 43 43 40 36 42 49 49 54 56 57 55 57 57 50 48 47 46 47 48 49 50 51 51 54 56
50 50 50 50 50 50 50 48 48 48 47 47 47 46 46 46 46 46 46 46 46 43 40 49 50 52 53 55 55 55 56 50 48 47 47 47 47 49 49 48 47 48 50
50 50 49 49 47 46 44 45 45 46 47 47 47 46 45 46 46 47 47 47 46 45 41 45 49 50 50 50 52 54 54 54 54 46 47 47 46 46 46 46 45 45 46
48 49 48 46 45 46 47 46 45 45 45 45 45 44 44 45 44 44 44 43 44 45 43 40 45 47 47 49 50 50 52 53 53 50 46 46 46 45 45 44 44 43 43
48 47 45 45 46 46 45 45 44 43 43 43 42 41 40 40 40 41 41 41 42 43 43 41 41 45 46 47 47 48 48 49 51 49 45 44 45 45 45 45 44 43 43
47 44 46 45 44 45 45 45 44 41 41 40 40 40 40 39 38 39 39 39 40 40 40 39 40 41 43 45 44 42 42 45 45 49 48 45 45 46 45 44 43 43 44
46 45 43 43 42 42 43 42 41 40 39 38 39 39 38 38 36 37 38 39 39 38 38 36 35 36 37 37 37 41 40 42 43 45 44 46 48 49 49 44 46 43 43
43 42 41 40 40 41 37 37 37 39 38 37 36 37 38 36 36 34 34 34 36 35 34 34 34 34 37 38 39 39 38 37 35 45 41 41 45 44 47 49 45 42 43
41 40 40 39 39 39 35 36 35 38 37 36 35 35 35 37 36 37 35 34 33 33 32 33 32 33 34 37 38 36 37 37 37 41 41 37 42 41 45 47 42 41 41
39 38 38 37 37 37 33 33 33 35 34 34 34 34 34 35 35 34 33 33 34 35 36 36 36 36 38 39 38 38 38 38 39 41 41 32 39 37 42 45 41 41 41
37 37 36 36 35 35 32 32 32 32 31 31 33 34 34 34 33 33 32 30 32 35 37 36 36 36 36 36 36 37 33 32 31 35 40 36 37 37 38 39 41 41 40
36 35 34 34 32 31 31 30 31 31 29 30 32 33 32 32 31 31 30 30 29 33 34 34 35 37 36 36 34 35 35 31 31 31 39 36 36 38 33 40 40 41 40

GFSMA_sfc_temp_006.txt.gz
Temp
78 79 78 79 78 78 78 76 76 75 74 74 74 74 74 74 75 79 80 63 63 64 66 68 68 69 70 69 69 69 67 67 70 70 70 69 69 69 69 69 68 68 68
77 78 78 78 79 79 78 77 76 75 75 74 74 73 73 75 75 75 79 74 62 62 64 66 67 67 68 68 68 68 69 68 67 69 69 68 68 69 68 68 68 68 68
78 76 77 77 78 78 76 76 74 74 74 75 73 74 73 73 74 73 75 76 71 61 62 64 65 66 66 67 67 67 68 68 68 67 68 68 68 67 68 68 68 68 68
76 76 77 77 78 77 77 76 75 74 73 73 73 74 74 74 73 72 74 74 76 78 63 62 63 63 64 65 66 67 67 67 68 68 68 67 67 67 67 67 67 67 67
76 75 76 76 76 76 75 75 74 73 72 73 74 74 74 74 74 75 74 72 72 74 76 60 61 61 62 63 64 65 67 68 68 68 69 67 66 66 66 66 66 66 66
75 74 75 74 74 74 74 74 72 73 72 71 74 74 73 74 74 73 73 74 73 72 73 72 72 70 61 62 63 64 65 66 67 68 68 65 65 65 65 65 66 66 66
74 72 73 73 73 72 71 70 70 69 69 71 68 69 71 72 70 72 73 73 73 72 72 71 73 75 72 62 63 62 63 64 65 66 67 65 64 63 62 64 64 65 65
72 72 71 71 71 71 69 69 68 67 69 70 65 66 62 68 71 70 72 71 70 72 71 70 69 69 69 71 66 60 61 61 62 63 65 66 65 63 63 64 64 64 65
71 70 69 69 68 68 68 68 68 66 65 68 69 64 60 60 66 72 67 69 68 68 70 69 67 67 67 68 65 63 56 55 58 60 63 64 65 63 63 63 63 64 64
69 69 68 67 66 67 65 66 68 66 65 63 67 69 66 65 60 58 66 66 67 66 65 67 67 66 66 67 62 57 53 52 53 57 61 62 64 63 63 63 63 62 62
69 68 66 64 64 65 64 62 62 62 63 62 63 63 59 62 62 57 58 59 64 66 66 64 64 65 65 65 66 60 52 51 52 56 57 61 63 64 63 63 62 62 61
67 66 64 63 62 62 61 61 60 58 58 58 57 56 55 47 51 54 55 58 59 61 63 63 62 62 64 65 63 52 53 50 51 53 55 58 61 62 62 62 62 61 61
62 62 60 61 62 60 60 61 60 57 52 50 48 45 44 42 42 42 45 47 48 58 59 61 62 62 63 63 63 53 54 50 50 51 51 51 56 57 59 60 60 60 60
60 59 59 60 60 60 59 58 53 51 52 52 50 47 45 46 44 40 38 38 37 41 49 51 61 61 61 62 59 51 60 50 49 49 50 50 51 52 53 53 55 56 58
59 58 58 57 57 56 56 54 51 48 48 48 50 50 50 48 45 45 44 44 40 38 41 51 53 60 60 60 58 60 60 53 51 49 47 49 50 51 51 51 51 51 53
57 56 56 55 54 54 52 50 48 47 46 47 47 47 51 53 53 52 50 49 49 46 43 51 54 57 58 59 58 58 58 52 49 48 48 48 49 50 50 50 50 50 50
55 55 54 53 52 47 45 44 45 47 49 49 50 50 50 52 51 52 52 52 50 50 45 49 54 56 54 54 55 56 57 57 58 47 47 48 47 48 48 47 48 48 47
53 53 50 47 47 47 48 47 47 50 49 49 49 49 49 51 49 49 49 48 49 50 47 44 50 51 52 54 54 53 55 58 58 53 47 47 46 46 46 46 46 46 45
48 47 48 48 47 47 48 49 50 49 49 49 48 47 47 46 45 47 47 46 47 48 48 45 45 50 51 52 51 52 52 53 56 51 46 44 45 45 45 45 46 46 45
50 50 50 49 48 48 49 49 49 47 47 47 46 45 45 44 43 44 44 44 44 44 45 44 44 45 47 49 50 47 47 51 50 54 51 47 46 46 45 45 45 45 45
50 50 49 48 48 48 48 44 45 45 45 44 44 44 44 43 39 38 40 40 42 42 43 43 43 44 44 44 44 47 45 46 48 50 49 51 52 52 52 46 47 45 45
49 48 47 46 45 47 36 36 38 42 43 43 43 44 44 41 41 38 37 36 36 37 38 38 38 37 40 41 43 41 40 39 36 47 46 45 47 47 51 53 47 44 44
47 45 45 45 44 44 35 35 34 39 40 40 41 41 41 43 40 41 38 36 35 35 33 35 33 34 35 38 39 37 38 37 38 44 44 40 44 40 44 50 44 43 43
45 44 44 43 42 43 36 34 33 37 38 39 40 40 40 40 40 37 36 35 36 37 38 38 37 38 39 40 40 41 40 39 39 42 43 34 39 38 43 43 43 43 42
44 43 42 41 40 40 35 33 32 34 35 35 38 39 37 35 35 34 33 32 34 36 39 37 37 36 36 36 37 38 34 34 33 37 42 39 38 38 41 41 43 42 41
43 42 39 39 36 36 34 32 32 33 30 31 33 34 34 35 33 33 31 31 30 34 36 37 38 36 36 38 35 37 37 33 33 33 40 37 38 38 34 42 43 43 43

GFSMA_sfc_temp_009.txt.gz
Temp
78 79 79 80 80 81 80 78 78 78 77 76 77 76 76 76 76 78 80 64 64 65 67 68 69 69 70 69 69 69 69 66 68 69 70 69 69 69 69 69 69 69 68
78 79 78 79 80 81 80 78 77 76 76 77 76 76 75 76 77 76 78 71 63 64 65 67 67 68 68 68 68 68 68 68 67 66 68 68 68 68 68 68 68 68 68
78 77 78 78 79 79 78 78 78 77 76 77 76 76 75 74 74 75 76 77 70 62 64 65 66 66 67 67 67 67 68 68 68 67 66 66 67 68 68 67 68 68 68
79 77 77 77 78 77 78 77 77 76 75 75 75 75 76 76 75 75 75 75 77 76 64 63 64 65 65 66 66 67 68 67 67 68 68 65 65 66 67 66 67 67 68
78 76 76 76 76 76 76 76 75 75 74 74 75 76 76 75 75 77 74 74 73 75 76 63 62 63 63 64 64 65 66 67 68 68 68 67 66 65 66 66 66 67 67
76 75 75 75 75 74 75 75 73 73 73 73 74 74 74 76 76 75 75 76 74 73 73 72 67 66 61 63 64 64 65 66 66 67 67 67 65 64 65 65 65 66 66
75 73 74 74 73 72 72 71 71 69 70 72 70 70 72 72 72 74 75 75 74 74 72 72 73 74 67 63 64 64 64 64 64 65 66 66 64 64 63 63 64 65 65
73 73 71 71 71 70 69 69 68 67 69 70 66 67 62 67 72 73 73 72 71 74 73 72 71 71 72 71 66 62 62 62 61 63 64 65 66 64 64 64 64 63 63
73 72 71 69 68 68 68 67 67 65 64 67 68 64 58 58 66 72 71 71 70 71 72 72 70 70 69 69 64 64 58 57 58 60 62 63 64 65 64 64 64 64 64
72 71 70 68 66 66 65 66 67 64 63 61 65 67 66 64 57 55 66 67 68 66 68 70 70 68 68 67 66 57 54 53 54 57 60 62 64 65 64 64 64 63 63
69 70 68 67 64 65 64 63 62 61 61 60 60 60 59 59 58 49 48 58 63 66 63 62 68 68 67 66 66 62 53 52 53 55 57 60 63 63 64 64 63 63 62
66 66 66 64 63 63 62 61 61 59 55 55 56 54 50 47 47 45 44 50 54 53 57 61 59 63 64 65 64 54 53 51 52 54 55 56 60 62 64 63 63 63 62
62 62 62 61 61 62 62 59 54 51 50 46 48 51 51 47 46 44 39 39 40 47 47 50 52 56 61 62 63 57 53 51 51 52 53 52 57 59 61 61 62 62 62
60 61 60 60 60 57 56 56 54 53 51 51 47 45 46 48 46 45 41 39 38 40 42 44 52 52 53 58 55 55 59 50 50 51 51 52 52 53 54 55 56 56 57
60 60 59 58 56 55 52 51 49 48 49 48 48 48 48 48 46 48 49 46 40 36 41 47 45 52 51 53 57 60 59 54 52 52 49 50 52 52 52 53 52 52 53
58 57 55 54 52 49 49 48 49 50 48 48 49 49 49 50 51 51 50 48 46 42 39 48 50 53 55 58 58 58 58 52 49 49 49 50 52 52 51 51 51 51 52
54 53 52 50 50 49 48 47 47 48 47 47 49 50 50 51 50 51 51 51 50 50 45 49 53 55 54 54 56 57 57 56 57 47 47 47 48 48 49 48 49 49 50
53 52 51 50 49 48 47 47 46 47 48 47 48 48 48 50 48 49 49 48 48 50 47 44 49 51 51 54 54 54 56 58 57 54 46 47 47 47 46 46 46 47 47
53 52 52 51 50 51 51 50 50 49 48 48 48 47 47 46 45 47 46 46 47 48 48 46 46 50 51 52 52 53 53 54 56 52 46 45 45 46 46 46 46 46 46
52 52 52 51 50 50 50 50 49 47 47 48 48 47 46 45 45 44 44 44 44 43 44 44 45 46 48 50 50 48 48 52 51 55 52 48 47 46 46 45 45 45 45
52 52 50 50 50 49 49 44 44 43 43 44 45 46 47 46 41 41 42 40 40 39 40 41 42 43 45 46 45 48 46 48 49 51 50 51 52 52 51 45 48 45 44
50 50 49 48 47 48 36 36 37 40 40 41 41 43 45 43 43 40 39 38 38 36 36 37 38 38 40 42 44 43 43 41 38 47 45 44 49 48 50 51 47 45 46
49 47 47 47 45 45 36 36 34 38 37 38 40 41 42 44 42 43 41 38 37 36 34 35 32 34 35 39 40 39 38 38 38 43 43 39 44 42 46 49 44 43 43
47 46 45 45 43 44 37 34 33 36 37 37 39 39 39 40 41 39 38 37 37 38 38 39 37 38 39 40 40 39 38 39 40 42 43 35 41 40 43 45 43 43 42
46 45 45 42 39 39 37 34 34 34 33 34 36 37 37 37 37 36 34 32 34 36 39 38 37 37 37 37 38 38 33 32 32 37 42 38 38 38 40 41 43 42 41
46 44 41 40 37 37 36 35 34 33 30 31 34 35 35 35 34 34 33 31 30 34 35 35 37 38 35 37 35 37 36 32 33 33 41 37 38 39 34 40 42 42 42

GFSMA_sfc_temp_012.txt.gz
Temp
68 69 68 68 68 68 68 66 67 67 66 67 67 67 67 66 67 66 62 64 65 67 68 70 70 70 70 70 69 69 69 68 68 69 68 66 69 69 69 69 69 69 69
68 68 67 67 67 68 67 66 66 66 65 66 66 66 66 66 66 65 65 60 64 65 66 68 69 69 70 69 68 68 68 68 68 68 68 68 68 68 68 68 68 68 69
69 68 66 66 67 67 67 66 66 66 65 67 66 66 65 65 65 65 65 64 60 62 64 66 67 68 68 68 68 67 68 68 68 68 68 67 65 67 67 67 68 68 68
71 67 66 65 66 66 65 64 64 63 63 63 62 63 64 65 65 64 65 64 64 65 62 63 65 66 67 68 68 68 68 68 67 68 68 66 66 65 66 67 66 66 67
69 66 65 64 65 64 63 63 63 62 61 61 64 65 63 63 63 70 65 64 63 65 62 62 63 63 64 66 67 67 67 67 67 68 68 67 66 65 64 64 66 66 66
67 65 64 63 64 62 61 61 59 61 60 61 67 67 64 65 66 63 62 67 64 64 64 62 59 59 61 64 65 66 67 68 67 67 67 68 65 65 65 64 64 65 66
66 64 62 61 61 60 59 59 58 57 58 59 59 60 61 63 62 65 66 63 64 65 64 64 60 60 60 62 64 66 67 67 67 66 66 66 66 64 64 64 65 65 64
65 66 62 61 60 58 57 57 56 55 55 56 55 55 52 57 61 62 65 66 65 67 66 65 65 63 61 59 58 64 66 66 65 65 64 64 65 64 64 64 64 64 64
66 64 61 60 58 57 55 55 55 54 52 54 54 52 48 48 53 58 60 62 58 62 60 63 65 65 62 60 60 60 59 60 62 63 63 63 64 64 64 64 64 64 64
62 62 61 59 57 56 54 54 58 53 52 50 52 56 51 48 43 45 52 54 57 57 57 60 62 63 62 58 58 57 55 54 57 60 61 62 63 64 65 64 64 64 63
60 60 59 56 55 55 54 53 52 51 50 47 47 46 46 46 47 41 41 43 48 50 51 52 53 54 54 59 58 53 53 52 53 56 58 60 62 64 64 64 64 64 64
56 56 58 55 54 54 53 52 51 48 46 46 46 45 44 44 43 42 40 40 39 43 46 46 49 49 50 51 56 53 52 51 53 55 55 56 58 62 63 64 64 64 63
53 53 54 53 53 52 53 52 50 49 48 45 44 43 44 44 45 43 40 38 38 41 41 44 47 48 51 49 50 52 52 49 51 53 53 54 56 57 60 62 63 63 63
52 53 53 53 51 50 49 49 48 47 46 46 43 45 42 42 43 41 39 37 34 36 39 39 45 46 47 48 48 51 52 49 50 51 52 52 53 53 54 57 59 60 60
54 52 50 50 49 47 48 47 45 45 46 44 43 42 42 43 43 43 44 42 37 33 34 41 38 46 45 47 47 47 52 51 49 48 50 50 51 52 53 53 54 54 55
51 50 49 49 48 47 46 46 43 44 44 44 44 44 43 44 45 44 43 42 41 38 34 41 44 46 47 50 49 48 50 50 48 48 48 48 49 51 51 51 51 52 52
50 51 50 50 49 47 44 43 43 43 43 43 44 44 44 46 45 45 44 44 41 41 38 41 45 46 46 46 49 48 49 50 48 47 47 47 47 48 49 49 48 49 50
49 49 49 48 48 46 45 44 43 43 43 42 43 42 43 48 43 42 43 41 41 41 39 37 40 42 41 44 44 46 52 55 48 50 47 47 47 46 46 46 46 46 46
48 48 47 46 46 45 44 44 44 42 41 41 41 40 42 41 38 38 38 39 39 43 39 37 36 38 39 41 41 43 43 44 50 51 47 44 45 46 45 45 45 46 46
47 46 46 46 45 45 46 43 43 40 39 39 39 39 39 40 39 38 38 35 37 34 35 34 35 36 38 40 39 38 37 40 41 51 50 47 44 45 45 45 45 44 45
47 46 45 44 44 44 43 37 38 36 35 36 36 38 39 40 42 40 40 36 34 31 31 32 32 34 35 35 35 38 37 37 38 41 40 39 40 42 42 44 46 45 44
45 44 43 43 41 46 37 36 35 32 34 34 32 35 36 39 39 40 40 39 36 32 31 30 30 29 31 33 35 34 31 30 28 37 35 32 38 37 40 42 45 44 43
43 41 41 41 39 39 37 36 34 32 32 32 32 33 34 39 37 37 36 36 36 35 32 31 29 29 30 32 33 31 30 28 28 33 33 27 29 31 36 44 43 42 43
41 40 40 39 37 39 38 37 34 30 30 30 31 31 31 32 34 35 34 31 32 33 34 35 33 32 34 35 34 34 32 33 32 32 34 30 27 31 29 33 42 43 43
40 39 40 37 34 34 37 36 33 29 29 29 31 31 32 31 34 35 31 29 29 31 37 38 35 34 36 37 36 33 29 29 27 29 31 31 28 29 29 31 32 41 41
41 37 35 34 36 32 36 35 32 27 25 27 29 30 32 33 30 31 28 28 27 29 31 30 30 32 34 35 35 33 31 27 27 26 32 32 30 28 28 29 32 33 29

GFSMA_sfc_temp_015.txt.gz
Temp
63 63 62 62 62 62 62 62 62 63 63 64 64 63 63 63 63 62 58 64 65 68 70 71 71 71 71 70 69 69 69 69 69 70 70 68 68 69 69 69 68 69 69
62 62 62 62 62 61 61 61 61 60 60 61 62 63 63 62 63 62 61 58 63 65 67 70 71 71 71 70 69 68 68 68 68 69 69 68 66 68 67 68 68 68 69
63 62 60 60 61 61 61 61 60 60 60 62 60 61 61 62 61 62 62 59 59 62 64 66 68 69 69 70 69 68 68 67 68 68 68 67 66 67 67 67 68 68 68
63 60 60 59 59 60 59 59 58 58 57 57 57 58 58 60 61 61 62 61 59 62 61 63 65 67 68 68 69 68 68 68 67 68 67 66 66 66 66 66 66 67 68
62 59 59 58 58 58 57 57 56 54 54 55 59 59 57 57 58 64 61 60 59 59 59 61 63 63 65 66 68 69 69 68 68 68 68 67 67 66 65 65 65 66 67
62 59 59 57 58 56 55 54 53 54 53 53 60 61 56 56 57 57 60 64 59 61 59 59 60 61 61 64 66 68 69 69 68 68 67 68 67 66 65 65 64 64 65
63 60 57 57 55 55 53 53 52 52 52 52 50 52 52 54 54 55 55 56 58 60 60 59 59 59 60 62 64 67 68 69 69 68 67 66 66 64 64 64 64 64 65
60 63 55 54 54 53 52 51 50 49 49 50 47 48 44 49 51 54 54 57 54 56 59 63 61 60 59 59 59 64 67 68 68 68 67 65 65 64 64 64 64 64 64
58 56 55 53 52 51 50 49 49 48 46 47 48 45 40 38 43 48 52 50 48 51 50 53 55 60 59 59 59 59 60 61 65 66 65 64 64 64 64 64 64 64 64
55 56 54 52 51 50 49 48 53 47 46 43 45 50 44 44 40 39 45 48 48 48 46 48 49 52 54 53 54 54 54 55 58 63 63 63 63 64 64 64 64 64 64
54 54 54 51 50 49 47 46 45 44 44 43 43 45 45 42 40 36 37 38 43 43 43 44 46 47 50 51 51 51 51 51 54 58 59 60 60 63 64 64 64 64 64
50 51 52 49 48 47 46 46 46 45 47 46 46 45 43 42 42 40 35 38 40 39 43 43 44 45 47 49 52 49 49 49 51 55 56 57 57 58 60 64 64 64 64
47 47 47 46 45 45 45 44 44 46 46 44 44 41 40 39 40 40 40 37 34 36 37 41 42 44 48 48 48 48 48 47 48 52 54 55 55 55 56 59 63 64 64
45 46 46 46 45 45 44 43 45 42 44 42 41 39 40 40 40 41 39 37 35 36 35 37 40 42 43 45 47 47 48 46 46 48 52 53 53 53 53 55 57 60 62
49 46 45 45 45 44 44 43 40 40 41 40 40 41 41 41 42 42 42 41 37 31 33 35 36 42 44 43 45 46 46 46 45 46 48 51 52 52 52 53 53 54 55
45 45 45 44 44 44 43 41 39 39 39 39 42 40 41 42 42 41 40 39 40 37 32 36 39 42 44 47 46 44 45 45 44 45 46 48 50 51 51 51 51 51 52
45 45 45 44 43 42 41 40 39 40 39 39 38 39 40 42 41 40 41 41 41 40 34 36 38 40 41 41 45 44 46 45 45 46 45 46 46 47 48 48 49 50 50
45 44 43 42 42 41 40 39 38 37 36 35 36 35 36 41 37 37 37 37 37 36 36 30 33 35 37 40 39 40 47 52 48 49 47 46 46 45 46 46 46 47 47
43 42 42 41 41 40 40 39 37 36 35 35 35 34 35 35 34 35 36 33 33 38 32 30 29 34 34 36 39 37 40 42 48 50 47 44 45 45 45 45 45 45 46
43 42 42 42 41 41 39 38 37 34 33 34 34 34 34 34 33 33 36 34 35 31 31 29 29 30 31 35 34 33 32 36 37 46 47 45 43 44 44 44 44 45 45
43 43 41 40 40 40 39 33 33 31 30 30 31 33 34 35 38 37 36 35 33 30 28 28 27 28 28 28 29 30 29 30 33 36 36 36 37 39 41 42 43 44 44
42 41 39 39 36 40 36 36 33 29 30 30 28 30 31 34 34 36 37 35 34 31 28 26 26 25 26 27 30 27 27 26 26 35 32 30 34 34 37 39 43 43 44
39 39 36 36 35 34 37 37 35 30 28 27 27 28 30 34 32 32 34 35 34 35 32 30 28 27 27 28 28 27 26 25 25 30 30 25 25 29 33 41 42 43 43
39 35 34 33 32 36 37 37 34 28 27 28 28 29 28 28 30 31 30 29 29 30 31 32 30 30 29 30 31 32 31 31 28 30 31 27 24 27 27 30 40 42 42
34 33 33 32 31 31 35 34 31 27 27 27 29 29 29 29 31 32 29 27 27 29 35 36 36 35 35 35 34 32 28 28 27 27 28 25 24 23 25 27 30 39 41
34 32 32 31 33 29 35 35 30 27 23 25 26 28 30 30 30 30 27 25 24 26 28 28 28 29 31 31 33 31 30 27 27 21 27 27 27 25 21 24 30 30 29

GFSMA_sfc_temp_018.txt.gz
Temp
60 60 60 59 59 59 58 58 59 59 59 60 61 61 61 61 60 60 57 62 64 67 70 72 73 72 72 70 70 69 69 69 69 70 69 69 70 69 70 69 68 68 69
60 59 59 59 58 58 58 57 57 57 57 58 58 60 60 60 60 60 59 57 62 64 67 70 72 72 72 71 70 69 69 68 68 69 69 68 68 67 67 68 68 68 68
60 58 57 57 57 57 57 57 56 56 56 58 56 57 58 59 58 59 59 59 58 61 63 66 68 70 71 71 70 69 68 67 67 68 68 67 67 65 65 66 67 67 68
60 57 57 56 56 56 56 55 54 54 53 53 52 54 54 56 57 58 57 57 58 61 61 63 65 67 68 69 70 70 70 68 68 67 68 67 67 66 65 67 67 67 67
60 57 56 55 55 55 53 53 53 50 50 51 55 54 53 53 54 60 57 57 56 57 59 61 62 64 65 67 69 70 70 69 69 68 68 67 67 66 66 65 66 66 66
59 56 55 55 54 53 52 51 50 51 49 49 56 55 50 51 52 51 52 57 56 56 55 56 56 59 61 65 66 68 70 70 70 69 68 68 67 66 66 65 65 65 65
58 57 55 53 52 51 50 50 49 48 48 48 46 50 48 50 49 49 50 50 52 54 53 54 55 57 57 61 64 67 69 70 70 70 69 67 66 66 65 65 65 65 65
56 57 51 50 50 49 49 48 47 46 46 48 44 43 42 47 45 49 48 49 45 49 50 53 52 54 55 57 59 63 66 69 70 69 68 67 66 64 64 64 64 64 65
55 52 51 50 49 48 46 45 45 45 43 44 45 43 39 37 41 45 46 45 43 44 44 47 50 52 55 51 52 55 57 58 63 67 68 67 65 64 64 64 64 64 64
52 52 51 48 47 46 45 45 47 43 43 41 44 48 47 45 40 38 41 45 43 44 42 43 44 47 49 51 52 51 50 51 55 62 65 66 65 64 64 64 64 64 64
50 50 49 46 45 45 44 43 43 42 42 41 41 41 41 41 43 38 36 38 40 41 41 41 41 43 46 48 50 49 49 48 50 55 61 63 63 63 63 64 64 64 64
46 46 47 44 44 43 42 42 42 42 41 41 41 40 39 37 38 36 37 37 37 37 39 40 40 41 44 45 50 49 49 48 48 50 53 58 60 60 60 61 63 64 64
44 44 44 43 43 43 43 42 42 44 44 43 40 40 39 38 40 38 39 37 37 38 38 39 39 41 44 43 44 48 48 46 47 48 48 51 56 57 57 57 59 62 64
44 44 44 44 44 43 43 41 40 39 41 38 38 38 39 40 39 40 38 37 34 36 34 35 38 40 40 41 44 47 45 46 45 45 46 48 50 53 54 55 55 58 60
46 44 43 43 43 42 42 41 38 38 37 37 38 39 39 40 42 40 39 37 34 31 33 35 34 40 39 41 43 43 43 45 44 44 45 46 47 52 52 53 53 54 55
44 43 43 42 41 41 40 39 37 37 36 36 37 35 35 36 37 39 40 39 37 34 30 35 35 37 40 44 45 44 42 45 44 43 43 44 45 50 50 51 51 52 52
44 46 43 42 41 40 39 37 36 36 35 34 34 34 34 35 34 34 34 36 36 37 34 34 36 37 37 37 40 40 43 43 43 44 43 44 44 45 48 48 49 50 50
46 44 44 43 41 40 38 37 35 35 34 33 33 32 32 37 32 32 32 33 32 34 31 29 31 33 34 37 37 36 42 47 45 47 45 44 44 44 45 45 46 47 47
43 43 41 42 41 40 38 36 35 33 32 32 31 31 31 31 30 30 30 31 32 35 32 30 28 30 32 34 34 35 36 36 43 46 45 44 44 44 44 44 46 46 46
41 43 42 42 40 39 37 35 34 31 31 31 31 31 30 29 29 29 30 30 32 29 30 29 28 28 29 32 32 30 29 31 32 40 42 41 42 43 44 43 43 44 45
41 41 41 39 37 37 37 32 32 31 30 29 30 30 30 32 35 34 33 31 30 27 28 28 27 26 27 26 27 29 27 27 30 32 32 34 35 37 39 42 43 44 44
41 41 39 37 35 38 36 36 35 29 30 29 27 29 29 32 32 33 33 34 34 29 27 28 26 26 25 25 26 26 25 23 23 30 29 28 32 32 35 38 41 42 43
38 37 36 36 32 33 37 37 35 31 28 27 26 27 28 32 30 29 31 32 32 33 31 30 28 26 25 26 27 25 24 24 24 30 28 24 25 28 32 38 40 42 42
38 35 33 31 31 33 35 34 34 27 26 26 27 27 27 27 28 29 29 28 29 30 30 31 29 28 28 29 28 29 28 28 30 31 29 24 23 23 28 28 38 41 42
33 32 31 31 29 28 34 34 29 24 25 25 27 27 28 27 29 31 28 27 26 28 33 34 34 32 33 33 33 31 28 28 25 28 27 25 25 22 23 25 29 38 40
33 32 31 29 31 26 32 33 30 22 19 23 25 27 28 28 29 29 27 26 25 26 26 26 26 28 30 30 32 29 27 24 24 21 27 25 27 23 20 23 27 27 26

GFSMA_sfc_temp_021.txt.gz
Temp
57 57 57 57 57 57 56 56 56 56 56 57 58 58 58 58 58 57 56 62 63 66 70 73 73 74 73 71 70 69 69 69 69 69 69 68 68 68 69 69 68 68 68
57 57 57 57 56 55 55 54 54 54 54 55 56 56 57 57 57 57 57 56 61 63 66 68 71 73 73 73 70 69 69 69 68 68 68 68 67 67 68 69 69 69 68
57 56 55 55 54 54 54 54 54 53 52 54 53 54 55 55 55 55 55 56 56 60 61 64 66 68 70 72 71 70 69 68 68 68 68 67 67 66 66 67 66 69 69
57 55 54 53 53 53 52 52 51 51 50 49 49 50 51 52 53 54 54 54 53 56 57 60 62 64 66 69 71 71 71 69 68 68 67 67 67 66 66 66 66 67 69
57 54 52 52 53 52 50 50 50 48 48 48 50 51 49 49 50 54 52 52 52 52 53 56 57 58 60 63 66 70 72 71 70 69 68 67 67 66 66 66 66 66 67
55 56 53 51 51 50 49 49 47 48 47 47 52 51 48 49 48 47 48 51 50 50 50 52 52 53 57 59 62 65 68 71 71 71 69 68 67 66 66 65 65 66 66
56 51 50 50 49 48 47 47 46 45 45 46 43 47 46 46 47 47 47 46 47 49 48 50 50 50 52 56 58 61 65 68 70 71 70 68 67 65 65 65 65 65 65
54 53 49 48 47 47 46 45 44 43 43 44 41 41 39 43 44 47 45 46 43 45 47 49 48 49 49 51 52 56 58 60 64 68 69 67 66 65 64 64 64 65 65
51 49 48 47 46 45 44 43 42 42 40 42 42 40 36 34 42 42 46 42 42 42 42 44 46 47 47 48 50 51 51 52 56 60 63 65 66 65 65 64 64 64 64
48 50 48 48 44 43 42 42 44 41 40 38 40 45 41 39 35 36 39 44 41 43 40 40 41 43 45 46 49 50 50 49 51 56 60 62 65 66 65 64 64 64 64
48 51 49 46 43 43 41 41 41 40 40 38 38 38 38 37 38 34 34 36 41 40 39 39 39 40 43 45 45 48 50 48 49 52 55 59 64 65 63 63 64 64 64
47 46 45 43 43 42 41 41 40 40 39 39 38 38 39 38 38 37 36 38 38 41 39 38 38 39 41 42 47 49 48 47 48 50 51 53 56 59 60 61 63 63 64
42 42 43 42 42 42 42 41 40 39 38 37 36 36 36 36 39 39 37 35 35 38 38 41 38 38 42 40 42 47 48 46 46 47 48 50 50 53 56 57 58 61 63
42 43 42 42 42 42 41 40 39 38 38 36 35 35 35 36 37 39 36 33 31 33 37 38 41 38 38 39 42 47 43 45 45 45 45 47 48 50 52 54 55 57 59
44 43 42 42 43 42 41 41 37 36 35 35 34 34 33 34 33 35 35 36 33 28 29 33 32 39 39 40 42 40 41 45 45 44 44 44 46 47 49 51 52 54 56
43 43 45 42 41 42 40 38 36 36 36 33 34 32 32 32 32 32 31 32 33 32 29 32 36 36 38 42 43 38 39 46 44 43 43 43 43 45 46 48 48 50 53
45 45 44 42 41 39 38 37 36 36 35 32 32 32 31 32 30 30 30 31 31 30 28 32 34 35 35 36 37 38 39 38 39 44 43 43 42 43 43 45 46 46 48
41 41 42 42 41 40 39 36 36 35 32 31 31 30 30 35 29 29 29 29 29 30 29 27 30 30 32 35 35 34 40 43 37 44 43 43 43 42 42 43 44 45 45
39 40 41 39 40 39 37 36 34 32 31 31 30 30 30 29 27 27 28 28 28 32 30 28 29 29 29 30 31 32 33 33 39 42 42 43 43 44 44 43 44 44 46
40 41 38 39 39 38 38 35 33 31 30 31 31 30 29 29 27 27 28 28 30 29 29 28 28 28 29 30 29 29 28 29 30 38 39 41 41 43 44 44 44 44 45
41 39 38 38 37 38 36 33 32 31 30 29 30 30 30 31 34 33 31 28 26 26 29 28 28 28 28 27 26 28 26 26 27 29 30 33 35 37 38 41 43 44 44
39 37 38 36 35 37 37 37 35 30 30 29 27 29 29 31 31 32 32 32 31 27 26 26 26 26 27 25 25 25 25 23 22 28 27 27 32 33 35 37 41 41 43
37 34 34 33 32 31 36 35 34 30 27 26 26 26 27 30 29 28 30 31 30 32 30 27 25 26 27 28 27 25 23 23 23 27 26 23 23 28 33 37 39 40 42
33 31 30 31 30 32 34 34 32 26 25 25 26 26 26 26 27 29 27 28 28 30 30 30 29 27 28 29 28 29 27 27 26 27 27 26 21 23 26 29 37 39 41
30 30 31 29 27 27 33 33 30 24 24 24 26 26 27 27 28 30 28 26 26 29 32 33 33 33 33 31 32 29 28 26 24 26 26 24 22 21 23 24 29 38 39
32 31 30 28 31 25 30 31 30 21 16 23 24 26 27 28 30 30 26 25 23 26 28 27 26 28 29 29 31 29 26 24 23 19 26 24 27 23 18 21 22 25 25

GFSMA_sfc_temp_024.txt.gz
Temp
56 56 55 55 55 55 54 53 54 54 54 55 55 55 55 56 56 57 55 61 62 64 67 69 70 71 71 72 71 70 70 70 70 70 69 68 67 67 67 67 68 69 69
56 55 54 54 53 53 52 52 52 52 52 53 53 54 54 54 54 54 55 54 59 61 62 64 65 66 68 69 69 70 70 69 69 69 68 68 67 66 66 66 67 68 69
55 54 52 52 52 52 52 52 52 52 51 52 51 52 53 52 53 53 53 53 53 57 59 60 61 62 63 64 65 67 69 68 68 68 68 67 67 66 66 66 66 67 68
54 52 52 51 52 52 51 50 49 49 48 48 47 49 50 51 51 52 52 52 51 53 54 58 59 59 60 62 63 65 67 68 69 68 68 67 67 66 66 65 65 66 67
55 52 53 51 54 50 48 49 48 47 47 47 50 50 48 48 49 52 50 50 50 50 51 54 55 56 57 59 61 62 65 66 68 70 68 67 67 66 66 65 65 66 66
55 55 53 50 49 48 47 46 46 46 46 45 50 50 47 47 47 46 47 50 49 49 48 49 49 51 54 56 58 60 62 64 66 68 70 69 67 66 66 65 65 65 65
52 49 48 47 47 46 45 45 44 44 44 44 43 44 44 46 45 46 46 46 46 47 48 48 49 48 49 53 54 57 60 61 61 63 66 68 68 66 65 65 65 65 65
50 50 47 46 46 46 45 43 42 42 42 42 40 39 37 41 43 47 44 46 43 45 46 48 47 47 47 48 49 54 55 55 57 59 61 62 64 66 66 65 65 64 64
49 48 47 46 45 45 43 41 41 40 39 40 41 39 35 33 38 42 45 43 42 42 43 45 46 46 46 46 48 50 53 52 53 56 58 60 62 63 65 65 65 65 64
49 49 47 47 44 43 42 41 43 40 39 37 39 43 40 39 36 36 41 43 43 43 43 41 43 43 44 45 48 48 50 49 50 53 55 57 60 62 64 65 64 64 64
50 48 46 44 42 41 41 40 39 39 39 38 37 37 37 37 37 36 34 37 43 46 42 41 40 41 43 44 44 46 49 48 48 51 53 55 56 59 64 64 64 64 64
44 44 44 42 42 41 40 39 39 39 38 37 37 36 36 35 34 33 32 35 35 38 41 42 40 40 41 42 46 47 48 47 47 49 50 52 53 55 57 60 62 63 64
41 41 41 41 41 41 41 40 39 38 37 37 35 35 35 34 35 35 35 33 32 35 37 41 41 42 42 40 41 47 47 46 46 47 48 49 50 51 53 54 57 58 61
41 41 41 41 41 42 41 40 39 38 37 36 35 34 34 34 34 34 34 31 28 31 33 35 39 40 41 42 42 46 43 44 45 45 46 46 47 48 49 51 53 55 57
43 42 43 44 44 43 40 39 37 36 36 35 34 34 32 33 32 32 32 32 29 24 28 34 33 39 40 41 42 41 40 44 45 44 44 45 46 46 47 48 50 50 51
41 45 44 42 41 39 40 38 37 36 35 34 34 32 32 32 31 31 30 30 30 28 24 33 35 36 39 43 43 42 39 44 43 44 43 44 44 44 45 45 46 48 49
43 41 41 40 39 40 39 37 36 35 33 33 32 32 31 31 30 30 30 29 29 29 25 29 34 36 35 36 39 39 40 39 39 42 43 43 43 43 43 43 43 45 46
39 39 39 41 42 39 37 37 34 35 33 32 31 31 31 34 30 29 29 28 28 29 27 25 30 31 32 36 36 35 39 43 39 43 42 42 43 43 42 42 42 43 44
37 38 42 41 37 37 36 35 34 34 32 31 30 30 30 30 28 28 28 27 28 30 29 28 28 32 32 33 34 34 34 35 39 41 41 41 41 42 43 43 43 43 43
37 40 40 39 37 37 36 35 34 32 31 31 31 30 30 29 28 28 28 28 29 28 28 27 27 30 30 32 32 32 31 33 34 38 39 38 40 41 42 43 43 44 44
38 39 38 38 36 36 36 33 32 31 30 29 30 30 30 31 34 33 31 29 28 26 26 26 26 28 29 29 29 32 30 30 31 32 33 34 36 37 39 40 43 44 44
39 38 37 34 31 36 36 36 33 29 29 28 26 28 28 30 30 31 31 31 31 26 25 25 26 25 26 29 29 28 27 26 26 32 31 30 34 35 36 38 39 41 42
37 32 31 31 30 31 35 35 34 29 27 26 26 26 26 30 28 28 28 30 30 31 29 28 26 26 27 29 30 29 28 26 26 30 30 28 29 31 35 38 38 40 41
32 30 29 30 29 31 34 33 32 26 25 26 26 26 26 26 27 29 28 28 29 30 30 31 29 29 30 31 29 30 29 29 29 30 30 26 29 29 32 33 36 39 40
31 31 30 28 27 27 32 32 30 25 25 24 26 27 27 27 28 31 27 26 27 29 32 33 33 33 33 33 33 30 27 27 25 28 29 28 27 28 29 31 33 37 39
31 30 30 28 30 26 30 31 30 22 17 23 25 26 27 28 29 29 26 24 23 26 27 28 30 30 30 30 30 29 28 25 26 23 29 27 28 28 26 28 29 31 33

GFSMA_sfc_temp_027.txt.gz
Temp
68 68 67 68 68 69 68 68 68 67 67 67 67 67 68 67 67 69 70 61 61 63 65 66 67 67 67 67 67 68 69 70 70 70 69 68 68 67 67 67 67 68 68
67 67 66 67 67 68 68 68 67 67 66 66 66 65 66 67 66 66 68 68 58 59 61 63 63 64 65 65 65 65 66 68 69 70 69 68 67 66 66 66 66 67 67
65 65 66 66 66 65 65 66 65 66 65 65 65 65 66 65 65 64 65 66 65 59 58 60 60 61 62 63 63 64 65 66 67 69 69 68 67 66 66 66 66 66 67
66 63 59 63 63 60 60 63 63 63 63 63 63 65 65 65 62 62 64 64 64 65 62 57 57 59 59 61 62 63 64 64 66 67 68 68 67 66 66 66 65 66 66
62 60 57 61 61 61 61 61 61 60 60 60 61 63 63 64 63 64 61 60 60 61 62 59 57 57 57 58 59 61 63 64 64 65 66 68 68 66 66 66 66 66 66
62 63 61 60 62 61 59 59 58 59 59 57 59 60 60 62 63 61 59 61 60 59 59 59 60 60 56 56 57 59 60 62 63 63 63 64 65 67 66 66 66 65 66
61 61 62 61 60 59 57 56 57 55 57 56 56 56 58 59 57 59 59 58 58 58 58 58 59 59 59 56 56 56 58 59 60 60 61 61 63 63 65 66 65 65 65
61 61 59 59 58 59 56 55 54 54 55 54 51 52 51 55 58 57 57 57 55 57 57 57 56 56 56 57 56 53 54 56 56 57 59 59 61 62 63 65 65 65 65
60 59 58 58 57 57 55 54 53 51 51 53 51 50 46 45 48 54 54 55 54 54 55 56 55 55 55 55 55 55 52 51 52 54 57 58 59 61 62 63 65 65 65
58 59 58 57 56 57 54 54 55 52 51 49 51 53 50 48 43 42 50 51 52 51 52 53 53 53 54 54 52 51 49 49 50 52 54 56 58 59 60 62 64 65 65
58 57 57 55 55 56 54 53 53 52 52 49 49 48 48 48 48 43 39 44 49 51 51 51 51 52 52 52 53 52 48 48 48 50 52 53 55 56 57 59 64 64 64
58 56 55 54 54 53 52 52 51 50 50 49 49 48 46 44 43 41 40 41 42 45 49 50 49 50 51 51 51 48 48 47 47 48 50 51 52 53 54 56 57 62 63
56 54 53 52 53 52 52 52 51 50 50 49 48 47 47 46 46 44 41 40 38 43 45 48 48 50 52 51 51 48 49 45 46 47 48 48 50 50 52 53 54 55 58
55 54 53 53 53 52 52 51 51 50 49 48 47 47 46 47 45 43 41 38 34 38 42 42 48 48 49 51 50 47 51 45 45 46 46 47 48 48 49 50 51 51 52
53 52 52 52 52 52 51 50 49 48 48 48 47 46 45 45 44 43 42 40 36 30 34 41 41 47 48 48 48 49 49 48 45 45 45 45 46 47 47 48 48 49 50
53 52 53 52 51 49 48 48 48 48 46 47 46 44 44 44 43 43 42 41 39 35 32 40 41 43 45 46 46 47 48 46 45 43 43 44 45 45 46 46 46 47 48
54 52 50 50 48 46 48 48 47 46 45 45 44 43 42 42 42 42 41 40 39 38 33 37 40 42 41 42 43 46 48 48 49 44 43 43 43 43 44 44 44 44 45
50 49 48 48 48 48 48 46 45 45 43 42 42 41 41 41 40 40 39 38 37 38 34 32 37 38 38 41 41 42 45 47 49 46 43 42 42 42 43 43 43 43 44
48 48 47 47 45 44 45 45 43 42 41 41 41 40 39 39 38 38 38 36 36 35 33 32 32 37 38 40 39 41 43 44 47 45 42 41 41 42 42 43 43 43 44
46 47 46 45 44 45 44 43 41 41 40 40 39 38 37 36 36 36 34 33 33 32 32 30 32 33 35 37 36 36 38 43 43 46 44 41 40 42 41 41 43 43 43
46 44 41 42 43 43 43 41 41 39 39 38 37 36 36 34 33 33 33 33 32 30 30 30 30 31 32 34 33 37 35 37 38 42 43 44 45 46 47 44 45 43 43
45 44 41 41 40 41 36 36 37 38 37 35 34 35 35 33 33 31 31 31 32 30 29 30 30 29 32 31 35 34 34 32 31 43 40 40 44 43 45 47 40 40 42
43 42 41 40 39 39 35 35 34 37 35 34 33 33 33 34 32 33 32 32 32 32 31 30 28 31 31 34 34 32 33 32 32 36 38 36 40 39 43 45 40 39 40
42 41 39 39 38 37 33 33 32 35 34 33 33 33 32 32 32 31 30 31 32 34 34 33 32 33 35 36 35 34 32 33 36 39 38 29 38 36 40 42 39 38 39
42 40 39 37 36 36 32 32 33 33 32 32 32 33 32 31 30 30 30 28 30 32 34 34 33 33 33 33 34 33 30 29 30 35 38 33 35 35 38 38 41 38 38
40 40 37 37 33 34 30 31 32 32 29 30 31 32 29 29 29 29 28 27 25 29 30 32 33 34 34 34 32 33 33 29 31 30 38 33 35 37 33 39 40 41 42

GFSMA_sfc_temp_030.txt.gz
Temp
77 79 77 80 79 80 79 77 76 76 75 75 74 73 74 74 74 77 77 60 61 62 64 66 66 66 65 65 65 65 66 67 68 69 70 69 68 68 67 67 67 67 67
76 76 76 78 79 78 76 75 73 73 74 73 73 73 72 73 73 72 75 76 59 60 61 62 63 63 64 64 64 64 65 65 66 67 68 69 68 67 67 67 67 67 67
72 74 76 75 70 70 69 70 71 73 73 74 72 73 73 73 72 70 72 73 73 58 59 59 60 60 61 62 62 63 64 64 65 66 66 67 68 67 67 66 66 66 67
70 69 69 67 68 71 71 71 70 69 70 70 69 71 71 72 71 69 71 69 70 71 66 60 60 60 60 60 61 62 63 63 64 65 65 64 66 67 67 66 66 66 66
64 67 70 69 69 70 69 68 68 67 66 67 67 68 69 69 70 71 67 67 67 67 67 64 60 60 59 59 59 60 61 62 63 64 64 64 64 64 65 66 66 66 66
69 70 69 68 69 69 67 65 64 66 65 65 65 66 66 67 69 68 66 67 67 65 66 64 65 65 59 59 59 59 59 60 61 62 62 62 63 62 63 64 66 66 66
69 69 71 69 68 66 64 63 63 62 63 64 60 63 65 66 64 66 66 65 64 64 63 64 64 64 64 59 59 59 58 58 58 59 59 60 60 61 62 63 64 65 66
69 69 67 68 66 66 64 62 61 60 61 62 56 56 55 60 65 65 63 63 62 62 62 62 61 61 61 62 60 56 57 55 55 56 57 58 59 60 61 62 63 64 66
69 67 67 67 66 65 63 61 60 58 56 59 59 54 50 50 54 59 59 61 59 59 59 60 59 59 60 60 59 58 53 51 52 54 55 56 57 59 60 61 62 64 64
67 68 66 65 64 64 61 61 62 58 57 54 58 59 56 53 47 46 54 55 58 57 57 57 58 58 58 57 54 53 49 49 49 52 53 55 55 57 58 59 60 61 63
66 66 65 64 62 63 62 59 58 57 58 55 55 54 53 53 53 48 44 50 55 57 57 56 55 56 57 56 58 55 49 48 49 50 52 53 53 55 56 57 58 58 61
67 66 65 63 62 61 60 59 58 57 55 55 54 52 50 49 49 48 46 47 47 52 54 55 54 55 55 56 55 51 50 48 48 49 50 51 51 52 53 55 56 56 57
65 64 63 61 61 61 58 58 57 56 55 53 52 51 52 51 52 50 47 46 44 49 50 53 54 55 55 55 55 51 50 47 48 48 49 49 49 50 51 52 53 54 55
62 62 61 61 60 60 59 58 56 55 54 52 50 51 52 51 52 50 46 43 40 43 46 47 53 53 54 54 52 48 53 48 47 46 47 48 48 49 49 50 50 51 53
61 60 60 59 59 59 58 56 55 53 52 51 50 50 49 50 49 48 49 46 39 33 38 45 46 51 52 52 50 50 50 48 46 46 45 46 46 48 48 48 48 49 49
60 59 58 58 58 57 57 54 53 53 50 51 52 49 49 49 48 50 49 48 46 41 38 45 46 48 49 50 49 49 49 46 45 45 44 44 44 45 46 47 47 47 47
58 57 56 55 55 55 55 53 52 51 50 49 49 48 48 49 48 48 48 47 45 44 38 42 45 47 45 45 47 47 47 49 51 46 44 43 43 43 43 44 45 45 45
56 55 55 54 54 53 52 50 49 49 48 47 48 48 47 49 46 47 46 44 43 42 38 35 40 40 41 43 44 44 46 49 49 48 44 43 42 42 42 42 43 44 44
54 54 54 51 49 50 50 50 49 47 47 47 47 46 45 45 43 44 43 42 40 39 39 36 35 39 40 42 41 42 41 42 48 47 44 42 42 42 42 42 42 43 44
53 53 52 50 49 50 49 49 48 47 47 47 46 45 43 42 41 40 39 40 39 37 37 35 35 35 37 39 41 39 39 42 42 47 46 44 43 44 43 42 42 43 43
52 52 50 48 48 48 49 47 47 46 46 45 44 44 43 39 35 35 36 36 35 33 33 32 33 34 35 37 35 39 37 40 42 44 43 45 46 48 49 42 44 43 42
51 51 49 48 47 48 35 36 37 44 44 43 42 42 42 39 38 34 33 33 33 32 30 31 31 31 33 36 37 35 36 34 32 43 39 40 45 44 47 50 39 40 40
50 48 47 47 46 46 35 34 34 42 42 41 40 40 40 40 37 37 34 33 33 33 31 33 30 32 33 35 36 35 36 35 34 40 39 36 42 40 44 48 41 40 40
49 48 47 47 46 44 34 33 33 41 41 40 40 39 39 38 38 33 32 32 35 36 37 36 35 35 36 37 35 35 36 36 38 40 40 33 39 38 43 44 41 40 40
48 47 47 46 44 43 33 32 33 39 39 38 39 39 37 36 32 30 31 30 33 36 37 35 34 34 34 34 35 35 32 32 30 34 39 37 38 37 38 41 43 40 39
47 47 46 45 39 41 33 32 33 37 34 36 38 38 34 32 29 30 29 29 28 31 33 33 34 37 37 38 35 36 35 30 31 32 40 34 37 37 34 42 44 44 44

GFSMA_sfc_temp_033.txt.gz
Temp
75 79 78 80 78 79 79 77 76 74 74 75 75 75 74 74 74 76 75 62 63 64 64 65 65 65 65 65 64 65 65 66 66 67 67 68 68 68 68 67 67 67 67
70 77 77 77 78 75 74 72 71 73 74 75 74 74 73 74 75 74 74 74 61 62 62 62 63 63 63 63 63 63 64 64 65 66 66 66 66 67 67 67 67 67 67
69 71 71 65 68 69 70 73 72 73 73 74 72 73 73 72 74 73 72 73 70 60 61 61 62 62 62 62 62 62 62 63 63 64 65 65 65 65 65 66 66 66 67
64 63 63 67 70 70 70 70 70 69 69 69 69 70 70 71 71 71 73 72 71 71 65 62 62 62 62 62 62 62 62 62 62 63 64 64 64 64 64 65 65 66 66
67 68 70 71 71 72 70 69 68 67 66 67 68 68 68 69 69 72 70 69 68 69 68 65 62 61 61 61 61 61 62 61 61 62 63 63 63 63 63 63 64 65 66
71 72 72 70 70 70 69 66 65 66 65 65 66 65 66 68 69 68 69 70 68 67 66 65 65 65 60 61 61 61 61 60 61 60 60 60 61 61 61 62 63 63 64
72 72 73 71 69 69 66 65 64 62 62 64 61 61 62 65 67 68 68 67 65 66 65 64 63 63 63 61 61 61 60 60 58 58 58 58 59 59 60 61 62 63 64
72 72 68 69 68 67 66 65 62 60 61 62 56 57 52 57 63 64 64 63 63 64 63 62 61 61 61 61 60 59 55 54 55 56 56 57 57 58 59 60 61 62 63
72 70 68 67 66 66 65 63 62 59 57 59 59 55 50 48 53 59 59 61 59 60 61 61 60 59 59 59 59 57 52 51 52 54 55 56 57 57 57 59 60 61 61
70 70 69 67 65 65 63 63 64 60 58 55 58 60 58 55 48 46 56 57 59 58 58 59 59 58 57 58 57 53 50 49 50 52 53 55 55 55 56 57 58 59 60
69 69 68 66 64 64 63 62 60 59 59 56 55 55 54 54 53 48 44 49 55 57 57 57 57 57 57 57 57 55 50 49 49 50 52 53 53 54 55 55 56 57 58
70 69 68 66 65 63 62 62 61 58 57 55 54 53 51 48 47 46 44 46 48 52 55 56 56 56 57 57 57 53 52 49 49 50 51 51 52 52 53 54 54 55 56
66 65 64 63 63 62 62 61 57 56 56 54 52 51 53 50 50 49 46 44 44 48 51 54 55 56 56 56 55 51 50 48 48 50 50 50 50 51 51 52 53 53 54
64 63 62 62 61 61 61 60 57 56 55 53 52 51 52 49 50 49 46 41 39 43 47 46 53 54 55 54 53 50 52 48 48 47 47 48 48 49 49 50 51 51 52
63 62 61 60 60 59 59 59 57 54 54 53 51 51 50 50 50 50 48 47 41 35 39 46 47 52 53 52 52 51 50 48 47 46 46 46 47 47 48 49 49 50 50
61 60 59 59 58 58 58 57 56 55 52 51 51 50 50 49 48 48 49 49 48 43 38 46 48 49 50 50 50 49 49 47 46 45 45 45 45 46 46 46 47 47 48
60 58 58 57 57 56 57 54 53 52 51 50 51 49 47 48 47 48 49 49 47 47 41 45 47 47 45 45 46 47 48 48 48 46 45 45 45 44 44 44 44 45 45
59 58 57 56 56 55 53 51 51 50 49 48 47 47 46 49 47 48 47 45 45 45 43 38 41 41 41 43 44 43 46 47 47 47 45 45 44 43 43 43 43 43 43
57 57 56 55 54 52 50 50 50 48 48 47 47 46 47 46 44 45 44 42 42 43 42 37 36 39 41 42 41 43 43 44 47 46 45 44 42 43 43 43 43 43 43
55 55 55 55 52 52 51 49 49 48 47 48 48 47 46 44 43 40 39 39 39 38 37 35 35 36 38 40 39 39 37 42 41 47 46 44 43 43 42 42 42 43 43
55 55 54 53 50 49 50 47 48 47 47 47 47 47 46 42 38 37 37 36 35 33 33 32 32 33 33 35 35 38 37 38 39 43 41 43 44 43 45 43 44 43 41
54 54 53 51 50 50 35 37 37 44 45 45 44 44 44 42 41 38 37 35 34 32 30 30 31 30 32 35 35 34 34 33 32 43 38 34 40 38 44 46 41 41 41
53 52 51 50 48 48 36 36 35 41 43 44 43 42 42 44 40 40 37 35 35 35 33 33 31 31 31 34 35 33 34 32 33 38 38 35 39 37 42 46 42 41 40
51 50 49 49 47 46 36 35 34 40 43 43 42 42 41 40 38 33 33 33 35 37 38 38 36 34 35 36 35 35 34 35 37 39 40 31 38 37 41 44 43 42 41
50 49 50 48 47 44 35 35 34 40 40 40 41 41 40 38 33 31 30 30 32 34 38 37 36 35 35 35 35 35 31 31 30 34 38 34 36 36 39 39 42 42 40
49 50 48 48 41 45 35 35 34 38 36 37 40 40 35 33 30 30 28 28 27 31 32 32 33 35 37 37 35 36 34 29 31 30 38 34 35 36 33 40 41 42 41

GFSMA_sfc_temp_036.txt.gz
Temp
68 69 69 69 68 67 64 63 63 64 65 67 66 66 66 64 65 64 62 63 63 65 66 66 65 65 65 64 63 63 64 64 65 65 66 66 65 66 66 67 67 67 67
66 67 65 63 64 63 63 63 63 63 63 64 64 64 64 63 63 63 63 60 62 63 63 64 64 64 64 64 63 63 63 63 64 64 64 65 65 65 65 65 66 66 67
64 63 62 61 61 62 63 63 63 62 61 63 61 62 62 61 61 62 61 62 59 61 61 63 64 64 65 63 63 63 62 62 62 63 63 64 64 64 64 64 64 64 66
63 61 61 61 61 62 62 61 59 58 58 57 56 57 58 60 61 61 61 60 60 62 60 62 63 64 64 63 63 63 63 63 62 62 62 63 63 62 62 63 63 63 64
63 62 61 61 62 62 60 60 57 56 54 55 58 56 55 56 58 64 60 60 60 59 58 62 61 61 62 63 63 63 63 62 62 62 60 61 61 61 61 61 62 63 63
65 64 63 61 61 61 59 57 55 55 53 53 60 57 54 54 57 56 57 61 61 60 57 56 54 55 60 61 61 62 61 62 61 60 59 59 59 59 59 60 61 62 63
66 64 63 62 61 59 57 57 54 52 51 52 50 50 51 54 54 54 54 54 56 59 55 54 54 52 53 59 59 60 60 58 58 58 58 58 58 58 59 59 60 61 62
66 65 61 60 59 57 56 55 53 50 50 51 46 46 43 47 50 54 51 53 51 53 54 55 53 53 50 50 52 58 57 55 56 56 56 56 57 57 58 58 59 59 61
66 64 62 60 58 56 54 53 52 51 47 49 50 45 41 39 45 48 49 49 48 48 49 51 52 53 51 48 51 53 54 51 53 55 55 55 55 56 56 56 58 59 59
64 65 63 60 57 56 54 53 56 51 49 46 47 53 47 45 40 38 44 46 47 50 47 46 48 50 50 48 52 53 51 50 51 53 54 54 54 55 55 55 55 57 57
63 63 62 59 57 55 54 53 52 51 50 47 45 44 44 44 43 38 36 39 45 46 46 46 45 46 49 49 47 49 50 50 50 51 52 53 54 54 54 54 55 55 56
60 60 60 56 55 54 53 52 52 51 48 47 46 44 43 41 40 39 36 37 39 42 44 45 44 45 45 45 53 52 49 48 49 51 52 52 52 53 53 54 54 55 55
56 55 55 54 53 53 53 52 50 50 48 46 44 43 43 45 46 43 38 37 35 40 41 42 43 44 49 45 45 50 50 48 48 49 50 50 50 50 51 52 52 53 54
55 56 54 54 53 53 51 51 49 48 49 45 44 43 43 44 43 42 39 35 33 36 38 39 42 43 43 45 46 49 44 47 47 47 48 48 48 49 49 49 50 51 52
58 54 53 52 52 51 50 49 47 47 47 44 43 43 43 44 42 41 40 40 35 30 32 38 39 42 42 42 43 43 42 46 46 46 46 46 47 48 48 48 49 49 50
55 53 52 51 51 50 50 48 46 46 45 43 45 42 42 42 41 41 40 39 40 37 32 38 39 39 40 45 45 42 42 46 45 45 45 45 46 47 47 47 47 48 48
54 53 52 51 50 50 49 46 45 46 45 43 43 43 41 42 40 40 39 39 37 36 33 36 39 39 37 36 39 40 41 41 42 44 44 44 44 44 45 46 45 45 46
53 52 52 51 51 50 47 46 44 46 43 42 41 41 41 46 40 38 36 35 35 36 33 31 34 34 34 36 37 36 41 44 41 45 44 44 44 44 43 43 43 43 44
52 51 51 50 49 48 46 46 45 44 43 42 41 41 40 39 35 34 33 32 33 37 33 30 30 33 33 35 35 36 37 37 42 44 44 44 43 44 42 43 43 43 43
51 50 50 50 49 48 47 47 46 43 42 42 42 41 39 38 34 32 33 30 32 30 30 29 29 30 31 33 33 31 31 34 34 42 42 42 42 42 43 42 41 43 43
51 51 50 49 48 47 48 43 43 40 39 38 39 41 39 38 40 36 33 30 28 27 27 27 27 28 28 29 28 30 29 30 32 34 35 34 36 37 38 39 41 42 43
50 50 48 48 45 48 37 37 38 36 38 37 35 36 37 40 39 37 37 36 33 26 25 25 26 25 27 29 29 28 28 27 25 33 32 31 34 34 37 38 36 37 41
47 46 46 46 44 41 37 37 35 35 34 34 35 34 36 41 33 31 33 33 33 34 32 29 27 27 27 27 28 27 27 26 26 31 31 28 31 29 36 43 39 40 41
46 45 44 44 44 44 37 36 35 32 33 34 35 34 33 33 28 29 28 27 28 30 31 34 28 28 29 30 29 30 28 28 30 31 33 26 26 28 32 34 41 41 41
45 44 45 43 42 37 36 35 34 32 32 33 36 35 35 32 31 32 27 25 26 28 34 34 33 34 35 35 35 32 27 25 24 28 32 28 26 28 32 31 31 40 41
46 45 43 42 39 37 35 35 34 29 29 29 32 33 33 30 31 30 23 22 21 25 26 27 28 30 32 33 34 33 29 27 26 25 31 28 29 29 27 29 29 31 31

GFSMA_sfc_temp_039.txt.gz
Temp
63 63 61 60 60 61 60 59 60 60 60 61 61 61 62 60 60 59 55 62 64 66 66 66 66 66 66 64 64 63 63 64 64 64 64 64 64 64 65 65 65 65 65
61 60 59 59 59 59 59 59 58 58 57 59 59 60 59 58 58 57 57 55 62 64 64 65 65 66 66 64 64 63 63 63 63 63 63 63 64 63 63 63 64 64 64
59 58 57 57 58 58 58 58 57 56 55 58 56 56 56 57 57 57 57 56 57 61 62 64 64 64 64 64 64 63 63 63 62 63 63 62 62 62 62 61 62 62 64
59 57 57 57 57 57 56 55 54 53 52 51 51 51 51 54 55 56 57 55 54 57 59 62 63 63 63 63 63 63 64 63 63 62 60 60 60 61 61 60 61 61 62
59 57 56 56 57 56 54 55 53 51 49 49 53 51 50 50 51 57 56 55 55 54 55 60 60 60 61 61 62 62 63 63 61 61 60 59 59 60 60 60 60 60 61
60 57 57 57 57 55 53 53 51 50 49 48 55 52 48 49 49 48 49 55 52 53 53 54 50 52 58 60 60 60 61 61 60 60 60 59 59 59 58 59 60 60 60
61 57 56 56 55 53 52 52 50 49 48 47 45 45 46 47 50 47 48 48 50 52 52 54 51 49 49 57 58 59 60 59 59 59 58 57 57 57 58 58 58 59 59
60 59 56 54 54 53 51 50 49 47 46 46 43 41 38 42 45 49 45 47 45 47 50 53 51 51 47 46 50 58 58 57 57 57 57 56 56 56 57 57 57 58 58
60 58 57 55 54 52 50 49 48 47 44 45 46 43 37 34 38 43 45 44 43 43 44 45 47 48 48 46 48 49 54 54 55 56 56 55 55 56 56 56 56 56 57
60 60 58 55 53 51 50 49 51 47 45 43 43 49 43 40 35 34 39 42 43 45 42 41 43 45 46 44 49 50 51 51 51 53 54 54 55 55 55 56 55 55 56
58 59 55 52 51 50 49 48 47 47 46 43 42 41 40 39 39 35 31 35 39 42 41 40 41 41 44 44 43 47 51 50 50 51 52 53 54 54 55 55 55 55 55
52 53 53 50 49 49 48 47 46 46 45 44 42 41 40 38 37 35 33 33 34 37 40 40 40 40 41 41 49 50 49 48 49 50 51 51 52 52 52 53 54 53 54
51 50 52 50 48 48 48 47 45 44 44 42 42 41 41 41 41 40 38 35 31 34 36 38 39 40 44 41 41 48 48 46 47 48 49 49 50 50 51 51 52 52 53
53 52 51 50 48 48 47 46 44 43 43 41 42 44 42 41 44 41 39 35 30 30 32 34 38 38 39 38 42 46 40 44 45 46 47 47 48 48 49 49 50 50 51
55 51 50 50 49 47 48 46 42 42 42 41 40 42 42 40 40 40 39 39 35 29 30 34 32 38 37 37 40 39 38 43 44 44 44 45 46 47 47 48 48 49 49
53 50 50 48 47 47 46 44 42 42 42 40 40 39 39 40 39 40 39 38 37 34 27 32 32 34 35 40 41 38 38 44 43 43 43 44 45 46 46 46 46 47 48
53 50 51 48 47 46 45 43 42 43 41 39 39 39 39 40 39 36 35 33 31 30 26 29 32 32 31 32 36 36 37 37 38 42 43 43 44 44 44 44 44 45 46
51 51 49 48 48 46 45 43 42 41 40 39 39 38 38 42 35 33 31 29 29 29 27 26 28 30 29 31 33 32 37 40 38 41 42 42 43 43 42 42 43 43 44
48 49 48 47 46 45 44 44 42 41 41 40 39 38 38 36 31 30 30 28 28 33 27 25 26 29 29 30 31 32 32 33 38 41 41 41 42 42 42 42 42 43 43
48 49 47 47 46 45 46 45 44 39 38 38 37 36 37 34 32 30 31 28 30 26 26 24 26 26 28 30 28 27 28 30 31 37 38 39 40 41 41 41 41 41 42
49 48 47 46 45 44 45 42 41 38 37 37 36 37 36 38 40 35 32 27 26 25 24 24 24 25 26 26 26 28 26 28 29 30 31 32 33 34 35 39 40 39 39
47 46 46 46 44 46 39 40 38 35 36 35 32 33 34 37 36 37 36 35 32 25 22 21 24 23 25 26 28 24 25 23 22 28 26 28 31 31 33 34 39 37 35
46 45 44 44 43 39 38 38 37 35 34 33 31 31 33 36 32 30 31 31 30 32 29 25 23 25 24 26 25 25 25 24 24 28 28 25 29 27 32 38 39 39 38
44 43 42 42 42 40 37 37 36 32 31 31 31 31 30 29 29 29 27 26 26 26 28 30 26 25 26 27 27 28 27 27 28 29 31 24 29 27 30 30 37 39 40
43 42 42 41 40 37 37 36 34 31 31 31 32 32 32 28 31 32 27 25 24 25 31 32 32 32 33 33 33 30 26 25 23 26 28 27 25 24 25 25 29 38 38
43 42 41 39 39 34 36 36 34 28 28 28 30 30 33 29 31 31 23 21 19 23 25 25 26 27 30 30 32 29 25 23 24 24 30 28 28 25 22 25 29 30 29

GFSMA_sfc_temp_042.txt.gz
Temp
61 60 58 59 58 58 58 57 57 57 57 58 58 57 56 56 56 54 52 61 64 67 67 67 66 66 65 64 64 63 64 64 63 63 63 63 63 63 63 62 62 63 63
58 59 57 57 57 57 57 56 55 54 53 55 55 54 54 54 54 54 53 52 61 64 65 65 65 65 65 64 64 63 64 64 63 63 62 61 62 62 61 61 61 61 62
58 57 56 56 56 56 56 54 53 53 52 54 52 52 52 52 52 53 52 52 54 61 63 64 64 64 64 64 63 63 64 63 63 61 61 61 61 61 61 61 61 61 61
58 56 55 55 55 54 53 52 52 51 50 49 47 48 49 50 51 52 52 52 51 54 57 61 62 62 62 62 62 63 63 63 63 62 61 60 60 60 60 60 60 60 60
57 56 55 54 54 53 52 53 50 50 47 47 50 48 47 47 48 53 51 51 51 51 51 58 59 60 61 61 61 61 62 62 62 61 60 60 59 58 59 60 59 60 60
58 56 55 54 53 52 51 50 49 48 47 46 53 50 46 46 45 45 47 51 49 49 49 50 47 50 58 59 59 60 61 61 61 60 60 60 58 58 58 58 59 58 59
58 55 54 53 52 51 50 50 48 47 45 45 43 43 43 45 45 44 45 45 47 48 47 47 47 46 47 56 57 59 59 60 59 59 58 58 57 57 57 57 58 58 58
56 55 53 52 52 50 49 49 47 45 44 44 42 39 37 40 42 46 43 45 42 44 46 47 46 46 44 43 47 55 56 57 58 58 58 57 56 56 56 57 57 57 58
57 56 54 52 51 50 49 47 46 45 43 43 43 42 36 34 36 40 43 41 41 41 41 43 45 45 45 43 45 47 52 53 54 55 56 56 56 56 56 56 56 57 57
57 57 55 52 50 49 48 47 48 45 43 41 42 46 41 40 35 32 38 40 41 43 40 39 40 42 43 42 46 49 51 51 52 53 54 54 54 55 55 56 56 56 55
55 55 52 50 49 47 47 48 48 44 43 42 40 40 39 38 37 34 29 34 37 40 40 39 39 40 42 41 40 44 50 49 50 51 52 53 53 54 54 54 55 55 55
50 51 51 49 49 47 47 45 43 43 42 41 40 39 39 37 36 34 32 32 32 35 38 39 38 38 39 39 46 48 48 47 47 49 50 51 51 52 52 53 53 54 54
49 49 50 50 49 49 46 45 44 42 41 39 39 39 39 40 43 40 35 32 31 33 34 36 37 38 42 37 38 46 46 45 45 46 47 48 49 49 50 51 51 52 52
51 51 50 51 49 48 46 43 43 42 40 39 39 39 39 40 39 39 39 35 31 29 31 32 35 35 36 36 40 45 38 42 44 44 45 46 46 47 47 48 49 50 50
52 50 50 49 49 48 46 44 42 40 39 39 38 38 38 38 38 38 40 39 34 28 27 29 30 34 34 35 37 36 35 41 43 43 43 44 44 45 46 47 47 47 48
51 51 50 49 49 47 44 42 41 41 40 38 38 37 37 38 39 40 37 36 34 31 25 28 29 30 33 37 38 36 35 41 40 41 42 42 43 44 44 45 45 46 47
51 50 49 48 48 44 44 42 41 42 40 39 38 38 38 38 35 33 33 31 29 29 25 27 29 29 28 28 32 33 34 34 35 40 41 41 42 42 43 43 43 44 45
51 48 47 47 46 45 43 42 40 40 39 38 38 38 37 41 34 33 31 29 28 28 26 24 25 26 27 29 29 29 34 38 34 38 40 40 40 41 41 42 42 42 43
48 47 47 46 46 44 43 42 41 40 39 39 38 36 37 36 33 31 31 29 27 32 26 24 25 26 26 27 28 29 29 30 35 38 38 38 39 40 40 41 41 42 42
45 46 46 45 45 43 44 44 43 40 39 38 37 36 36 35 33 31 31 28 28 26 25 24 25 25 25 28 27 25 27 29 29 34 35 35 37 38 39 39 40 40 41
47 46 45 46 45 44 45 43 42 38 36 36 36 36 36 36 39 35 30 27 26 24 23 23 23 24 25 25 24 26 25 26 27 29 28 29 29 31 32 35 37 39 40
47 46 46 45 43 45 42 41 39 36 37 35 33 33 33 36 36 37 36 34 30 24 22 20 22 21 23 23 24 23 23 22 22 27 26 26 29 29 31 31 36 38 39
46 45 43 43 42 42 40 40 38 35 34 33 32 32 33 36 33 31 33 32 30 31 27 22 20 21 21 24 24 23 24 24 23 28 27 25 28 26 31 34 36 38 39
43 42 42 41 40 41 38 38 37 33 32 32 32 32 30 29 29 29 27 26 27 27 27 28 24 23 24 26 27 28 27 27 27 27 27 24 28 26 29 29 35 38 38
41 40 40 39 38 38 38 37 35 32 31 31 33 33 31 29 31 33 27 26 25 25 31 32 32 32 32 32 32 28 24 22 21 24 29 25 25 26 28 29 30 37 38
39 39 39 38 38 36 37 37 35 31 30 29 29 31 34 30 32 32 24 22 19 24 25 25 26 27 28 28 30 27 25 22 22 21 27 25 27 28 23 24 25 29 28

GFSMA_sfc_temp_045.txt.gz
Temp
59 58 58 57 56 56 56 55 55 55 54 54 54 54 53 52 52 51 49 59 62 66 67 67 66 66 64 64 64 64 64 64 64 63 62 61 62 61 61 61 61 61 61
57 57 56 56 56 55 54 56 54 52 51 52 52 52 51 50 51 50 49 49 61 64 65 65 65 65 65 64 63 64 64 63 63 62 61 61 61 61 60 61 61 61 61
57 56 55 54 54 54 53 52 51 51 50 52 49 50 49 50 50 50 49 49 52 60 62 63 64 63 63 63 63 63 63 63 63 63 62 61 60 60 60 60 60 60 61
57 54 54 53 53 53 52 51 50 49 48 48 47 47 47 48 49 49 49 49 49 51 55 61 61 62 62 62 62 63 63 62 62 62 62 61 60 59 59 59 59 59 60
56 55 54 53 53 52 50 52 48 48 46 46 48 46 45 45 46 50 48 48 48 48 48 55 57 59 60 60 60 61 61 61 61 61 61 60 60 59 59 58 58 58 59
56 55 53 52 52 50 49 49 47 46 45 45 51 48 43 44 43 44 45 49 47 46 46 47 45 48 58 58 58 59 60 60 61 60 59 59 59 59 58 58 58 58 59
56 54 52 51 50 50 49 49 47 46 43 43 42 42 41 42 43 43 43 43 45 45 45 44 44 43 45 53 54 57 58 59 59 59 59 58 58 57 57 57 57 58 58
55 54 52 51 50 49 48 47 46 43 43 43 41 38 37 40 41 43 41 43 41 42 44 45 44 44 42 41 45 54 55 56 57 57 58 57 57 57 57 57 57 57 58
55 54 52 50 49 48 47 46 45 45 42 42 44 43 35 33 35 39 40 40 40 39 40 41 43 44 43 41 43 45 51 53 54 55 56 56 56 56 56 56 56 56 57
54 54 52 50 49 47 46 46 47 43 42 41 40 44 40 39 34 32 36 38 39 41 39 38 39 40 41 40 45 47 49 50 51 53 54 54 54 55 55 55 55 56 56
53 52 50 49 48 47 45 45 46 43 42 41 40 38 37 36 35 34 30 33 36 38 39 38 38 38 40 39 38 42 49 48 48 50 51 52 53 53 54 54 54 54 55
48 49 49 47 47 47 46 44 45 44 42 40 39 38 37 36 35 33 30 31 31 34 37 37 36 37 36 36 44 46 47 45 46 47 48 49 50 50 51 52 52 53 54
46 47 48 47 49 48 47 45 45 44 41 41 38 38 38 38 38 37 34 31 35 34 33 34 36 35 39 35 37 44 45 43 43 45 46 46 47 48 49 49 50 51 52
49 49 49 48 48 49 47 46 44 42 41 39 39 38 38 38 38 37 36 36 34 34 29 31 34 34 34 34 38 43 36 41 42 43 44 44 45 45 46 47 48 49 50
50 48 47 47 48 48 48 46 41 41 39 38 37 37 37 38 38 38 37 37 35 28 26 29 30 33 32 32 34 34 32 38 40 41 41 42 43 44 44 45 46 47 47
48 47 48 47 48 48 45 42 39 40 38 37 37 37 37 37 37 36 35 35 34 30 24 28 28 29 30 35 34 32 31 38 38 39 40 41 41 42 43 43 44 45 45
49 49 47 48 47 45 42 41 40 41 40 38 38 38 38 38 36 35 34 32 30 29 26 27 28 28 27 27 29 29 31 30 31 38 39 39 40 40 41 41 42 43 43
50 48 47 46 46 44 42 41 41 41 38 37 37 36 37 40 35 34 32 31 29 29 27 25 25 25 26 27 27 26 31 35 32 36 38 39 38 39 39 40 40 41 42
45 44 44 46 45 43 43 41 40 38 38 37 37 36 37 35 32 31 30 29 28 31 27 24 24 25 25 25 27 27 28 29 33 37 36 37 37 37 38 39 40 40 40
45 46 47 46 45 45 42 41 40 38 38 37 36 36 35 34 33 31 31 29 29 26 25 23 23 25 24 26 25 24 25 28 28 33 34 34 36 36 37 37 38 38 39
46 47 46 45 44 43 43 41 41 38 36 35 35 36 34 35 38 34 31 27 26 24 23 22 22 23 23 23 22 24 23 25 26 28 27 29 30 30 31 33 35 36 38
47 45 43 44 43 44 41 41 39 35 35 34 33 33 35 37 36 38 37 35 29 24 22 20 21 20 21 21 22 21 22 22 22 26 25 26 29 28 30 31 34 36 37
42 42 43 42 41 40 40 41 39 34 33 32 32 32 32 35 35 32 35 34 33 32 27 22 19 20 20 22 23 22 23 24 23 27 26 24 28 26 30 33 36 36 38
40 39 38 38 37 39 39 39 38 32 31 32 32 33 30 32 31 30 28 27 27 27 28 28 24 23 23 25 25 27 26 26 26 26 26 22 27 26 29 30 34 36 37
38 36 37 36 35 35 38 38 35 30 30 31 32 31 32 30 32 34 27 26 26 27 31 32 32 32 32 32 31 23 21 21 20 23 27 24 24 25 27 27 30 35 37
36 36 36 35 36 34 37 38 36 29 29 30 29 31 35 31 32 33 26 23 20 25 25 25 25 27 28 27 30 26 23 20 20 19 26 21 25 25 23 23 24 29 29

GFSMA_sfc_temp_048.txt.gz
Temp
58 58 57 57 55 55 54 53 53 53 52 52 51 51 51 50 50 50 49 58 62 66 67 67 66 65 65 64 64 64 64 64 64 63 62 62 61 61 61 61 61 61 61
57 57 55 55 54 54 53 53 55 51 50 51 50 50 50 49 50 49 49 51 61 64 65 65 65 65 65 64 63 64 64 63 63 63 63 62 61 60 60 60 60 60 61
57 55 53 53 52 52 52 52 53 50 49 51 49 49 49 49 49 49 49 50 52 59 62 63 63 63 63 63 63 63 63 62 62 62 62 62 61 61 60 60 59 59 60
56 54 53 54 52 52 51 50 49 48 47 48 47 46 46 48 48 48 49 49 50 51 55 59 60 61 62 62 62 62 62 62 62 62 61 60 60 60 59 59 59 59 59
55 55 57 55 53 51 50 51 48 48 46 46 48 46 45 45 46 50 48 48 48 49 49 55 57 59 60 60 60 61 61 61 61 61 60 60 59 59 59 58 58 58 59
55 53 52 52 51 50 48 48 47 46 45 45 51 47 43 44 44 44 46 49 47 46 47 47 47 50 57 57 57 59 60 60 60 60 60 60 59 59 58 58 58 58 58
55 53 52 51 50 49 48 48 46 45 44 43 43 43 42 42 44 43 44 44 45 46 46 46 46 45 46 52 54 56 58 58 59 59 59 59 58 58 57 57 57 58 58
54 53 51 50 49 48 47 46 46 43 43 42 41 39 37 41 42 44 42 44 42 44 45 46 45 46 45 44 46 53 55 55 56 57 57 57 57 56 56 57 57 57 57
54 53 51 49 48 47 46 45 44 44 42 42 42 41 36 35 37 41 41 41 41 41 42 43 44 45 44 43 44 45 49 51 53 55 55 55 55 55 56 56 56 56 57
53 52 51 49 47 46 45 45 46 43 44 42 41 44 43 42 36 35 39 39 40 41 40 41 42 42 42 42 44 45 47 49 50 52 53 54 54 54 54 55 55 55 55
51 51 49 47 46 45 45 46 45 43 45 41 43 42 39 37 37 35 32 36 38 40 40 40 39 39 40 40 39 43 47 46 47 48 50 51 51 52 53 53 54 54 54
48 47 47 46 46 46 44 46 45 44 44 42 42 38 38 37 37 33 31 32 32 36 38 39 38 38 39 38 43 45 45 44 45 46 47 48 49 50 50 51 52 52 53
44 45 47 46 46 47 45 45 45 45 45 42 40 38 38 39 39 38 35 33 32 37 38 37 38 38 41 37 38 43 43 41 42 43 44 45 46 47 48 48 49 50 51
47 49 45 48 46 46 46 46 45 43 41 41 38 38 39 38 39 39 37 37 35 37 34 35 36 36 36 36 39 41 36 39 40 41 42 43 43 44 45 46 47 48 49
48 48 46 46 46 47 46 47 44 43 39 37 38 38 37 38 38 38 39 38 36 30 29 32 33 35 35 35 35 36 34 37 39 40 40 41 42 42 43 44 45 46 47
47 46 46 46 47 46 47 45 42 41 38 37 37 36 36 37 37 37 37 36 38 34 28 32 32 33 34 36 35 35 33 37 37 37 39 39 40 41 41 42 43 43 44
47 46 47 46 46 46 45 42 39 41 39 37 38 36 36 37 35 35 34 34 33 31 29 31 31 32 30 31 32 32 32 32 33 36 37 38 39 39 39 40 40 41 42
48 48 46 46 46 46 43 40 41 41 39 38 36 36 36 39 34 33 32 32 31 30 29 26 28 28 28 30 29 29 32 34 33 35 37 38 38 38 38 38 39 39 40
47 47 46 46 46 43 43 42 41 40 38 37 37 35 35 35 33 31 31 30 30 32 28 26 26 28 28 28 29 30 30 31 33 36 36 36 36 37 37 38 38 39 40
45 45 45 46 45 44 44 41 41 38 37 37 36 35 35 33 33 32 32 30 30 28 27 25 25 26 26 28 27 25 26 29 29 32 33 34 35 36 36 36 37 37 38
45 46 44 43 43 44 44 41 40 37 35 35 34 34 34 35 38 35 32 31 29 26 25 25 24 24 25 24 24 26 24 26 27 30 30 31 32 33 33 34 35 36 36
45 44 42 42 42 44 41 41 39 35 35 33 33 33 33 38 38 39 38 37 32 26 25 23 23 23 23 23 24 23 23 23 22 31 28 28 32 30 32 33 34 36 37
42 41 41 41 39 39 40 40 39 35 34 33 33 32 33 35 35 33 35 36 35 33 27 25 22 23 21 24 25 23 24 24 24 29 28 25 30 28 32 34 35 35 36
40 40 38 37 36 37 38 39 38 35 33 32 32 32 32 32 32 32 31 29 29 30 30 29 26 25 25 27 26 27 25 25 27 28 29 21 28 27 31 32 35 36 36
38 36 36 35 34 34 37 38 36 32 31 31 32 32 33 31 33 36 29 27 28 28 32 33 33 31 32 32 32 27 23 22 19 23 28 24 27 26 29 30 33 35 38
35 35 34 34 35 33 36 37 36 30 29 30 30 31 35 33 34 33 30 26 23 27 27 27 27 28 30 29 30 28 25 20 20 19 28 23 25 26 24 30 31 33 33

GFSMA_sfc_temp_051.txt.gz
Temp
66 66 66 65 65 66 67 66 66 66 65 64 64 64 64 63 64 67 68 61 63 67 68 67 66 66 65 64 64 64 64 64 64 64 64 63 62 62 61 61 60 60 61
65 66 65 65 66 67 67 67 66 66 65 65 63 63 63 64 64 64 67 67 62 64 66 66 66 66 65 64 63 64 64 63 63 63 63 63 62 62 61 60 60 60 60
64 65 65 66 66 65 64 64 62 64 64 64 62 62 64 63 64 63 65 66 66 60 62 64 63 63 63 63 63 63 63 63 62 62 62 61 61 61 60 60 59 59 59
65 64 65 65 62 58 60 59 63 63 63 64 62 62 63 63 62 62 64 65 66 67 62 60 61 61 62 62 62 63 62 62 62 62 62 61 60 60 60 60 59 59 59
64 64 65 62 58 59 60 63 62 63 62 62 63 62 62 62 61 63 61 62 62 65 66 58 58 59 60 60 60 61 61 61 61 61 61 61 60 60 59 59 59 59 59
64 65 64 61 61 63 62 62 61 61 61 61 62 61 60 61 61 62 62 62 62 61 62 62 64 62 56 57 57 58 59 60 60 60 60 60 60 59 59 59 58 58 59
65 64 64 62 63 62 61 60 59 59 59 59 60 59 58 57 57 60 60 60 59 60 59 61 62 62 61 53 54 56 58 58 58 59 58 58 58 58 58 57 58 58 58
64 63 63 62 62 62 59 59 59 59 59 58 58 56 55 55 56 57 58 57 56 59 58 58 57 57 58 59 55 52 54 54 55 56 57 57 57 57 57 57 57 57 57
62 63 62 62 61 61 60 59 59 59 57 56 55 52 52 51 53 57 55 56 55 57 58 57 56 56 55 56 53 53 50 50 52 54 55 55 55 56 56 56 56 56 57
59 59 62 61 60 60 58 59 59 57 55 55 54 54 54 54 50 50 55 55 55 54 55 56 55 54 53 54 50 47 48 47 48 50 52 52 53 54 54 54 55 55 55
57 59 60 59 59 60 58 57 55 55 55 54 54 55 53 53 52 49 48 52 54 55 55 54 53 52 51 53 54 50 46 46 45 47 49 50 51 51 52 53 53 54 54
60 59 59 59 58 57 56 51 47 50 50 47 54 53 52 51 51 49 48 49 48 51 52 53 52 51 52 52 49 45 45 44 43 45 46 47 48 49 50 50 51 51 52
58 57 57 55 53 51 49 46 53 50 47 53 52 53 53 53 53 51 48 47 45 50 50 51 52 51 50 50 49 44 45 41 41 42 43 44 45 46 47 47 48 49 50
57 56 56 51 50 50 52 50 50 49 49 50 51 51 53 52 52 51 48 45 43 46 47 45 51 50 50 49 46 43 46 41 40 40 41 42 43 43 44 45 46 47 48
54 52 52 52 50 50 50 47 46 50 48 48 51 51 51 52 51 51 50 49 44 37 42 47 45 49 48 48 47 45 45 42 39 39 40 40 41 42 42 43 44 45 46
51 51 53 51 50 49 48 47 48 48 48 50 51 50 50 51 51 50 50 49 48 44 39 47 47 47 47 47 45 44 44 40 39 38 38 38 39 40 41 41 42 42 43
50 51 50 50 47 45 46 47 46 47 49 50 49 49 49 50 49 49 48 48 46 46 41 45 46 46 44 43 44 44 43 42 43 39 37 38 38 39 39 39 40 40 41
51 50 48 47 47 47 47 45 47 51 50 48 49 48 48 49 47 48 47 46 46 46 43 40 44 43 41 43 42 40 41 42 42 40 37 37 37 37 38 38 39 39 40
49 48 47 46 49 49 48 50 51 51 50 49 49 48 48 48 46 47 46 45 46 44 44 41 40 43 41 41 40 40 40 40 41 39 38 37 37 37 37 38 38 38 39
51 51 51 46 47 47 50 50 51 49 49 49 49 48 48 47 47 47 46 45 44 43 42 40 40 40 40 41 39 36 36 40 39 40 39 37 36 37 37 37 37 37 38
51 47 48 45 46 47 46 48 50 49 49 48 48 47 47 46 43 44 45 45 43 42 41 39 38 38 37 37 36 37 34 36 38 40 39 40 40 41 41 39 39 39 38
50 46 44 45 44 44 42 41 42 48 48 47 47 48 47 42 41 39 38 38 39 41 38 37 37 36 36 37 36 34 33 32 30 41 37 36 40 39 41 42 39 37 37
45 43 42 42 43 46 41 40 39 46 47 47 47 47 46 45 41 44 38 37 37 36 34 39 35 36 35 36 35 33 33 32 32 36 35 32 37 36 40 41 38 37 37
43 43 45 46 46 46 39 38 37 46 46 46 46 46 45 45 44 42 41 40 41 42 39 37 39 39 38 37 36 35 33 33 35 37 37 28 36 34 38 39 38 38 37
46 46 46 45 44 45 39 37 38 45 44 45 46 45 44 44 41 37 39 35 38 39 37 35 35 34 33 32 33 35 31 30 28 32 36 32 33 33 35 36 40 38 37
44 44 44 44 41 43 40 37 39 42 40 42 44 44 37 40 37 35 36 34 32 37 38 37 37 36 35 36 32 34 34 28 29 28 37 29 31 31 28 36 37 38 39

GFSMA_sfc_temp_054.txt.gz
Temp
75 77 76 77 77 75 75 72 71 72 71 72 73 72 71 71 72 77 76 63 65 68 68 68 67 66 65 65 64 64 64 64 64 64 64 64 63 62 62 61 61 61 61
73 74 74 75 73 74 75 75 74 74 74 73 71 70 70 72 71 72 77 71 62 65 67 67 67 66 65 64 64 64 64 63 63 63 63 62 61 61 61 61 60 60 60
74 74 72 70 72 74 73 73 72 73 73 74 70 71 73 70 71 71 75 76 69 60 63 64 64 64 64 64 64 64 63 63 63 62 62 62 61 61 60 60 60 59 59
73 72 73 73 74 73 72 65 70 73 73 73 71 73 73 73 70 71 73 74 75 74 61 61 61 62 62 63 63 63 63 62 62 62 62 62 61 61 61 60 60 59 59
72 73 74 74 70 65 65 66 71 72 70 72 72 73 72 73 69 72 70 69 69 71 71 59 59 59 60 60 61 61 62 61 61 61 61 61 61 60 60 60 59 59 59
72 72 74 72 69 70 65 66 66 70 71 72 72 71 70 70 70 68 68 69 69 67 67 67 68 65 57 57 58 59 60 60 60 60 60 60 59 59 59 59 59 59 59
71 72 73 70 69 67 65 63 67 66 67 69 68 68 67 66 64 66 67 67 66 66 65 66 66 67 66 56 56 56 58 58 59 59 58 58 58 57 58 58 58 58 58
71 72 71 70 70 69 62 63 67 67 68 68 67 64 61 64 63 64 66 65 64 65 65 64 63 62 63 64 60 53 54 54 55 56 56 56 56 57 57 57 57 57 57
70 70 71 70 70 65 60 64 67 66 65 65 63 62 59 58 62 67 63 64 63 63 64 64 63 62 61 61 59 58 50 49 51 53 54 54 55 55 55 56 56 56 57
67 71 71 68 65 65 65 67 68 67 66 62 62 63 60 61 57 56 65 62 62 61 61 62 62 62 61 60 56 49 48 47 47 49 51 52 52 53 54 54 55 55 55
69 68 66 64 63 68 67 67 65 64 57 50 55 52 58 61 60 55 53 59 64 63 62 61 61 60 59 59 59 53 46 45 46 47 48 49 50 51 51 52 52 53 54
67 66 63 61 64 67 66 65 60 52 51 51 53 53 59 58 58 57 55 55 56 59 61 60 59 59 59 58 54 44 46 45 43 44 46 46 47 48 49 50 50 51 52
61 60 61 64 66 66 59 51 57 58 54 49 51 59 57 59 60 58 55 54 53 57 58 60 59 59 58 57 56 44 47 45 43 43 43 44 45 45 46 47 48 49 50
56 61 60 63 56 55 54 59 55 52 53 48 55 54 58 60 59 58 55 52 49 52 55 55 59 58 57 57 53 44 51 46 44 43 42 42 43 43 44 45 45 46 47
56 53 54 52 56 59 57 49 48 46 48 53 53 56 57 58 58 58 57 55 50 43 48 55 53 57 57 56 53 53 50 47 44 42 41 41 41 42 42 43 44 44 45
52 51 48 51 57 52 49 51 50 47 48 47 55 57 57 57 57 57 57 56 55 51 46 54 55 56 55 55 53 51 50 46 44 43 41 40 39 40 41 41 42 42 43
52 51 52 52 49 48 47 46 46 48 46 52 57 56 55 56 56 56 56 55 53 53 48 52 55 55 52 50 51 51 50 49 49 44 42 41 39 39 39 39 40 40 41
51 55 53 49 49 48 46 48 45 47 51 55 55 55 54 56 54 54 55 53 53 53 50 46 51 52 51 51 50 48 48 50 48 46 42 40 39 38 38 38 38 39 39
52 52 49 50 49 46 48 45 46 51 55 55 55 55 55 54 53 54 54 53 53 53 51 48 47 51 51 50 48 48 47 47 49 45 42 41 40 39 39 38 39 39 39
51 49 49 49 48 47 46 47 50 52 53 55 54 54 54 54 53 53 53 52 51 49 50 46 45 46 47 48 47 44 43 47 46 48 46 42 40 41 39 39 39 39 39
51 53 49 48 45 45 49 48 48 48 51 52 53 55 55 53 48 48 53 52 50 47 46 43 42 43 42 42 43 46 42 44 44 46 45 46 46 46 46 43 42 41 40
52 50 46 44 45 47 42 41 43 52 52 53 53 54 55 50 47 41 41 41 45 48 43 41 42 39 41 43 45 43 41 39 37 47 43 41 45 44 46 47 42 39 39
48 46 45 45 45 45 42 41 40 50 52 52 53 53 53 55 49 52 43 38 38 37 36 44 41 40 40 45 44 41 40 39 39 43 41 37 43 41 45 46 41 40 39
46 46 46 51 52 53 41 40 38 49 51 52 52 52 52 52 52 50 50 48 47 45 43 43 43 45 46 46 44 42 40 39 40 43 43 34 41 39 43 44 41 40 39
53 53 53 51 51 52 41 39 40 48 48 49 51 52 51 51 46 42 46 45 45 45 44 39 39 39 35 34 35 39 36 35 33 38 43 38 38 37 39 40 43 40 39
52 52 51 51 47 49 43 39 41 44 43 45 47 48 43 45 41 38 43 42 40 42 43 42 42 39 37 39 33 37 38 33 34 33 41 35 37 37 32 39 41 40 40

GFSMA_sfc_temp_057.txt.gz
Temp
73 75 75 77 77 78 76 75 74 74 73 74 74 74 73 73 74 77 74 64 65 68 68 68 67 66 66 65 64 64 65 64 64 64 63 63 62 62 62 61 61 61 61
74 76 75 77 77 77 77 76 76 75 75 74 72 72 72 74 73 74 76 69 62 66 68 68 67 67 66 65 64 64 64 64 64 63 63 63 62 61 61 61 61 61 60
75 75 75 76 76 76 75 75 74 75 74 75 73 73 74 73 72 73 75 73 67 61 64 65 64 64 64 64 64 64 64 63 63 63 62 62 62 61 61 61 61 60 60
76 75 75 74 75 75 74 73 73 74 74 74 73 74 74 73 71 71 74 73 74 71 62 62 62 62 62 63 63 64 63 63 62 62 62 62 62 61 61 61 61 60 60
75 75 75 75 75 73 72 70 72 72 72 72 72 72 72 73 71 74 71 70 70 71 71 61 61 61 61 61 61 61 62 62 62 62 61 61 61 60 60 60 60 60 60
74 73 75 75 74 72 70 71 69 70 71 72 74 72 71 71 71 70 69 70 70 68 68 68 66 65 59 60 60 60 60 61 61 61 60 60 60 59 59 59 59 59 59
75 72 74 73 71 71 70 68 67 65 67 70 69 69 69 69 67 68 69 69 69 68 68 67 66 67 64 59 59 58 58 58 59 58 58 58 58 58 58 58 58 58 59
75 73 73 73 71 71 69 67 65 63 65 69 65 67 61 65 64 66 67 67 66 67 67 67 65 64 64 64 60 56 56 55 55 56 56 56 56 56 56 57 57 58 58
65 63 65 70 71 71 68 66 66 62 63 67 67 64 58 56 60 69 64 66 65 65 65 66 65 64 64 63 61 60 51 50 51 52 53 54 54 54 55 55 56 56 57
62 62 62 64 71 72 66 63 65 64 67 65 65 66 60 58 55 56 66 65 65 63 62 63 64 64 63 62 60 52 49 47 47 49 50 51 52 52 53 53 54 54 55
65 65 65 65 69 67 64 62 63 66 68 66 55 53 53 58 60 56 54 59 65 66 66 63 62 62 62 61 60 52 47 46 46 47 48 49 50 51 51 51 52 52 53
66 67 68 63 62 62 61 62 67 66 59 55 59 53 51 53 57 57 56 57 58 61 64 64 62 61 61 61 58 48 47 46 46 46 47 47 48 48 49 50 50 51 51
67 65 67 59 58 58 60 64 58 56 59 57 53 52 52 55 58 59 57 55 54 59 60 62 62 62 62 60 59 49 49 46 46 45 46 46 46 46 47 47 48 49 49
66 66 58 57 55 52 51 52 53 59 54 51 49 52 51 57 61 60 57 53 50 53 56 56 62 61 61 60 54 47 52 48 46 45 45 44 44 44 44 45 45 46 47
65 63 57 55 50 50 52 53 51 48 48 50 50 47 50 55 59 59 58 57 51 44 48 55 55 61 60 59 57 56 54 50 46 44 44 44 44 43 43 43 43 44 45
63 58 54 52 50 51 52 52 49 49 45 46 47 47 49 56 58 59 58 57 55 51 47 54 55 58 59 59 56 55 53 50 47 45 44 43 43 43 42 42 42 42 43
57 55 52 50 49 50 49 46 46 45 45 45 47 49 54 57 56 56 57 56 55 54 49 53 56 57 56 55 55 54 53 52 52 46 44 43 42 42 41 40 40 40 41
53 52 52 51 50 47 46 47 46 46 44 46 49 52 53 57 54 55 55 54 54 55 52 48 53 54 53 54 54 52 52 53 51 49 46 43 42 42 41 40 40 39 39
51 52 50 48 48 49 48 48 47 45 46 49 52 53 53 53 52 54 55 54 55 56 54 51 50 53 53 53 52 52 50 50 51 49 45 43 43 42 41 41 41 40 40
51 50 50 49 47 45 47 46 46 46 48 50 50 52 53 54 54 55 55 54 55 53 52 50 49 49 50 51 51 47 46 49 48 51 48 45 44 44 44 43 41 41 40
50 51 50 49 48 47 46 45 46 47 47 48 48 53 56 54 49 49 53 53 52 51 51 48 47 47 46 45 44 46 44 46 47 47 46 47 47 47 47 45 45 43 42
53 51 48 46 44 47 42 41 43 46 50 52 53 54 56 52 51 43 44 43 46 48 46 45 46 43 44 44 45 43 42 41 38 47 44 43 46 44 46 46 43 41 40
53 51 47 49 48 49 42 42 40 50 51 51 52 53 53 57 50 55 49 41 41 40 37 44 42 44 42 44 44 42 41 41 40 44 43 39 43 42 45 47 43 41 40
52 51 51 51 51 54 42 41 39 49 50 51 52 52 52 53 53 50 50 50 50 50 48 45 44 45 46 45 45 44 42 41 41 42 43 35 42 40 43 44 42 41 39
52 54 55 54 53 54 41 39 41 47 47 47 49 50 50 50 46 42 44 44 46 46 48 41 41 41 38 37 38 42 37 36 34 37 43 39 40 38 40 40 43 41 39
54 55 53 53 45 51 38 38 40 43 40 42 44 45 41 42 39 38 40 40 39 43 45 45 43 40 38 39 34 39 39 34 34 34 41 37 38 38 33 39 41 42 41

GFSMA_sfc_temp_060.txt.gz
Temp
66 66 66 66 66 67 66 66 64 65 64 65 65 65 65 65 65 64 59 64 65 68 68 68 67 66 66 65 65 64 64 64 64 64 63 63 62 62 61 61 61 61 61
67 66 67 67 67 67 67 66 64 64 64 64 64 64 64 64 64 64 62 58 64 66 68 68 68 67 66 65 64 64 64 64 64 63 63 63 62 62 62 61 61 61 61
68 68 67 66 67 66 67 66 65 65 64 66 63 64 63 64 63 64 63 60 59 63 64 66 66 65 65 64 64 64 64 63 63 63 62 62 62 62 61 61 61 61 61
69 67 66 66 66 66 65 64 63 63 62 62 61 61 62 63 63 63 64 62 61 62 61 63 63 63 63 63 63 63 63 63 62 62 62 62 62 61 61 60 60 60 60
69 67 67 66 66 64 63 63 62 63 62 61 62 61 61 60 61 67 63 62 61 60 59 61 61 61 62 62 62 62 62 62 62 62 61 61 61 60 60 60 59 59 60
68 67 67 66 66 64 62 61 61 62 62 63 69 64 59 60 60 59 59 63 60 60 59 57 54 55 60 61 61 61 61 61 61 60 60 60 60 59 59 59 59 59 59
68 66 66 66 65 63 61 61 60 59 60 62 61 57 57 58 58 57 57 57 59 59 58 57 55 54 54 60 60 60 60 60 60 59 58 58 58 58 57 57 58 58 58
68 68 66 64 64 61 61 60 60 57 59 60 57 55 50 52 55 57 56 57 56 57 58 59 56 57 54 53 52 59 59 59 57 56 56 56 56 56 56 56 57 57 57
64 66 66 63 62 62 60 60 59 59 57 59 60 53 49 47 49 56 57 57 54 53 55 56 57 57 55 53 55 53 54 53 53 53 53 53 53 54 54 54 55 55 55
64 63 62 61 60 60 59 60 61 59 58 56 57 59 52 51 48 48 55 56 56 55 53 52 54 55 56 53 56 51 50 49 50 50 51 52 52 52 53 53 53 53 53
63 63 62 61 61 60 60 59 57 56 58 56 55 49 49 52 49 49 46 51 55 54 53 51 52 52 55 53 50 48 48 47 48 48 49 50 51 51 51 51 52 52 52
62 63 63 61 61 59 57 55 55 54 53 51 52 51 50 49 49 48 46 48 48 51 53 54 51 50 50 50 55 49 48 47 47 48 48 49 49 49 49 50 50 50 51
61 62 62 61 58 57 55 55 53 50 51 49 48 49 50 50 51 50 49 46 44 47 50 52 53 51 53 49 48 48 48 46 46 48 48 48 48 48 48 48 48 48 49
62 62 62 58 57 55 52 51 50 50 49 46 47 48 47 48 50 51 50 45 41 44 45 47 50 50 49 49 48 49 45 46 46 47 47 47 47 48 47 46 46 46 47
61 60 58 55 52 51 51 51 50 46 46 45 46 46 46 46 49 52 50 50 44 35 38 44 43 50 50 48 45 43 43 48 46 45 45 45 47 47 46 46 45 45 45
59 59 56 52 50 50 50 48 46 46 45 45 45 45 45 47 49 51 50 49 48 44 38 43 45 46 48 53 49 45 45 50 47 44 44 45 46 46 45 45 44 44 43
57 56 53 50 50 48 48 46 45 45 44 44 45 44 45 48 48 48 48 48 45 44 39 41 44 46 44 44 47 45 46 43 43 46 45 44 44 43 44 43 43 42 42
54 52 50 49 49 47 46 45 44 45 44 44 45 45 47 52 49 50 47 45 43 43 41 40 43 43 42 44 43 42 48 50 44 48 46 45 43 43 43 42 42 42 41
50 50 49 47 47 46 46 45 46 45 44 45 46 47 48 48 46 47 48 46 44 50 44 43 42 41 41 41 41 42 43 41 46 49 46 44 44 44 43 43 42 42 42
49 48 48 47 47 46 46 46 45 44 45 46 47 47 48 48 48 48 46 44 46 43 43 42 43 41 39 41 39 37 37 38 38 48 47 44 43 44 44 43 42 42 42
49 48 47 46 46 46 46 45 46 44 45 45 47 48 48 47 47 46 49 43 42 43 43 41 40 40 38 35 34 37 36 36 35 37 36 36 36 37 37 41 43 43 43
49 49 46 45 44 46 41 41 43 44 46 46 44 45 46 47 47 44 42 42 44 43 41 40 40 38 38 38 36 34 35 34 29 36 34 31 35 33 36 36 42 41 41
48 46 44 44 45 46 41 41 40 43 43 42 42 43 46 51 45 46 44 42 40 39 36 39 37 38 37 39 39 34 32 32 31 33 32 28 31 30 35 43 42 42 41
48 47 46 46 46 49 41 39 39 41 41 42 42 43 42 41 42 39 38 37 38 40 42 42 35 37 38 39 38 36 35 33 32 32 34 24 30 30 32 34 41 42 41
48 48 49 48 45 39 38 38 40 38 39 37 41 40 39 38 39 39 35 33 34 36 42 41 41 40 40 40 39 36 32 27 23 28 32 29 29 28 30 30 32 41 40
50 50 49 46 43 37 37 36 37 32 31 30 33 36 36 36 36 36 33 32 30 32 33 35 35 37 37 36 36 36 33 31 27 25 31 25 29 28 22 28 30 31 31

GFSMA_sfc_temp_063.txt.gz
Temp
63 63 62 62 62 62 61 60 61 61 61 61 60 61 61 59 58 57 56 64 66 68 68 68 67 67 66 65 64 64 64 64 64 64 63 63 62 62 62 62 61 61 61
64 62 62 63 62 62 62 61 61 60 59 60 60 61 61 60 59 58 57 58 64 66 67 68 68 67 66 65 64 64 64 64 63 63 63 62 62 62 62 61 61 61 61
64 62 63 62 62 62 62 61 60 59 59 61 60 60 61 61 60 59 57 57 59 63 65 67 67 67 66 65 64 64 64 63 63 62 62 62 62 62 61 61 61 60 60
65 64 62 62 63 62 62 60 60 59 59 58 57 57 58 59 60 60 58 57 56 59 62 64 64 65 64 64 64 64 63 63 62 62 62 61 61 61 61 60 60 60 60
66 64 63 62 62 61 61 61 59 59 58 57 58 56 56 56 58 63 59 57 57 56 55 61 62 62 63 63 63 63 63 62 62 61 61 61 60 60 60 59 59 59 59
65 64 63 62 62 61 59 58 58 58 58 59 66 61 56 55 55 55 57 60 56 55 55 55 53 54 60 62 62 62 63 62 62 61 60 59 59 59 59 58 58 59 59
65 63 63 62 62 61 58 58 57 57 57 59 58 57 56 55 55 54 54 54 56 56 53 53 51 50 53 61 62 62 62 62 61 60 58 57 57 57 57 57 57 57 58
65 64 64 62 61 59 57 57 56 54 57 58 56 55 52 51 52 53 52 54 53 54 55 55 53 51 50 50 51 61 61 61 60 57 56 55 55 55 55 55 55 56 56
65 64 63 63 61 59 58 57 58 57 55 57 56 55 49 48 47 50 52 54 55 52 52 53 54 53 51 49 53 56 57 57 57 56 54 53 53 54 54 54 54 54 54
63 62 61 61 61 61 60 58 58 57 56 53 53 56 52 51 47 44 50 53 52 55 51 50 51 52 52 49 51 51 52 52 53 54 53 52 53 53 53 53 53 53 53
62 61 61 58 58 58 57 57 57 55 54 52 51 48 47 48 48 46 45 49 52 52 49 49 48 49 51 49 45 48 50 49 50 52 52 52 52 52 52 52 51 52 52
62 61 60 59 59 58 57 55 55 54 52 50 49 47 47 46 47 47 45 46 48 49 52 52 47 47 47 47 50 50 49 48 49 51 51 51 51 51 51 51 51 51 51
59 59 59 57 57 55 54 54 54 53 51 49 48 46 47 47 48 48 46 46 45 48 50 50 51 48 50 46 46 49 48 46 47 49 50 50 50 50 50 50 50 49 49
60 59 59 58 57 54 52 52 51 50 50 48 46 46 46 46 48 48 47 45 40 41 43 45 50 49 46 44 44 48 46 46 46 47 48 49 49 49 49 49 48 48 48
59 58 59 57 54 53 52 51 50 48 46 45 46 46 46 46 47 47 48 48 43 38 36 40 41 46 45 44 45 44 41 46 46 46 46 47 48 48 49 49 48 47 47
59 57 55 53 51 51 51 49 46 45 45 45 45 45 45 46 47 47 48 46 45 42 38 39 41 42 45 49 46 42 42 46 45 45 45 45 46 47 48 48 47 46 46
57 55 53 51 50 49 48 46 45 45 45 45 45 45 45 46 46 46 44 44 45 44 41 40 40 42 41 42 44 41 43 44 43 45 44 44 44 45 45 45 45 45 45
54 52 51 50 49 47 46 46 45 45 44 44 44 44 45 49 47 47 46 46 45 45 44 41 39 38 40 41 41 41 45 49 45 46 45 45 45 44 44 43 43 43 43
50 50 49 48 46 46 46 45 45 44 45 45 45 45 46 46 45 45 45 45 46 47 41 40 41 38 39 42 43 42 42 40 44 47 45 44 44 44 43 43 43 43 43
48 48 47 47 46 46 46 46 45 44 44 45 45 46 46 43 41 42 44 40 42 38 38 38 37 35 36 41 38 37 35 34 36 45 46 44 42 44 44 43 43 43 43
47 47 46 46 45 45 46 44 45 44 44 44 45 46 44 43 44 43 44 41 40 40 37 37 37 38 35 31 32 36 33 35 35 36 35 37 36 36 35 42 41 43 43
47 46 45 44 44 45 41 42 43 44 45 44 40 41 41 43 42 40 38 39 37 33 31 30 34 35 36 33 32 32 34 33 32 35 35 32 35 32 34 33 40 41 41
45 42 41 41 41 43 41 41 40 41 40 38 37 37 40 43 38 37 37 37 36 37 33 31 31 32 33 34 36 34 31 35 32 34 33 30 30 30 32 40 41 41 41
41 41 41 41 42 44 39 39 37 37 35 36 36 35 34 33 34 35 33 31 32 33 34 36 33 34 35 37 35 35 35 35 35 34 32 28 28 28 29 31 39 41 41
43 42 43 41 37 36 38 38 36 33 33 31 34 33 33 31 35 36 31 28 28 30 36 37 37 37 37 37 37 35 34 32 30 30 30 28 26 26 28 28 31 39 40
44 44 41 37 36 34 37 37 33 28 27 27 29 31 33 32 34 34 29 28 26 28 30 30 31 33 34 34 35 34 35 32 30 27 30 28 27 25 22 25 29 29 28

GFSMA_sfc_temp_066.txt.gz
Temp
61 60 59 60 60 59 59 58 58 59 58 59 59 58 56 55 56 56 56 64 66 68 68 68 67 67 66 65 65 65 64 64 64 63 63 63 62 62 62 61 61 61 61
62 61 59 58 59 59 59 59 59 58 58 58 57 58 58 56 56 56 56 58 64 66 67 68 67 67 66 65 64 64 64 63 63 63 62 62 62 62 61 61 61 60 60
62 60 58 58 58 60 59 58 58 58 57 58 59 58 58 57 57 57 56 56 58 63 65 67 67 67 67 66 65 64 64 63 63 62 62 62 62 61 61 60 60 60 60
62 59 59 58 60 59 58 58 57 56 56 56 56 56 57 57 57 57 56 56 56 59 62 65 65 66 66 65 65 64 63 63 62 62 61 61 61 61 60 59 59 59 59
62 60 60 61 59 59 58 58 56 57 55 55 56 54 54 55 56 59 56 55 55 55 55 62 63 63 63 64 64 64 64 63 62 61 61 60 59 59 59 59 59 59 59
63 62 61 60 60 59 57 57 57 56 56 56 62 58 53 54 54 53 54 57 54 54 54 55 54 55 61 63 63 64 64 63 62 61 60 59 58 58 58 58 58 58 58
63 61 60 59 59 59 59 57 56 56 54 54 55 56 55 53 53 52 52 52 54 54 52 52 51 50 53 61 63 63 64 64 63 62 60 58 56 56 56 56 56 56 56
62 62 61 60 59 57 57 56 56 53 54 56 54 54 51 51 52 54 51 52 51 52 53 53 51 51 49 50 52 62 63 63 63 62 59 56 55 54 54 55 55 55 55
63 62 61 60 61 59 57 57 57 56 53 55 57 55 48 48 50 53 53 53 52 50 53 51 51 51 50 48 53 56 58 59 61 60 58 56 55 54 54 54 54 54 54
61 62 62 61 60 60 57 56 57 55 56 53 52 52 50 50 46 46 52 52 51 53 53 52 53 50 50 48 51 51 53 54 57 58 58 56 55 54 54 54 53 53 53
62 62 62 61 61 60 58 57 54 54 54 52 52 48 47 47 47 46 44 48 53 53 53 52 51 50 50 48 47 49 52 51 53 56 56 56 55 54 54 53 53 53 53
60 61 61 60 58 58 56 56 55 54 52 52 51 49 48 47 46 45 44 46 47 51 53 52 50 50 48 46 49 51 51 50 51 53 55 55 55 54 54 53 53 52 52
59 60 59 58 58 58 57 54 53 53 52 52 50 48 48 48 48 47 46 45 45 48 50 50 52 50 48 44 45 50 51 48 49 51 53 53 53 53 53 52 52 52 51
61 62 60 59 58 56 54 53 53 52 51 49 49 48 46 47 48 48 47 44 41 43 45 47 46 46 45 44 44 49 45 47 47 49 50 51 52 52 51 51 51 51 50
58 58 58 58 56 55 52 51 51 49 49 48 47 45 46 47 47 48 48 47 43 38 40 39 40 45 45 43 44 42 42 46 46 46 47 48 50 50 50 50 50 50 49
59 58 57 57 54 52 52 51 49 48 47 45 46 46 46 47 46 45 45 46 45 43 39 39 40 41 44 47 45 42 42 46 46 45 45 46 47 49 49 49 49 49 49
59 58 56 54 52 51 50 49 47 46 46 45 46 46 46 46 45 45 46 45 42 42 41 45 42 40 39 40 43 41 41 40 42 45 45 45 45 46 46 47 47 47 47
56 55 54 52 51 49 48 47 45 46 45 45 45 45 45 47 45 45 44 44 44 42 43 41 44 37 38 40 41 41 45 46 43 45 45 45 44 44 44 44 45 45 45
53 51 51 50 48 47 46 46 46 46 45 45 45 45 45 45 44 44 43 40 41 46 42 37 39 38 36 37 37 39 41 38 44 46 44 43 44 45 44 44 44 44 44
50 49 49 48 47 46 46 46 45 45 45 45 45 45 46 45 40 39 39 37 38 34 35 34 35 35 33 35 35 34 37 34 38 44 45 43 44 44 45 44 43 43 43
49 48 47 46 46 46 46 45 45 44 44 44 45 46 45 43 41 39 37 32 31 30 30 29 29 31 32 31 31 33 32 34 37 33 34 37 36 39 38 42 42 43 43
47 46 45 45 44 45 40 41 43 44 44 44 41 40 39 38 38 38 37 37 34 29 27 26 27 28 30 30 32 32 34 33 31 32 34 35 35 34 36 37 40 41 41
45 44 44 44 43 43 41 41 40 43 40 37 34 34 37 38 34 33 33 33 33 34 31 27 26 28 28 29 31 31 32 32 32 36 30 31 30 34 35 38 39 40 41
43 43 42 41 41 43 39 38 37 35 33 33 32 31 31 30 32 31 29 28 29 29 30 32 30 30 30 31 31 32 31 31 32 35 35 31 28 31 32 32 38 40 41
41 40 40 38 36 38 38 37 35 31 31 30 31 31 31 29 33 34 29 27 27 29 34 36 36 35 35 35 35 33 30 29 27 31 37 32 28 29 28 29 30 38 40
42 41 38 38 36 35 36 36 33 28 27 27 29 30 32 31 32 32 28 26 26 27 28 30 32 34 35 35 34 34 32 28 29 29 29 29 28 27 25 25 27 28 28

GFSMA_sfc_temp_069.txt.gz
Temp
61 59 57 58 59 58 58 57 56 56 55 56 55 55 54 54 55 55 56 64 65 67 68 68 67 67 66 65 65 64 64 64 64 63 63 62 62 62 61 61 61 61 61
61 60 57 57 59 57 57 56 56 56 55 56 55 55 54 54 55 55 55 58 64 66 67 68 68 67 66 65 64 64 64 63 63 63 62 62 62 61 61 61 60 60 60
62 59 57 57 57 57 57 56 56 55 54 56 55 55 54 54 54 55 55 55 59 63 65 66 67 67 66 66 64 64 64 63 62 62 62 61 61 61 60 60 60 59 60
61 59 58 58 57 58 57 55 55 54 53 54 53 53 53 54 55 55 55 55 56 58 61 64 66 66 66 66 65 64 64 63 62 62 61 61 60 60 59 59 59 59 59
61 61 60 58 58 57 56 57 55 55 53 52 53 52 52 53 54 57 55 54 54 55 55 61 63 64 64 65 65 65 64 63 63 62 61 60 59 58 58 58 58 58 58
62 61 59 58 58 57 56 56 56 54 54 53 59 56 51 51 52 52 53 56 54 54 54 55 56 56 61 63 64 65 65 64 63 62 61 59 58 57 57 57 57 57 57
62 59 59 58 58 58 58 57 55 54 53 53 52 52 51 52 52 51 50 51 53 53 52 52 52 51 53 61 63 64 65 65 64 63 62 60 58 56 56 55 56 56 56
60 59 58 58 57 56 57 55 55 53 53 53 53 51 48 50 50 51 51 50 53 53 51 52 51 50 49 50 53 63 64 65 65 64 62 60 58 56 55 55 55 55 55
60 60 60 59 58 57 56 55 56 56 54 54 56 55 48 48 50 52 52 52 53 52 52 50 51 53 50 48 53 56 59 60 63 64 63 60 58 57 56 55 55 55 54
59 60 60 60 59 59 58 57 57 54 54 52 52 52 52 51 47 47 52 52 52 53 51 48 51 52 52 50 52 53 53 54 57 61 62 60 58 57 56 56 55 54 54
58 59 60 59 59 59 59 57 54 54 55 52 52 48 48 47 48 47 45 48 51 52 52 52 52 51 52 51 49 49 52 52 53 58 60 60 59 58 57 56 55 55 54
57 59 60 59 59 58 57 57 56 54 53 51 51 49 49 47 47 46 45 46 48 51 52 52 51 50 50 50 52 52 51 50 52 55 58 59 59 58 57 57 56 55 54
56 58 60 60 58 58 57 55 53 54 52 52 51 50 50 50 49 48 47 46 45 47 48 50 51 48 51 48 47 50 50 48 50 52 55 56 57 57 57 57 56 55 55
59 60 59 60 59 57 56 55 54 53 52 52 49 49 50 49 49 49 47 42 42 43 44 47 44 46 47 46 46 48 45 47 47 48 51 53 54 54 54 55 55 54 54
58 57 57 58 57 57 57 55 54 52 51 50 50 50 46 47 48 49 48 47 44 38 39 44 40 43 43 43 44 42 41 46 47 46 47 49 51 52 52 53 53 53 52
59 59 57 57 56 57 54 53 52 50 49 47 47 46 46 47 47 47 47 45 45 43 39 43 39 40 42 45 45 43 41 46 46 45 45 46 48 50 50 50 50 50 51
58 59 58 57 56 54 53 52 49 48 47 46 46 46 46 47 46 45 45 45 44 43 40 41 39 40 38 39 42 41 41 39 41 44 44 45 45 46 47 48 47 48 48
59 58 58 56 53 52 51 50 47 47 46 45 45 46 45 47 44 45 44 44 43 44 41 36 37 36 36 38 37 37 43 46 41 44 44 44 44 44 44 45 46 46 45
58 56 56 53 51 51 49 47 48 46 46 46 45 45 45 44 44 44 44 42 41 42 36 33 32 35 34 35 35 36 37 37 41 46 45 44 44 44 44 44 44 44 43
54 52 53 52 50 48 48 47 47 46 45 45 45 45 45 45 43 42 40 35 34 31 30 29 28 29 30 32 31 30 33 34 34 41 43 42 43 43 44 44 44 44 43
51 51 49 48 46 46 46 46 46 44 44 44 44 45 43 42 40 40 35 31 30 28 27 26 26 26 26 26 26 29 30 32 33 33 35 36 37 38 40 43 43 42 41
48 47 47 46 45 45 40 41 44 44 44 44 41 39 39 39 37 37 37 36 33 27 25 23 23 23 23 25 26 26 27 26 25 32 29 32 33 36 35 33 39 40 40
46 46 45 44 43 43 40 41 41 44 41 39 38 37 37 36 33 31 33 33 32 33 29 25 23 23 24 26 27 26 26 27 27 30 29 28 32 32 35 37 39 38 37
44 44 43 44 43 43 39 39 37 38 35 34 34 32 30 30 31 31 29 28 28 29 29 30 26 26 27 31 32 31 30 30 32 33 33 26 32 32 34 34 37 38 39
44 43 44 43 41 39 37 36 36 35 32 30 31 30 30 29 33 33 30 27 27 29 33 34 34 35 35 35 35 32 29 28 26 28 29 29 31 32 28 30 29 38 39
43 41 38 38 37 36 36 36 34 29 27 28 29 30 32 30 32 32 28 26 25 26 25 26 26 28 30 30 32 31 31 27 27 26 30 27 31 27 26 29 28 31 32

GFSMA_sfc_temp_072.txt.gz
Temp
61 60 57 58 57 56 57 57 58 57 55 54 54 56 55 55 56 57 58 64 66 68 69 68 67 67 66 65 65 65 65 64 64 63 63 62 62 61 61 61 61 60 61
60 60 58 58 56 58 57 59 57 56 54 54 53 54 54 54 55 56 57 60 64 66 67 68 68 67 66 65 65 64 64 64 64 63 62 62 62 61 60 60 60 60 60
61 60 57 57 57 57 57 57 55 53 52 54 53 53 54 55 55 56 56 57 61 63 65 67 67 67 66 66 65 64 64 63 63 63 62 61 61 60 60 59 59 59 59
61 59 59 58 58 57 56 56 54 52 53 52 51 52 53 53 55 55 55 56 57 60 62 64 66 66 66 66 65 65 64 63 63 62 61 61 60 59 59 59 59 59 59
61 60 60 58 58 57 56 57 54 55 53 53 53 52 52 52 53 57 55 55 56 57 58 62 63 64 65 66 66 66 65 64 63 62 61 60 60 59 58 58 58 58 58
62 60 59 59 58 57 56 56 55 54 55 54 59 56 52 52 52 52 53 56 55 55 56 56 58 59 62 64 65 66 66 65 64 63 62 60 59 58 57 57 57 57 57
61 59 59 58 58 57 57 55 55 55 54 54 53 52 52 52 52 51 52 54 53 55 54 55 55 55 57 62 64 65 66 66 65 64 63 61 60 58 57 57 56 56 56
62 60 59 58 58 56 55 55 55 53 54 53 52 50 49 51 51 53 53 53 53 54 54 55 54 53 53 55 56 63 65 66 66 65 64 62 61 59 57 57 57 56 56
60 60 59 58 57 55 55 55 55 55 53 53 55 55 49 47 50 51 52 52 53 52 54 54 53 53 52 52 55 57 58 59 64 65 65 63 62 59 58 57 57 57 56
59 59 58 58 57 56 55 55 56 55 55 51 52 52 52 52 49 47 50 51 52 53 52 52 52 53 53 52 53 53 52 53 56 62 64 64 63 60 59 58 57 57 56
58 58 58 58 58 58 57 56 55 54 55 53 53 49 49 49 49 49 48 49 51 52 53 52 52 52 53 52 51 51 52 51 52 57 60 62 63 62 60 59 58 57 57
55 56 57 57 58 57 57 57 57 55 55 55 52 49 49 49 47 47 46 47 48 50 52 52 51 51 51 51 53 53 51 50 51 54 57 59 61 62 60 59 59 58 58
53 54 55 56 57 58 58 57 56 55 53 52 52 51 51 52 51 50 48 47 46 47 48 51 51 50 51 50 50 51 52 49 49 51 52 55 57 59 59 59 59 58 58
53 56 56 56 56 56 55 55 53 54 54 54 52 53 52 52 51 50 49 46 42 43 44 46 48 48 49 48 48 49 48 46 47 48 49 51 53 55 55 56 57 57 57
55 55 55 56 56 56 56 55 55 54 52 52 52 51 51 50 49 50 49 49 46 41 41 45 44 46 47 46 46 46 44 46 46 46 47 48 50 52 53 54 54 55 56
55 55 56 55 55 55 56 56 57 55 53 51 50 49 48 48 48 49 48 48 46 44 41 43 42 43 45 46 46 45 43 47 46 45 45 46 47 48 50 51 52 52 53
56 57 58 57 57 57 56 54 54 51 51 49 48 48 47 47 46 46 46 46 44 44 41 43 44 43 42 41 42 42 43 42 42 43 44 45 45 45 46 47 47 49 50
58 59 59 58 57 56 53 52 50 50 50 48 47 47 46 48 46 46 45 44 44 43 42 39 41 40 39 40 39 38 42 45 42 44 44 44 44 44 44 44 44 45 46
58 59 58 56 56 54 52 51 51 49 49 49 47 46 46 46 44 44 44 43 42 43 39 37 36 35 36 36 36 37 37 37 41 44 43 43 43 43 44 44 44 44 45
58 57 55 54 53 51 50 49 49 48 47 47 46 46 46 45 44 43 42 39 37 35 34 32 31 31 32 34 32 31 32 34 34 39 40 40 41 41 42 42 42 43 44
59 57 54 53 52 50 49 48 47 45 45 44 45 45 43 42 41 41 38 35 35 33 32 29 29 28 28 28 28 30 29 30 32 34 34 35 36 36 37 39 40 41 42
56 53 50 49 47 46 41 43 44 45 45 44 39 38 38 38 37 37 36 35 35 30 28 27 27 27 27 27 28 27 27 26 26 33 32 32 34 33 35 36 39 39 39
50 49 47 46 46 45 40 41 41 45 43 39 36 36 37 36 34 34 34 34 33 33 29 28 26 27 26 28 28 28 29 28 28 32 33 29 34 32 35 37 38 39 40
48 47 46 45 45 42 39 39 39 39 36 36 36 35 34 33 33 33 30 30 30 31 31 31 29 29 28 29 30 32 31 31 32 34 33 26 33 32 35 37 37 39 40
45 44 44 44 42 39 38 37 37 36 34 33 33 33 33 32 34 34 30 29 29 30 32 33 32 32 32 33 33 30 28 26 26 31 33 30 32 31 34 34 35 36 36
43 41 40 41 38 36 36 36 36 33 31 31 32 32 32 30 32 32 29 28 26 27 27 28 28 28 30 30 30 29 27 24 25 25 32 28 32 31 29 32 31 32 35

GFSMA_sfc_temp_075.txt.gz
Temp
63 64 63 66 68 69 69 67 68 68 67 68 68 68 68 69 70 71 72 65 66 68 69 68 68 67 66 66 66 65 65 65 64 64 63 62 62 62 61 61 61 61 61
62 62 61 63 65 68 68 67 67 68 68 69 67 68 68 69 70 70 72 70 64 66 68 68 68 67 67 66 65 65 65 64 64 63 63 62 62 61 61 60 60 60 60
64 63 63 64 64 66 64 65 66 67 67 68 67 67 68 68 69 69 70 71 69 63 65 67 67 67 67 66 65 65 64 64 64 63 62 62 61 61 60 60 59 59 60
65 63 66 64 65 64 63 62 62 65 66 66 65 67 67 67 67 68 68 69 70 71 65 65 66 67 66 66 66 65 65 64 64 63 62 62 61 60 60 59 59 59 59
65 66 66 65 62 61 62 64 64 65 64 65 66 65 64 64 65 67 66 66 67 68 70 65 64 64 65 66 66 66 66 65 64 63 62 61 61 60 59 59 59 58 58
62 64 62 60 62 63 64 64 64 65 65 64 65 64 64 65 66 65 65 66 67 67 68 68 69 68 62 65 66 67 67 66 65 64 63 62 61 60 59 59 59 58 58
63 60 61 60 63 65 64 63 63 63 62 62 62 62 63 62 61 63 63 64 62 63 65 62 64 67 69 63 65 66 67 67 67 65 64 63 61 60 59 59 59 58 58
61 62 64 63 62 62 62 61 62 61 62 61 62 62 60 62 63 63 63 62 57 64 58 58 59 60 63 68 63 64 66 67 67 67 66 64 63 61 60 59 59 58 58
62 63 64 63 64 64 62 61 62 63 61 60 62 64 55 55 59 57 57 55 56 60 64 60 57 59 60 56 58 60 58 59 63 66 66 65 64 63 61 60 59 59 58
63 66 64 63 63 62 63 62 64 64 64 61 60 56 59 63 58 53 61 61 54 55 55 55 54 57 62 55 55 55 53 53 55 60 62 64 65 65 62 61 60 59 59
63 63 63 65 63 64 63 63 61 61 62 62 55 53 54 56 57 57 55 61 59 60 59 61 54 56 59 54 53 53 52 52 52 55 59 60 62 63 64 62 61 60 59
61 63 64 64 66 65 65 64 63 62 62 58 60 62 61 59 58 56 55 55 52 59 59 60 58 56 54 52 54 53 52 50 51 53 55 57 58 60 61 62 63 61 60
62 63 64 64 64 65 65 65 64 61 61 61 62 61 60 61 58 53 50 49 52 53 57 53 53 55 57 59 57 53 52 49 49 51 52 53 55 56 57 59 60 61 61
64 65 64 65 65 65 65 65 64 64 63 62 62 60 58 55 56 54 52 49 46 48 53 53 59 60 58 57 53 50 58 47 47 48 49 50 51 52 53 55 57 57 58
64 64 64 65 66 66 66 65 64 63 62 61 60 60 55 54 53 52 51 52 51 48 53 55 57 58 59 60 54 58 58 50 47 46 46 47 49 50 51 52 52 53 55
64 64 65 65 66 66 66 64 63 63 59 56 56 55 54 51 50 50 50 53 54 53 50 58 56 55 53 57 54 57 55 48 47 45 45 45 46 47 48 48 49 50 50
64 62 62 62 63 63 62 60 60 60 58 57 55 55 52 50 49 50 51 51 53 51 48 51 51 52 51 55 55 55 54 52 53 46 44 44 44 44 45 45 46 46 47
64 64 65 64 63 58 57 57 57 57 55 53 51 51 50 50 49 50 49 49 52 49 46 44 44 52 46 53 51 50 50 51 50 47 43 43 43 43 43 42 43 43 44
63 64 64 62 62 63 60 59 56 53 53 53 52 51 49 48 46 48 49 48 47 47 43 41 40 49 47 51 49 47 46 45 47 44 43 42 42 42 42 42 42 42 42
62 63 62 62 62 62 58 56 54 53 52 52 50 50 48 48 47 48 46 44 41 38 41 37 38 44 46 48 45 43 43 44 43 45 43 41 40 41 41 41 40 41 41
63 64 62 57 57 56 54 53 54 52 50 47 47 47 46 46 44 44 43 43 39 37 37 35 38 42 44 43 41 43 38 41 42 43 42 43 44 45 45 43 43 42 41
63 63 62 59 54 54 45 45 49 49 47 45 41 40 40 40 38 38 38 38 40 37 35 38 40 41 41 39 40 38 37 37 37 46 41 40 44 43 45 46 42 39 39
61 59 59 56 53 52 42 43 43 47 45 42 39 38 37 36 36 38 35 35 34 34 33 41 39 39 37 39 37 36 37 36 36 41 39 37 42 41 45 45 41 40 40
57 53 51 50 49 46 40 41 40 43 39 38 37 37 35 34 35 35 34 33 34 35 36 37 38 38 37 38 37 37 37 37 39 41 42 34 41 40 44 45 42 41 39
49 48 47 45 43 41 38 38 38 37 35 34 34 35 35 34 33 35 34 33 33 35 34 33 32 32 32 32 33 36 34 32 31 36 39 37 39 39 41 41 44 40 37
45 44 42 42 39 38 37 37 37 34 32 31 33 33 33 34 33 33 33 34 33 34 34 34 35 34 32 34 30 34 33 29 30 30 41 34 37 36 33 42 42 44 44

GFSMA_sfc_temp_078.txt.gz
Temp
67 70 72 74 75 78 78 77 78 76 75 75 76 76 76 77 77 79 76 66 67 69 69 69 68 67 67 66 66 65 65 65 64 64 63 63 62 62 62 61 61 61 62
66 68 69 69 72 75 78 77 76 76 76 76 75 76 76 77 77 77 78 73 65 67 68 69 68 68 67 67 66 66 65 65 64 64 63 62 62 61 61 61 61 61 61
67 67 68 67 68 74 74 75 75 77 75 77 75 75 76 75 76 76 77 76 72 64 66 67 68 68 67 67 66 65 65 65 64 64 63 63 62 61 61 60 60 60 60
67 67 67 66 67 68 70 72 74 73 74 75 74 75 76 76 75 74 76 77 76 76 66 65 66 67 67 67 66 66 65 65 64 64 63 62 62 61 61 60 60 59 59
67 68 69 69 70 70 68 70 72 72 72 74 74 75 75 75 74 76 74 73 74 74 74 65 64 64 65 66 66 66 66 65 64 64 63 62 62 61 61 60 60 60 59
71 73 74 71 72 71 70 72 70 72 73 74 75 73 73 74 74 74 73 73 72 71 73 73 71 69 63 65 66 67 67 67 65 65 64 63 62 62 61 60 60 60 60
72 68 69 70 71 69 70 68 70 69 70 71 70 70 70 71 71 71 71 71 72 71 72 72 72 71 65 63 65 67 68 68 67 66 65 64 63 62 61 60 60 60 60
64 64 67 68 69 66 63 64 69 68 69 68 66 69 63 66 69 69 71 70 67 66 64 69 67 67 66 71 69 65 67 67 68 68 66 65 63 62 62 61 60 60 60
66 64 64 67 64 67 66 65 65 65 65 63 65 67 58 58 61 66 66 60 66 63 62 70 71 65 63 62 62 65 60 59 63 65 66 66 65 64 63 62 61 60 60
64 67 65 68 66 68 69 69 69 67 70 65 65 67 65 63 56 60 69 61 60 59 57 65 62 66 63 60 62 60 55 54 56 60 62 63 64 64 64 64 62 61 60
66 64 65 66 69 70 70 70 68 67 69 68 67 66 64 57 58 59 60 63 67 68 68 60 68 69 63 63 66 63 53 51 53 56 59 60 61 62 62 63 63 63 61
61 64 66 66 68 67 69 69 69 67 67 67 67 66 66 60 64 64 63 64 60 59 64 62 68 68 66 62 60 54 52 51 51 54 55 57 58 59 59 60 61 62 62
62 63 63 64 66 68 70 70 69 68 67 67 68 67 67 66 69 65 62 53 52 56 58 63 69 68 63 56 58 55 52 49 50 52 52 53 54 55 56 57 58 59 60
65 63 63 65 67 70 71 71 70 70 71 69 68 69 68 69 69 66 59 51 48 52 53 60 65 65 64 67 61 51 61 49 48 49 49 50 51 52 52 53 54 55 56
71 67 69 69 71 72 72 71 69 70 70 69 69 69 67 64 65 64 58 54 51 45 50 57 62 64 65 63 58 63 64 48 48 47 47 47 49 50 50 50 51 51 52
71 71 71 71 71 71 71 71 71 71 70 69 66 63 63 64 61 56 56 58 54 53 51 64 61 63 64 64 55 60 62 50 49 46 45 45 46 47 47 47 48 48 48
71 71 71 71 71 71 72 71 71 71 69 66 63 62 59 56 55 56 53 54 53 55 53 53 62 61 56 58 57 58 60 60 60 47 45 44 44 44 44 44 45 45 45
71 71 71 71 71 71 71 71 69 65 61 60 60 56 57 54 53 53 52 54 53 55 53 53 53 56 55 52 51 56 58 60 58 51 44 43 43 43 43 42 42 43 43
71 71 72 71 71 71 72 71 65 61 61 65 60 55 54 51 52 51 49 52 52 52 53 56 47 48 45 49 48 52 54 54 55 49 44 43 43 43 42 42 42 42 41
69 70 71 70 70 71 70 67 66 64 64 62 59 54 54 52 52 50 49 50 49 48 45 47 45 44 46 47 46 49 51 53 52 54 49 44 42 45 42 42 42 42 43
69 70 68 69 69 69 68 63 63 62 60 59 55 53 53 52 47 48 48 46 43 43 42 44 42 41 41 42 43 50 47 49 50 51 50 51 51 51 51 47 46 44 42
69 69 69 69 68 67 51 46 56 61 57 54 49 47 46 45 43 41 42 40 42 42 42 44 42 38 40 45 46 47 46 44 43 53 47 47 51 49 51 52 44 42 41
67 67 67 67 67 68 45 44 44 60 55 51 46 41 40 40 40 37 36 35 34 34 35 41 40 42 43 45 44 44 44 44 43 48 46 42 48 47 50 52 43 42 41
66 66 66 67 67 64 43 43 42 50 46 44 41 41 37 36 36 35 35 33 34 36 37 38 42 41 42 44 44 44 44 43 44 45 47 39 47 45 49 50 44 43 42
64 64 62 60 56 49 40 39 42 40 37 36 37 37 36 34 34 35 33 33 33 33 34 34 33 33 33 33 35 41 38 38 36 42 46 40 44 44 45 45 48 43 41
56 48 44 45 42 41 39 39 40 36 33 32 33 33 33 33 32 32 33 33 32 33 34 35 35 34 33 36 31 36 39 34 36 36 45 37 40 40 37 44 46 46 48

GFSMA_sfc_temp_081.txt.gz
Temp
65 65 67 73 76 78 76 76 78 78 77 77 78 77 79 80 79 77 73 66 67 69 69 69 68 68 67 66 66 65 65 65 65 64 64 63 63 62 62 62 62 62 62
63 64 65 69 77 79 78 78 77 77 77 77 76 77 78 79 79 77 75 71 65 67 68 69 68 68 67 67 66 66 65 65 65 64 63 63 62 62 61 61 61 61 61
63 67 65 69 71 77 77 73 75 77 77 77 76 77 78 77 78 77 75 73 70 64 66 68 68 68 67 67 66 66 65 65 65 64 64 63 62 62 61 61 61 61 61
65 64 65 68 72 73 75 73 72 72 75 76 75 75 76 77 76 77 78 76 74 73 66 66 66 67 67 67 67 66 66 65 65 64 64 63 63 62 61 61 61 60 61
62 63 66 68 69 71 68 69 70 70 72 74 75 75 76 77 75 77 77 77 75 75 73 64 64 64 66 66 67 67 66 65 65 65 64 63 63 62 62 61 61 61 61
63 65 66 65 67 67 68 70 68 70 71 74 76 75 75 76 76 75 75 76 76 74 74 71 68 67 63 65 66 67 67 67 66 65 65 64 63 63 62 61 61 61 61
67 68 70 70 70 68 69 70 70 69 71 74 72 71 72 73 73 74 75 74 73 72 72 73 70 70 68 63 65 67 68 68 68 66 65 64 64 63 62 62 61 61 61
69 73 72 70 70 69 70 69 69 68 70 72 69 69 63 67 70 71 72 71 70 73 72 68 67 70 71 70 66 65 67 68 68 68 66 65 64 63 63 62 62 61 61
69 71 69 69 67 71 70 70 71 70 68 69 69 66 60 59 65 69 67 70 70 69 67 65 67 68 70 71 68 65 61 61 65 67 67 66 65 64 64 63 63 62 61
66 67 68 67 67 68 69 68 71 69 68 64 63 64 68 67 58 53 62 65 63 59 62 64 66 69 70 69 65 61 57 56 59 62 64 64 64 64 64 64 64 63 62
65 66 65 65 64 65 69 67 68 67 68 65 65 66 65 65 64 62 58 60 66 66 68 65 67 68 67 69 68 64 55 53 54 57 60 61 62 62 63 63 63 63 63
62 63 66 62 63 64 66 68 68 66 66 66 65 65 65 64 63 61 59 63 62 62 64 63 63 65 69 70 67 58 53 51 52 54 57 59 59 60 60 60 60 61 61
60 61 62 63 63 65 69 69 66 67 66 65 64 65 66 66 69 67 63 63 62 62 55 61 60 67 70 70 67 56 52 50 51 53 55 56 56 56 56 57 57 58 59
61 62 62 63 64 64 67 70 67 68 68 66 66 66 67 70 70 70 67 62 53 55 59 60 61 61 66 68 64 53 60 49 51 51 52 52 52 52 52 53 54 54 55
66 66 64 65 65 67 66 70 67 67 69 65 65 68 68 70 70 70 69 66 59 52 51 58 53 62 67 67 57 59 62 49 50 49 49 49 50 50 50 50 50 51 51
71 70 69 67 66 66 70 70 70 70 69 68 68 68 68 70 69 67 65 62 59 54 50 57 60 65 64 64 55 61 63 51 49 48 47 47 46 47 47 47 47 48 48
70 70 70 68 69 70 70 70 70 70 69 69 68 68 67 66 62 61 61 58 55 53 51 56 61 63 59 61 57 59 60 61 58 47 46 46 45 44 44 44 44 45 45
70 70 71 70 71 71 71 70 69 70 70 69 69 68 65 61 61 61 57 55 53 54 52 51 55 58 59 60 57 57 59 60 56 48 46 45 44 43 43 43 43 43 43
71 72 72 71 71 71 72 72 71 70 70 70 70 68 62 63 59 56 54 52 52 53 52 52 51 53 52 53 54 52 49 49 55 49 44 44 44 44 43 43 43 43 42
71 71 71 71 71 72 73 72 72 70 70 70 68 66 63 63 61 55 52 52 52 50 50 50 45 47 46 48 48 45 43 50 48 56 53 48 46 45 43 43 43 42 43
72 72 72 72 72 71 72 71 72 70 70 67 65 63 60 59 51 53 52 51 48 47 45 45 39 40 39 41 42 44 42 43 44 51 52 53 51 51 51 44 44 44 43
72 72 71 71 70 71 57 51 59 70 67 66 60 58 55 49 48 44 43 43 47 46 43 41 39 39 39 42 41 40 40 39 41 54 50 48 52 50 51 53 47 44 43
70 69 70 70 70 70 51 48 47 63 61 63 58 57 49 47 43 41 36 35 36 36 36 40 37 37 37 39 41 40 42 42 43 50 49 45 48 46 51 53 45 43 43
69 69 69 69 70 70 49 46 43 57 58 59 56 51 46 41 40 37 36 34 33 34 34 36 36 36 38 40 43 43 44 45 46 47 48 39 45 44 48 50 46 44 43
68 67 68 67 68 68 41 42 45 50 43 39 39 39 39 36 36 37 34 32 31 30 32 32 33 34 34 35 36 43 39 38 36 41 46 43 43 41 44 44 45 45 43
67 64 61 53 44 54 41 40 43 40 35 34 34 34 35 34 33 34 33 32 29 28 30 32 31 33 34 35 32 36 39 36 36 36 43 40 40 40 35 43 43 45 44

GFSMA_sfc_temp_087.txt.gz
Temp
64 63 64 63 64 63 62 60 61 63 63 65 65 66 66 64 65 64 63 65 66 69 70 69 68 68 67 66 66 66 65 65 65 65 64 63 63 63 63 63 63 63 62
64 63 63 62 62 65 63 63 61 64 62 65 63 67 65 65 64 63 62 63 65 66 68 69 68 68 67 66 66 66 66 65 65 64 64 63 63 63 62 62 62 62 62
64 64 63 62 64 66 65 64 63 63 62 66 64 65 66 65 64 63 61 61 63 64 65 67 68 68 67 67 66 66 65 65 65 64 64 63 63 62 62 62 62 62 61
65 64 62 61 63 66 65 64 65 64 62 62 61 63 66 64 63 63 62 62 59 63 63 65 66 67 67 67 66 66 66 65 65 65 64 63 63 62 62 62 61 61 61
64 63 62 62 62 63 64 64 61 63 62 61 62 61 62 65 63 65 63 62 60 60 60 63 64 64 65 66 67 67 67 66 66 65 64 64 63 63 62 62 62 61 61
64 63 62 61 61 62 63 65 61 61 63 63 68 63 61 64 65 63 62 64 63 62 61 61 61 61 62 65 66 67 68 67 66 66 65 64 64 63 63 62 62 62 62
61 61 59 59 59 62 62 62 62 62 60 61 60 59 60 62 63 62 65 63 62 63 62 61 61 60 61 63 65 67 68 68 67 67 66 65 64 63 63 63 62 62 62
60 61 59 58 58 59 60 59 59 58 59 60 60 57 53 57 59 61 61 63 63 63 62 61 60 60 60 61 61 65 67 68 68 68 66 65 65 64 63 63 63 63 62
60 59 58 58 58 59 59 58 59 60 60 58 59 55 50 49 54 57 58 59 59 58 61 61 60 61 61 60 61 61 61 61 66 68 67 66 65 65 64 64 63 63 63
60 60 60 61 60 60 59 59 60 59 58 58 56 59 57 56 51 49 55 57 57 57 56 57 61 62 62 61 60 59 57 56 59 64 66 66 66 65 65 65 64 64 64
60 60 61 61 61 60 60 61 59 58 57 56 56 55 55 55 55 51 49 54 57 57 57 59 60 60 61 61 60 59 55 55 56 60 63 65 66 65 65 65 64 64 63
58 59 62 62 60 61 59 59 59 58 58 57 57 57 55 54 53 54 52 52 52 54 59 57 56 59 60 60 61 58 54 54 54 57 60 62 64 65 64 65 64 64 63
57 58 60 61 60 60 60 60 59 59 58 57 57 58 58 58 57 56 53 52 51 53 53 54 58 60 60 57 59 57 55 52 52 54 56 59 60 61 61 62 63 62 62
60 57 58 60 60 59 59 60 60 58 58 57 57 57 58 59 58 58 56 54 51 51 51 53 54 56 57 57 57 55 58 51 51 52 53 55 56 56 57 58 59 59 59
61 58 59 60 59 60 60 59 58 59 59 58 59 58 58 59 60 60 58 57 56 51 47 51 53 56 59 58 58 58 58 52 50 49 50 51 53 54 54 54 54 55 55
61 61 58 61 60 61 61 60 60 59 59 59 59 59 59 58 59 59 59 58 56 56 53 53 55 55 56 59 58 57 56 50 48 47 47 49 50 51 51 51 51 51 52
60 61 59 59 61 61 61 61 61 61 60 60 60 59 59 59 57 58 59 59 58 57 54 58 53 52 54 54 56 54 54 52 50 47 46 47 47 47 47 48 48 48 48
60 60 59 60 60 61 61 60 60 62 60 59 60 59 59 58 58 58 58 58 58 59 56 55 55 51 53 54 55 51 53 54 52 47 46 46 46 45 45 45 45 45 45
60 60 60 59 59 60 60 60 60 59 60 60 60 57 59 58 57 58 57 57 57 57 56 56 55 52 53 50 48 49 49 51 51 50 45 45 45 45 44 44 44 44 44
61 60 61 60 60 60 61 61 61 59 59 60 60 59 60 58 58 58 57 57 57 56 54 53 53 53 47 47 50 49 46 45 48 51 48 47 44 44 44 44 43 43 43
62 62 61 61 62 62 62 61 61 60 59 59 60 61 60 59 54 56 58 57 56 55 54 52 51 49 45 41 45 47 47 46 41 42 42 42 41 42 43 43 44 44 43
62 63 62 61 61 63 55 50 57 61 61 61 59 60 60 52 52 48 48 49 54 55 53 51 51 49 47 48 50 46 43 35 36 40 38 38 40 39 42 42 43 42 43
62 61 62 63 62 62 50 48 47 61 61 61 60 60 59 59 50 55 44 42 39 38 36 51 51 50 48 43 38 35 34 33 33 37 37 33 37 37 41 47 43 43 42
61 61 61 61 61 62 48 47 45 57 60 60 59 58 57 55 50 50 44 38 34 34 34 36 36 35 36 37 37 36 35 33 33 35 36 31 34 34 38 39 42 43 42
61 61 62 62 61 61 47 46 46 56 57 58 47 43 50 48 41 42 38 34 32 31 34 35 35 35 35 35 36 35 32 32 30 31 33 31 32 32 33 34 38 41 41
62 63 61 60 55 60 44 45 46 56 53 37 35 35 36 38 36 36 36 33 29 29 30 30 29 31 32 32 32 32 32 30 30 28 30 29 30 30 28 31 32 33 33

GFSMA_sfc_temp_090.txt.gz
Temp
64 64 63 63 64 62 61 58 58 60 60 61 64 65 64 62 62 63 64 66 67 69 70 70 69 68 67 67 66 66 66 65 65 65 64 64 64 64 63 63 63 63 63
65 64 63 62 62 64 62 61 58 58 59 60 62 65 63 62 62 61 62 64 65 67 68 69 69 68 67 67 66 66 66 65 65 65 64 63 63 63 63 62 62 62 62
64 64 63 61 62 63 63 62 57 58 59 61 63 63 63 62 61 61 60 61 62 63 65 67 68 67 67 67 66 66 65 65 65 64 64 63 63 62 62 62 62 62 62
64 64 62 60 62 63 63 63 59 59 58 59 61 62 62 62 61 60 60 59 58 61 63 65 66 67 67 66 66 66 66 65 65 65 64 63 63 62 62 62 62 62 62
64 64 62 61 60 62 62 62 58 62 60 58 61 62 62 61 61 62 60 58 58 58 58 63 64 64 65 66 66 67 67 66 65 65 64 64 63 63 62 62 62 62 62
64 64 63 61 61 60 62 62 61 59 60 60 64 61 62 61 60 60 60 62 61 60 58 60 60 61 62 65 66 67 67 67 66 66 65 64 64 63 63 62 62 62 62
62 62 61 60 61 62 63 63 63 62 59 58 58 56 58 61 60 60 60 61 61 61 60 60 59 59 61 63 65 67 68 68 68 67 66 65 64 64 63 63 62 62 62
63 62 62 60 60 62 62 63 62 58 59 61 59 56 53 55 56 60 60 60 60 61 60 60 59 59 60 60 61 65 67 68 68 67 67 66 65 64 64 63 63 63 63
61 61 61 60 60 61 61 63 63 63 61 57 60 54 49 48 52 54 56 60 59 59 60 61 60 60 59 59 60 61 61 62 66 68 67 66 65 65 64 64 64 63 63
60 60 60 60 59 58 59 62 64 63 62 59 55 57 56 54 51 49 55 56 58 59 59 59 59 59 60 59 59 59 57 56 59 64 66 66 66 65 65 64 64 64 64
58 58 59 58 57 57 58 60 58 58 59 55 55 53 53 53 53 50 49 52 54 57 58 58 58 58 60 60 59 58 55 54 56 60 63 65 66 65 65 65 64 64 64
56 58 59 59 58 57 57 57 58 58 57 56 55 55 55 54 53 53 51 51 53 55 57 56 56 58 59 60 60 57 55 53 54 57 60 62 64 65 64 64 64 64 64
56 56 58 58 58 59 58 58 58 57 57 57 56 55 56 56 57 55 54 52 52 53 53 53 57 58 59 57 58 56 55 51 52 55 57 59 60 62 63 64 64 64 65
58 59 57 57 57 60 60 59 58 57 56 57 57 57 57 57 57 57 56 53 49 50 51 54 54 56 58 59 57 54 57 51 51 52 54 55 57 58 59 60 61 62 62
60 58 56 57 56 57 58 59 57 55 55 55 55 56 58 58 58 57 57 56 53 48 48 52 54 56 58 58 58 57 57 55 50 49 50 52 54 55 56 57 57 58 59
60 59 56 58 59 58 58 57 59 57 56 57 58 56 57 57 58 58 58 58 57 56 52 53 55 57 57 59 57 56 57 54 51 48 49 49 51 53 53 54 54 54 55
57 57 59 58 59 59 59 58 58 58 57 58 58 57 58 60 58 58 58 57 57 56 54 58 60 60 54 56 57 53 55 55 56 47 47 48 48 49 49 50 50 51 51
57 58 58 58 59 59 60 59 58 60 57 57 57 56 58 59 57 58 57 57 57 57 56 54 57 56 52 54 55 52 53 54 54 49 46 46 47 47 47 47 47 47 47
57 58 59 57 58 58 59 59 60 59 59 60 60 59 59 58 57 58 57 56 56 56 56 56 57 59 56 50 51 51 49 51 53 52 45 45 46 47 46 45 45 45 45
57 57 58 58 58 59 59 59 59 58 58 59 59 60 60 59 58 58 56 56 57 56 56 55 55 56 53 50 50 49 45 48 50 51 48 46 45 45 44 43 43 43 43
58 58 58 58 58 58 59 58 59 58 58 57 58 58 57 57 53 55 57 57 56 55 55 55 55 55 51 42 47 49 49 50 42 43 44 43 42 42 42 41 42 42 42
60 59 58 57 57 58 52 48 54 58 58 57 57 57 58 51 51 47 48 49 56 55 55 55 55 53 53 52 52 49 48 38 39 40 39 38 40 38 40 40 40 41 41
60 59 58 58 57 58 48 47 46 58 58 58 58 58 57 58 51 57 47 43 40 37 38 55 55 55 54 54 51 40 37 36 34 37 37 33 36 35 39 42 40 40 40
59 59 59 60 59 60 48 47 44 55 58 58 58 58 57 57 56 54 53 45 39 36 37 38 41 40 37 38 40 39 37 33 33 34 35 32 32 32 35 36 38 39 41
59 59 60 59 60 61 47 46 45 54 56 57 59 58 58 55 51 45 46 38 33 32 35 36 36 35 36 36 37 37 33 34 30 30 31 32 31 31 32 32 35 38 39
60 60 59 60 56 59 48 45 46 57 55 54 56 42 37 47 44 40 50 39 33 31 31 31 31 31 32 32 32 33 33 31 30 27 29 29 29 29 27 31 31 31 31

GFSMA_sfc_temp_093.txt.gz
Temp
62 63 64 64 63 63 63 61 60 62 62 62 61 61 60 60 62 63 64 65 66 68 70 70 70 68 68 67 67 66 66 66 66 65 65 65 64 64 64 64 63 63 63
63 63 63 63 62 63 63 63 60 60 59 61 60 60 60 60 62 60 63 64 65 67 69 70 69 69 68 67 66 66 66 65 65 65 64 64 63 63 63 63 63 63 63
64 64 63 62 62 63 62 60 57 59 59 61 60 60 60 60 60 60 59 59 63 64 66 68 68 68 68 67 66 66 66 65 65 65 64 63 63 63 63 63 62 62 62
65 64 63 61 61 61 61 59 59 58 57 59 58 59 59 60 60 59 58 58 57 61 64 65 66 67 67 67 67 66 66 65 65 65 64 63 63 63 62 62 62 62 62
64 64 62 61 60 60 61 60 56 59 56 58 58 57 57 59 59 61 59 58 58 58 58 63 64 64 65 66 66 67 66 66 65 65 64 64 63 63 63 62 62 62 62
64 64 62 60 60 59 58 60 59 58 56 59 62 58 57 56 59 59 59 61 59 58 58 60 61 61 62 65 66 67 67 67 66 66 65 64 64 63 63 63 62 62 62
63 63 62 59 59 60 61 61 60 60 57 58 58 54 55 55 56 58 59 59 59 60 59 59 59 57 60 63 65 67 68 68 67 67 66 65 64 64 63 63 63 63 63
63 63 62 59 59 60 61 61 62 57 56 60 57 55 51 54 56 57 56 57 57 60 59 59 59 57 57 59 61 65 67 68 68 68 67 66 65 64 63 63 63 63 63
62 62 61 60 59 57 59 61 62 62 58 54 61 55 49 49 51 52 54 55 55 56 58 59 59 59 59 59 59 61 60 61 66 68 67 66 65 65 64 64 64 63 63
61 61 62 60 59 58 60 60 62 63 60 57 55 56 55 54 50 47 52 54 55 56 57 58 59 59 60 58 59 58 56 56 59 64 66 67 66 65 65 64 64 64 64
59 61 60 60 59 59 58 57 58 59 60 58 59 54 53 53 53 50 48 50 53 57 58 58 59 59 59 59 58 58 55 54 55 60 63 65 66 66 65 65 65 64 64
56 58 59 58 58 57 56 55 56 58 57 58 57 54 54 53 52 52 50 51 53 53 58 57 56 57 58 58 59 57 54 53 54 57 60 62 64 65 65 65 65 65 65
55 56 58 57 57 58 57 56 56 57 57 58 57 57 56 56 56 56 54 51 51 53 52 53 56 57 58 58 59 56 55 51 52 55 57 58 60 62 63 64 64 65 64
57 56 57 59 59 59 58 58 57 57 56 56 56 56 58 57 57 56 55 53 49 49 50 53 55 58 59 59 58 54 58 51 51 52 53 55 57 58 59 60 62 63 63
58 57 57 57 58 58 58 58 56 56 56 56 56 55 55 55 56 57 56 55 53 49 49 53 53 55 57 57 56 57 58 56 50 50 50 51 54 55 56 57 58 59 61
56 55 55 56 57 58 58 57 58 58 57 56 57 56 56 56 57 56 56 55 55 53 51 55 56 56 56 58 57 57 58 53 50 49 48 49 50 52 54 54 55 56 56
55 56 56 56 56 56 56 56 58 59 57 58 56 54 57 58 57 57 57 57 56 55 53 58 58 58 54 57 58 57 58 57 57 49 48 48 48 49 50 51 51 52 53
55 56 56 56 57 57 56 56 56 57 56 56 55 54 56 56 55 56 56 56 56 56 55 54 58 55 53 56 58 58 56 56 57 53 48 48 47 47 47 48 48 49 50
54 56 56 56 56 57 56 56 57 57 56 56 56 55 56 56 55 56 55 56 56 57 56 55 56 58 57 51 53 53 55 54 52 52 48 46 46 47 47 46 47 47 47
55 55 56 56 56 57 57 57 57 56 56 56 57 57 57 56 56 56 55 55 56 55 55 54 54 55 55 53 48 50 49 46 51 53 50 47 46 45 45 45 45 45 45
56 56 55 56 56 56 57 57 58 57 56 56 56 57 57 57 53 55 58 57 56 54 54 53 53 54 54 53 48 55 52 53 50 49 46 44 44 43 43 43 44 43 42
56 56 55 55 55 57 50 47 53 57 57 56 55 56 56 51 51 47 47 49 55 54 53 54 54 53 55 56 56 52 52 50 46 42 42 40 40 39 41 41 40 40 40
57 56 56 56 55 56 47 46 45 56 56 56 56 56 56 56 49 55 47 44 44 44 46 58 55 55 55 57 57 54 52 51 49 38 38 33 36 36 40 40 40 39 39
58 58 58 58 57 57 46 45 44 53 56 56 56 55 55 55 55 53 52 52 49 51 48 46 51 54 57 47 45 48 52 39 34 34 36 32 33 32 35 37 39 39 38
58 58 59 58 58 58 47 44 44 52 54 54 56 56 55 54 51 46 51 50 49 36 36 37 36 36 35 36 38 39 35 35 32 31 31 32 31 31 32 32 34 35 36
56 59 58 58 49 49 36 37 43 54 52 52 53 53 46 51 48 43 50 51 49 36 32 30 30 31 32 32 32 32 34 34 30 27 28 29 29 29 28 30 31 30 30

GFSMA_sfc_temp_096.txt.gz
Temp
61 62 63 63 64 65 63 60 60 61 61 61 61 61 61 61 61 62 62 66 67 69 70 70 70 69 68 67 67 66 67 67 67 66 66 65 65 65 64 64 64 64 64
62 62 63 63 62 63 61 60 61 61 61 61 60 61 59 61 61 61 62 66 65 67 69 70 70 68 68 67 67 67 66 66 66 66 65 65 64 64 64 63 63 63 63
62 62 62 62 61 61 61 59 59 60 58 60 59 60 60 59 59 60 60 61 64 64 66 68 68 68 68 68 67 66 66 66 65 65 64 64 64 63 63 63 63 63 63
63 63 62 61 61 60 59 59 60 59 59 58 57 57 58 59 59 59 60 61 60 63 65 65 67 68 67 67 67 67 66 65 65 65 64 64 63 63 63 63 63 63 62
63 62 62 61 60 59 59 59 56 59 58 57 57 55 57 57 59 60 59 59 60 60 61 64 64 64 66 67 67 67 67 66 65 65 64 64 64 63 63 63 63 63 62
64 63 62 60 61 59 59 60 57 58 59 58 60 56 55 55 57 57 58 61 60 60 60 61 62 62 62 65 66 67 68 67 66 66 65 65 64 63 63 63 63 63 63
63 63 62 59 60 60 59 59 58 57 57 59 56 55 54 54 56 56 57 58 58 59 59 60 61 61 62 63 65 67 68 68 67 67 66 65 64 64 63 63 63 63 63
63 63 61 59 59 58 58 59 60 57 56 60 56 55 51 53 55 57 56 57 57 59 59 59 60 59 60 61 61 65 67 68 69 68 67 66 65 64 64 63 63 63 63
61 63 61 60 58 57 57 58 60 61 57 57 60 54 50 49 51 54 55 56 55 56 58 58 58 59 59 59 60 61 60 61 66 68 67 66 65 65 64 64 64 64 64
60 61 61 60 59 57 57 59 62 61 59 57 59 57 56 54 50 48 53 55 55 55 56 57 58 59 59 59 59 58 56 56 59 63 66 67 66 66 65 65 64 64 64
59 61 61 60 59 57 58 59 60 60 61 59 58 53 53 53 53 51 48 50 53 56 58 57 58 59 59 59 59 58 55 54 55 60 63 65 66 66 66 65 65 64 64
59 60 60 60 59 57 57 58 59 61 59 58 56 56 55 54 52 52 50 52 53 55 58 59 58 58 59 59 59 57 54 52 54 57 60 62 64 65 65 65 65 65 65
56 58 59 59 58 58 58 58 57 57 56 57 57 56 56 56 56 56 54 52 51 53 53 56 58 59 59 58 59 56 54 52 52 54 57 59 60 62 63 64 65 65 65
56 57 58 58 57 57 57 57 57 57 55 55 56 57 56 58 57 58 55 53 50 51 52 54 56 57 58 59 58 54 58 50 51 52 53 55 57 58 59 60 62 63 64
57 56 58 57 57 57 57 57 57 57 57 56 56 57 58 60 60 58 57 56 54 49 50 54 54 56 57 58 57 57 58 55 50 50 50 51 53 55 56 57 58 59 60
57 56 56 56 56 57 58 57 56 57 56 57 57 56 56 58 57 56 56 56 55 55 53 55 55 57 55 56 57 57 57 54 51 49 48 49 50 52 53 54 54 55 56
53 55 56 56 57 57 57 57 57 56 55 56 56 57 57 58 57 56 54 55 55 55 54 58 58 57 55 57 58 57 58 58 59 50 50 48 48 49 49 50 51 52 53
53 53 54 55 56 56 56 57 57 58 57 56 55 55 57 57 56 56 55 56 56 57 56 54 58 55 55 56 59 59 58 59 60 55 50 48 48 48 48 47 48 48 49
52 53 53 54 55 56 56 55 55 55 55 57 58 56 57 55 55 54 54 55 55 56 55 56 56 58 57 56 55 56 57 57 55 54 50 48 47 47 47 46 47 47 47
52 52 52 53 54 55 56 55 55 54 55 55 56 56 57 56 55 54 53 54 55 54 54 54 54 55 56 56 52 54 53 50 54 55 51 50 50 47 46 46 45 45 46
53 53 53 53 54 54 55 55 55 55 54 54 55 55 56 55 51 54 57 56 55 54 54 54 53 54 54 53 50 55 52 55 55 55 55 53 50 49 49 44 46 45 45
53 52 52 53 52 55 48 46 52 55 55 54 53 54 55 50 50 46 46 48 54 54 54 54 54 53 54 55 56 54 53 51 50 50 51 52 45 46 46 46 43 42 42
53 53 53 53 53 54 46 46 44 55 55 55 55 55 55 56 49 55 47 43 44 44 47 57 54 55 55 56 56 54 53 53 53 54 44 43 38 37 41 41 40 40 40
56 55 55 55 55 56 46 44 43 52 55 55 55 55 55 55 55 53 53 52 49 51 48 49 54 56 57 55 51 50 50 46 35 34 37 34 33 33 35 37 39 39 39
54 57 57 57 56 53 37 39 42 51 52 53 55 55 55 54 51 46 51 50 50 47 36 38 35 35 35 35 36 41 41 39 33 30 30 32 31 31 32 31 33 34 34
45 47 41 36 36 37 36 37 39 46 49 50 51 51 38 37 37 39 46 49 48 47 32 30 30 30 31 31 31 31 34 38 30 27 28 29 29 30 27 29 29 29 30

GFSMA_sfc_temp_099.txt.gz
Temp
66 68 66 65 65 65 63 62 63 64 68 71 72 71 71 72 73 75 75 66 67 70 71 71 70 70 69 68 67 67 67 67 68 67 67 66 66 66 65 65 64 64 64
65 64 65 63 64 65 63 61 61 64 69 72 70 71 71 72 73 73 75 73 65 67 69 70 71 70 69 68 67 67 67 68 68 67 66 66 65 65 64 64 64 64 64
67 65 63 63 63 64 61 61 60 61 70 71 70 70 71 71 72 72 73 71 69 64 66 68 69 69 69 68 67 67 68 67 67 66 66 65 65 64 64 64 64 64 64
68 65 62 63 62 61 59 59 59 58 63 68 68 70 70 70 70 68 72 73 70 71 65 65 67 67 67 68 67 67 67 66 66 66 65 65 64 64 64 63 63 63 63
68 66 65 63 61 59 59 58 58 59 61 66 68 69 69 70 70 71 71 71 71 71 72 65 64 65 66 66 67 68 68 67 66 66 65 64 64 64 63 63 63 63 63
67 65 63 62 61 59 57 57 57 58 61 66 68 67 68 69 70 70 70 72 72 70 71 71 69 68 63 65 67 68 68 68 67 66 65 65 64 64 63 63 63 63 63
65 64 62 61 62 60 58 57 57 57 60 64 63 61 62 65 66 67 69 70 70 70 70 71 71 72 69 64 65 67 69 69 68 67 66 65 65 64 64 63 63 63 63
64 64 62 61 61 61 60 58 59 59 62 62 62 61 53 56 61 65 67 67 68 69 67 67 68 68 70 68 68 65 68 69 68 68 67 66 65 64 64 64 64 64 63
62 64 62 62 61 60 59 61 61 62 59 63 64 64 53 52 57 62 63 66 66 67 69 69 68 68 68 68 66 64 60 61 66 68 67 66 65 65 64 64 64 64 64
66 62 63 61 60 60 58 59 63 63 62 61 61 62 66 64 58 55 61 61 65 64 66 67 67 67 67 66 63 61 57 56 59 63 66 67 66 66 65 65 64 64 64
65 67 62 61 59 59 59 57 58 63 63 63 59 58 58 61 63 61 56 55 60 65 67 66 66 66 66 65 65 62 55 54 56 60 63 65 66 66 66 65 65 65 64
63 66 63 63 59 59 59 58 59 59 60 61 61 58 58 58 58 57 56 58 59 63 64 64 63 64 66 66 64 59 55 53 54 57 60 62 63 65 65 66 66 66 65
59 63 61 61 60 62 61 59 57 57 58 60 58 58 58 60 63 64 63 62 60 61 61 65 65 65 66 66 66 57 55 52 52 54 57 58 60 61 63 64 65 65 65
59 60 63 60 60 60 60 58 57 57 58 58 58 57 57 59 64 67 67 61 58 60 61 64 63 63 65 66 65 55 64 50 50 52 53 55 56 57 58 60 61 63 64
60 59 59 59 59 59 58 58 57 57 58 57 56 57 58 59 59 63 66 66 60 56 60 64 63 63 65 67 64 65 61 56 50 50 50 52 53 55 55 56 57 58 60
59 59 59 58 57 57 57 57 57 57 56 57 57 57 58 59 61 62 64 62 57 57 57 62 64 65 59 63 64 64 65 56 51 49 48 49 50 52 53 54 54 55 56
59 58 58 59 58 58 58 58 57 59 59 59 60 61 60 60 58 62 64 64 62 63 60 66 69 69 60 58 59 61 58 58 59 49 48 48 49 49 50 50 51 52 53
59 60 59 58 58 58 60 60 57 59 59 59 58 57 56 57 57 59 59 59 61 61 60 62 67 66 64 62 65 61 60 62 62 56 50 49 48 48 48 48 48 48 49
62 62 61 57 56 57 58 58 58 58 57 57 57 56 57 57 55 56 56 56 58 59 59 62 64 67 64 61 61 59 60 59 60 57 52 49 49 49 48 47 47 47 47
61 61 62 62 61 60 58 57 57 57 58 60 61 61 58 56 56 56 57 56 56 57 59 61 61 63 64 67 65 63 64 64 64 65 57 53 53 50 48 48 47 47 47
60 62 61 61 62 62 62 61 59 57 57 58 62 63 64 61 53 56 58 57 57 56 59 59 59 61 62 62 61 63 61 64 65 64 61 64 64 62 59 48 49 46 46
60 60 59 60 60 61 49 46 55 61 60 61 61 62 63 53 52 46 47 48 57 59 59 58 58 57 58 61 63 60 59 57 54 66 62 61 65 62 61 58 44 43 43
59 59 59 60 60 61 45 45 44 62 62 61 61 61 62 62 54 62 48 43 44 45 47 61 58 58 58 60 63 59 58 57 56 61 58 55 44 42 41 42 41 40 40
56 56 56 57 57 48 38 41 42 53 56 56 57 58 59 61 61 59 58 59 57 54 50 49 52 56 54 42 44 49 51 54 48 38 40 42 36 32 34 34 36 37 37
46 41 41 43 45 38 36 37 40 49 51 53 54 54 46 48 43 40 48 50 50 49 36 37 34 33 33 34 34 39 42 43 42 33 30 33 32 30 29 29 32 34 34
40 39 37 36 34 36 36 37 38 45 47 46 36 36 34 36 36 36 41 43 44 43 33 32 31 30 30 30 30 30 31 34 36 31 28 30 29 30 26 28 29 30 30

GFSMA_sfc_temp_102.txt.gz
Temp
70 68 70 70 75 71 67 65 65 66 73 73 76 78 79 80 81 80 75 66 68 70 72 72 71 70 69 69 68 68 68 68 68 68 67 67 67 66 66 66 65 65 65
69 68 69 71 70 72 68 65 65 65 72 74 76 78 79 80 80 79 75 74 66 68 69 71 71 71 70 69 68 68 68 68 68 67 67 66 66 66 65 65 65 65 65
70 68 68 68 70 69 63 63 63 63 64 73 76 78 78 78 79 79 78 73 72 64 66 69 70 70 69 69 68 68 68 68 68 67 67 66 66 65 64 64 64 64 64
72 71 69 67 68 65 63 61 61 61 63 69 73 77 78 79 78 78 80 77 75 77 66 66 67 68 68 68 68 68 68 67 67 67 66 66 65 65 64 64 64 64 64
73 72 69 65 65 61 61 61 60 61 62 69 73 74 77 78 77 77 76 77 73 76 74 66 65 65 66 67 68 68 68 68 67 67 66 66 65 64 64 64 64 64 64
73 72 70 62 61 59 58 59 59 60 61 69 72 73 74 76 76 76 73 78 75 72 73 74 70 69 63 66 67 68 69 68 68 67 66 66 65 64 64 64 64 64 64
70 69 67 63 61 59 58 59 58 58 59 64 65 65 66 71 71 70 71 76 76 71 73 73 72 75 70 64 66 68 69 69 68 68 67 66 65 64 64 64 64 64 64
68 68 65 64 61 60 59 58 58 57 58 62 61 63 55 58 65 68 70 72 74 77 75 75 74 76 77 74 70 66 68 69 69 68 67 66 65 64 64 64 64 64 64
67 65 65 63 61 61 60 60 60 60 58 60 64 65 55 55 59 65 67 69 71 74 76 75 75 73 73 76 71 67 61 61 67 68 67 66 65 65 64 64 64 64 64
67 65 64 64 62 60 59 62 63 61 64 61 66 70 71 69 60 57 65 67 68 69 72 75 74 74 74 74 69 63 58 57 59 64 67 67 66 65 65 65 64 64 64
71 67 62 64 62 61 60 60 63 63 64 64 66 67 68 68 69 67 62 61 65 69 73 71 72 73 74 73 72 67 56 55 56 60 63 65 66 66 66 65 65 65 64
71 70 69 62 62 62 61 60 60 63 63 66 69 69 67 63 64 64 66 64 64 68 70 71 71 72 73 72 69 60 56 54 54 57 60 62 63 65 65 66 66 66 65
66 69 68 65 61 61 61 59 58 59 60 61 64 65 64 62 60 61 63 62 64 68 66 71 71 70 69 70 70 60 57 52 52 55 57 58 60 61 63 64 65 65 65
69 68 66 66 64 62 60 59 57 58 59 59 61 60 60 65 62 61 58 59 60 64 67 65 68 69 71 72 69 56 68 51 51 51 53 55 57 58 59 60 61 62 64
66 63 64 60 61 62 63 61 61 59 58 58 59 60 60 59 59 60 61 61 59 59 64 69 66 70 73 73 69 69 68 59 50 50 50 52 54 55 55 56 57 58 59
65 63 60 63 60 60 60 60 58 57 57 57 57 58 58 58 57 58 58 60 60 60 60 69 71 73 72 73 69 69 70 58 51 49 48 49 50 52 53 53 54 55 56
64 63 63 64 59 58 57 57 57 57 56 56 56 55 55 57 57 59 59 60 59 59 56 65 69 69 73 70 69 71 69 65 69 51 49 48 48 49 50 50 51 52 53
65 63 62 65 62 62 61 60 58 59 57 57 57 57 59 64 61 63 61 60 60 65 62 60 63 66 71 72 71 71 69 68 64 56 49 48 48 48 48 48 48 49 49
66 65 65 63 62 63 63 62 61 62 61 61 61 61 64 62 59 59 58 58 60 65 63 58 64 69 68 69 69 71 70 70 65 58 50 49 49 49 49 49 49 48 48
65 65 65 65 64 64 64 64 63 61 64 65 64 64 60 59 59 58 59 59 57 56 57 57 57 61 64 70 71 69 66 71 70 73 64 59 57 54 48 48 48 48 47
66 66 65 66 65 64 64 63 62 62 62 61 62 62 63 62 55 59 65 62 57 55 56 58 57 57 58 61 65 69 67 69 71 73 72 72 72 71 67 50 53 47 46
65 65 65 65 65 66 51 48 57 63 63 63 63 62 62 55 55 47 47 49 59 60 59 58 56 56 60 65 69 68 67 64 61 72 70 68 71 68 54 47 42 42 43
64 63 64 65 64 59 38 42 45 65 65 64 64 64 63 66 58 67 49 43 44 44 46 64 62 63 62 63 60 63 63 62 60 62 52 58 48 35 36 38 39 39 39
49 52 50 56 46 40 37 37 38 50 55 58 61 56 53 56 51 50 58 59 57 55 51 52 53 51 41 38 39 43 44 44 45 36 37 36 34 30 32 33 35 36 36
41 39 39 41 39 38 36 37 40 49 50 52 40 37 39 42 37 37 45 48 47 37 36 35 34 33 32 32 32 39 41 40 41 33 31 34 32 29 29 29 31 33 33
38 37 35 35 34 35 35 36 41 46 45 36 34 33 33 35 34 35 40 41 41 36 32 31 29 29 28 28 28 29 30 34 35 32 27 30 31 31 27 30 31 32 32

GFSMA_sfc_temp_105.txt.gz
Temp
75 76 75 76 77 75 74 71 69 65 64 65 67 74 76 78 74 75 73 66 68 70 72 72 71 71 70 69 69 68 69 69 69 68 68 67 68 67 67 66 66 66 65
75 76 73 74 72 72 70 71 67 65 64 64 69 75 74 80 77 76 76 73 66 68 70 71 71 71 71 70 68 68 69 68 68 68 67 67 66 66 66 65 65 65 65
75 74 71 70 70 72 71 69 67 64 64 65 71 72 75 80 79 75 75 75 71 64 67 69 70 71 70 70 68 68 68 68 68 67 67 67 66 65 65 65 65 65 65
75 74 71 71 73 69 67 66 64 63 63 63 65 72 76 77 78 77 76 76 74 75 66 67 68 69 69 69 69 69 68 68 67 67 67 66 66 65 65 64 64 64 65
75 73 72 73 73 71 64 63 62 63 62 62 64 75 72 75 77 80 75 75 74 72 73 65 65 65 67 68 69 69 69 68 68 68 67 66 66 65 65 64 64 64 64
74 74 72 72 71 66 63 62 61 62 62 62 64 70 72 74 78 76 78 77 72 70 75 72 71 69 64 66 67 69 69 69 69 68 67 66 66 65 65 64 64 64 64
75 72 71 65 64 61 60 60 60 60 60 62 61 62 67 68 70 70 73 78 75 74 75 71 73 73 70 64 66 68 69 69 69 68 67 67 66 65 64 64 64 64 64
75 73 70 65 62 60 59 59 59 59 59 61 60 63 56 60 66 68 71 73 74 75 72 71 70 74 74 72 68 66 68 69 70 69 68 66 65 65 64 64 64 64 64
73 72 71 66 62 61 59 59 59 59 58 59 64 65 55 54 62 67 67 71 73 75 75 73 73 75 76 76 69 66 62 62 66 68 68 67 65 65 65 64 64 64 64
72 71 69 64 63 60 59 60 62 60 59 57 60 62 63 61 58 57 65 65 68 72 74 76 76 75 76 74 70 65 58 58 60 63 67 67 66 65 65 65 64 64 64
73 69 67 68 63 62 61 61 62 62 61 59 60 60 62 64 66 65 60 60 65 67 73 74 76 76 75 74 73 68 56 56 57 60 63 65 66 66 65 65 65 65 65
70 72 67 64 64 63 62 61 62 63 63 63 62 64 65 63 63 63 65 63 62 65 69 74 73 74 75 75 72 62 56 53 55 58 60 62 63 65 65 66 65 65 65
70 71 70 67 62 62 63 61 61 60 62 62 63 66 68 67 69 67 68 61 58 61 65 71 74 74 75 74 72 61 56 53 53 55 57 59 60 61 63 64 65 65 65
70 71 69 68 66 64 61 61 60 60 60 60 62 61 63 66 63 63 60 57 54 56 61 63 73 72 72 71 67 57 68 53 52 52 54 56 57 58 59 60 61 62 63
71 69 71 70 64 64 62 60 59 58 58 58 59 62 58 59 59 61 60 60 56 51 55 62 66 71 70 71 67 69 69 59 51 51 51 52 54 55 56 56 57 58 60
69 68 67 67 67 64 62 61 59 59 59 58 58 59 59 59 58 58 57 57 56 56 54 63 63 67 69 72 70 71 71 59 53 49 49 50 51 53 53 53 54 55 56
68 67 67 62 60 59 60 60 61 60 58 58 58 57 57 57 56 56 57 57 56 57 55 61 64 64 63 65 70 72 70 71 70 50 48 49 49 49 50 51 51 52 53
68 68 68 63 63 62 60 58 56 57 56 55 56 56 56 56 56 56 56 56 56 57 55 55 61 63 65 69 63 65 69 73 73 60 50 48 48 48 48 48 49 49 50
66 68 68 65 64 64 62 60 59 59 59 60 59 57 57 56 55 58 59 60 61 61 61 57 58 63 67 70 67 66 66 65 67 61 51 48 48 48 48 48 48 49 49
66 65 66 65 63 64 64 64 64 63 63 64 63 62 61 61 60 62 63 63 63 62 58 57 59 63 65 69 66 63 64 69 68 73 66 61 56 51 49 49 48 48 48
64 65 64 64 64 63 65 64 64 62 63 64 63 64 64 63 55 59 65 64 64 62 59 59 59 57 58 60 63 65 61 66 69 70 69 69 69 68 47 42 44 43 43
65 64 64 64 65 66 40 45 55 65 65 64 64 65 67 54 53 47 47 47 55 64 61 58 58 58 59 62 65 63 63 62 59 68 54 60 49 38 39 40 39 39 39
63 63 63 63 53 45 38 39 40 62 62 63 63 61 62 66 53 62 49 44 45 45 42 58 57 57 56 53 47 50 51 51 50 46 48 47 37 32 35 36 37 38 38
45 46 45 46 43 40 36 37 37 56 57 53 44 44 46 46 39 42 48 51 47 40 40 45 44 38 35 35 38 42 43 43 44 36 36 37 33 30 32 33 35 36 36
38 38 38 38 38 36 36 36 40 49 48 39 37 36 39 37 35 37 44 45 36 33 34 34 33 33 32 32 32 38 35 35 36 33 29 33 32 29 29 30 32 34 34
35 35 34 34 34 33 35 36 43 46 36 33 33 33 33 34 33 34 39 40 38 32 30 30 29 29 29 29 29 29 30 33 33 32 28 29 31 31 27 31 32 33 34

GFSMA_sfc_temp_111.txt.gz
Temp
65 66 65 65 65 65 65 63 63 62 61 62 63 64 65 66 65 64 65 66 68 71 73 73 72 71 71 70 69 69 69 69 69 68 68 67 67 67 66 66 66 66 66
65 65 64 65 64 65 64 64 63 62 61 61 62 64 65 66 65 65 65 66 65 68 70 72 72 72 71 70 68 68 69 69 68 68 67 67 66 66 65 65 65 65 65
66 65 64 64 64 64 63 63 62 61 61 62 62 63 64 65 65 66 66 65 65 65 66 69 70 71 71 70 69 69 69 68 68 68 67 67 66 65 65 65 65 65 65
67 65 64 64 64 64 64 63 62 62 61 62 62 62 63 64 64 66 66 66 64 66 65 66 68 69 69 70 69 69 69 68 68 68 67 67 66 65 65 64 64 64 65
67 66 65 64 66 64 62 62 62 63 62 61 61 61 62 62 63 67 65 64 62 62 62 64 65 65 67 68 69 70 70 69 68 68 68 67 66 65 65 64 64 64 64
67 65 64 64 64 63 63 62 62 62 62 62 62 61 61 62 62 66 64 66 64 63 62 63 64 63 64 66 68 70 70 70 69 68 68 67 66 65 65 64 64 64 64
66 64 64 64 64 63 64 63 62 61 61 61 60 60 60 60 60 64 66 64 64 64 62 62 62 62 63 64 67 69 70 70 70 69 68 67 66 65 64 64 64 64 64
66 65 64 62 64 62 62 62 61 60 61 62 59 59 54 55 59 63 64 63 62 63 63 62 62 62 62 62 62 67 70 70 70 70 68 66 66 65 64 64 64 64 64
66 66 63 62 62 61 61 61 61 60 58 60 61 57 52 51 56 59 61 62 60 61 62 64 63 63 62 61 61 62 61 63 67 69 68 67 66 65 65 64 64 64 64
65 64 62 61 59 59 60 60 61 61 60 58 58 59 59 62 56 52 58 59 62 63 62 61 62 63 63 62 61 60 57 57 61 66 67 67 66 66 65 65 65 64 64
63 64 62 60 59 59 59 59 59 60 60 58 58 57 56 57 56 55 53 55 59 61 63 61 62 64 65 64 62 60 56 55 57 61 64 66 66 66 65 65 65 65 65
63 63 62 61 61 59 59 59 60 59 59 59 58 58 57 57 54 54 53 54 55 57 60 60 60 63 64 63 64 60 55 54 55 58 61 63 64 66 66 65 65 65 65
63 62 62 60 60 60 60 59 59 59 59 59 58 58 57 57 57 56 54 54 54 56 56 59 61 63 66 64 63 59 55 52 53 55 58 60 61 62 64 65 65 65 65
61 62 62 61 61 61 60 59 59 59 59 59 58 58 58 58 59 59 58 55 51 52 54 57 60 59 61 63 63 55 59 52 52 53 55 56 57 58 59 61 62 63 64
62 61 61 61 62 61 60 60 59 59 59 58 58 59 59 59 59 60 59 58 54 49 52 55 57 61 64 62 61 62 61 53 51 51 51 53 55 56 56 57 58 59 60
63 60 61 61 60 61 60 60 59 60 59 58 59 58 58 57 58 57 56 56 56 56 53 58 59 60 61 64 62 61 61 54 50 49 49 50 51 53 53 54 55 56 57
61 61 60 61 60 61 60 59 59 59 58 58 59 59 59 59 58 57 56 56 55 55 53 55 58 59 60 59 62 61 60 60 60 49 48 49 48 49 50 50 51 52 53
60 59 59 59 60 61 60 59 57 58 57 56 57 57 57 58 57 58 57 57 57 56 55 54 55 55 56 59 59 58 60 63 62 56 50 50 49 48 48 48 48 48 48
59 59 59 60 59 60 59 59 58 57 57 57 57 57 57 56 56 56 57 57 57 56 55 55 54 56 58 57 57 58 58 59 60 56 50 49 48 48 45 45 46 46 45
59 60 61 60 59 59 59 59 58 58 58 58 58 58 58 57 57 56 56 56 56 55 54 54 54 55 56 57 57 56 54 57 57 63 57 46 44 43 43 42 43 43 43
60 60 60 59 60 59 57 58 58 57 56 56 56 57 57 56 51 53 56 55 55 54 53 53 53 53 54 53 52 53 54 56 56 53 53 46 43 42 41 41 41 41 41
59 59 58 58 50 48 39 40 53 57 57 57 55 57 58 50 49 45 46 48 53 55 54 54 53 52 53 54 56 55 55 52 50 44 49 41 42 36 37 38 39 39 39
55 53 50 48 44 42 37 40 40 58 56 52 51 54 55 49 48 55 44 39 37 37 36 51 53 50 50 42 46 49 49 49 47 38 43 38 35 32 34 36 37 38 37
41 41 40 40 39 38 37 38 41 47 42 40 40 42 43 41 38 44 45 39 35 35 36 38 37 34 34 34 38 41 42 41 36 33 34 34 32 30 32 33 37 37 36
35 35 36 36 35 35 36 38 42 40 36 34 35 36 37 37 35 39 39 34 31 31 34 34 34 34 33 33 34 39 35 35 33 29 30 33 31 28 30 30 32 35 35
32 33 32 33 34 34 36 37 38 36 32 32 32 33 34 34 35 36 38 34 30 29 29 29 29 30 30 31 31 30 31 33 33 28 29 31 31 29 26 30 30 27 25

GFSMA_sfc_temp_114.txt.gz
Temp
66 65 64 64 64 64 64 63 62 62 61 62 62 63 63 64 65 64 64 65 67 71 73 73 73 72 71 70 69 69 69 69 69 69 68 67 67 67 67 66 66 66 66
65 65 64 64 64 64 64 63 62 61 60 60 61 62 63 64 64 64 64 65 64 67 71 73 73 72 71 70 69 69 69 69 69 68 67 67 66 66 65 65 65 65 65
65 65 64 64 64 64 63 62 61 60 59 60 60 61 62 63 63 64 64 64 64 64 67 70 71 71 71 71 69 69 69 68 68 68 67 67 66 65 65 65 65 65 65
66 64 64 64 63 64 63 62 62 61 60 61 59 59 61 63 64 64 64 64 64 66 65 66 68 69 69 70 70 69 69 68 68 68 67 67 66 65 65 64 64 64 65
66 65 64 63 63 63 63 63 62 63 61 60 61 60 61 62 63 65 64 64 64 63 64 64 65 65 67 68 69 70 70 69 69 68 67 67 66 65 65 64 64 64 64
66 65 64 63 64 64 62 62 62 63 62 61 62 61 61 62 62 62 63 65 63 60 61 63 64 63 64 66 68 69 70 70 69 69 68 67 67 65 65 64 64 64 64
66 65 64 63 63 64 64 63 62 61 60 62 60 60 59 61 61 62 62 63 61 61 60 61 62 62 63 65 67 69 70 70 70 69 68 67 66 65 64 64 64 64 64
65 64 64 63 63 62 62 63 62 60 61 61 58 58 54 56 60 60 61 62 61 62 61 62 61 61 62 63 63 67 69 71 70 69 68 67 66 65 64 64 64 64 64
65 65 64 63 62 62 63 62 62 61 59 60 61 58 53 52 56 59 59 61 60 60 61 61 61 63 62 61 61 63 62 63 67 69 68 67 66 66 65 65 64 64 64
64 64 63 62 62 62 62 61 62 61 60 58 60 60 58 57 55 52 57 59 61 60 59 60 60 61 61 61 60 59 57 57 61 66 68 67 66 66 65 65 65 64 64
64 64 62 61 60 59 58 59 60 60 60 59 59 56 57 56 56 56 53 54 57 61 61 60 61 61 61 61 60 59 56 55 56 61 65 67 66 66 65 65 65 65 65
61 62 62 61 60 58 57 58 60 60 60 60 60 58 57 56 55 56 55 54 55 57 60 61 60 61 62 62 62 58 55 54 55 58 61 63 65 66 65 65 65 65 65
61 62 62 60 58 58 58 59 59 59 59 59 58 58 58 57 57 56 56 54 54 55 56 58 61 62 63 62 62 57 55 52 53 55 57 59 61 63 64 64 65 65 65
63 62 62 61 59 58 59 58 58 59 59 59 58 58 58 58 58 58 55 55 51 53 54 56 60 61 62 63 62 55 61 51 51 52 54 56 57 58 59 61 62 63 64
63 61 62 60 58 58 59 58 58 58 58 59 58 58 58 58 58 57 57 57 55 50 53 56 55 61 62 63 61 61 62 54 51 50 51 53 55 56 56 57 58 59 60
62 61 61 61 60 60 59 59 58 59 58 58 58 58 58 58 58 58 57 57 58 56 52 57 57 58 62 63 60 61 62 56 50 49 49 50 51 53 53 54 55 55 57
61 61 61 61 60 60 59 59 59 59 58 58 58 58 58 58 57 57 58 57 56 54 55 56 58 59 58 59 60 59 59 58 58 48 48 48 48 49 50 51 51 52 53
62 61 60 61 61 60 59 58 58 58 58 57 58 58 58 58 58 58 57 56 55 55 54 55 54 55 56 57 58 58 60 62 61 53 48 48 48 48 47 46 46 47 47
61 60 59 59 61 60 60 59 59 58 58 58 58 58 58 58 57 57 57 57 57 56 55 54 54 55 55 55 55 56 57 58 58 55 49 45 46 45 45 45 44 44 45
60 60 59 58 60 60 60 59 58 58 58 58 58 58 58 57 57 56 56 57 56 56 56 55 55 53 54 55 55 55 54 56 56 56 45 43 43 43 43 42 43 43 43
60 60 59 58 58 58 57 58 58 57 57 57 57 58 58 56 51 53 56 55 55 54 54 53 52 52 52 52 53 55 55 55 51 51 47 44 43 41 41 41 42 41 41
59 59 58 57 53 49 39 40 52 57 57 56 55 56 57 49 49 45 46 46 51 54 53 53 53 52 53 54 52 52 53 50 48 43 46 39 40 36 37 38 39 39 39
51 49 49 48 44 42 38 40 39 56 56 55 54 55 54 50 49 53 39 38 37 37 36 52 53 53 53 50 49 51 50 49 47 38 43 34 34 32 34 36 37 37 37
37 38 38 39 39 39 37 38 40 47 43 41 40 42 45 43 40 46 45 39 35 35 36 38 38 35 35 36 40 43 44 37 35 33 35 32 32 30 32 34 36 36 36
34 33 34 34 35 35 37 38 41 39 36 34 35 36 37 38 36 40 40 34 32 31 35 35 34 34 34 34 36 39 36 37 33 30 31 33 30 28 29 30 33 35 35
33 33 32 33 33 33 36 36 37 36 33 32 32 33 34 34 35 37 37 35 30 29 29 30 30 30 31 31 31 31 33 34 31 29 30 31 29 28 25 29 30 31 30

GFSMA_sfc_temp_117.txt.gz
Temp
66 64 64 64 63 63 66 65 64 61 61 61 62 62 62 62 62 63 64 65 66 70 72 73 73 72 71 70 70 70 69 69 70 69 68 67 67 67 66 66 66 66 66
66 65 64 63 63 63 62 64 62 61 60 60 61 62 62 62 62 62 63 64 63 66 70 73 73 73 72 71 70 69 69 69 69 69 68 67 67 66 66 65 65 65 66
65 65 64 63 63 63 62 61 60 59 59 59 60 61 61 61 61 62 62 63 64 62 64 69 71 71 71 71 70 69 69 69 68 68 68 67 66 66 65 65 65 65 65
65 64 64 64 63 62 62 61 62 61 58 58 57 58 60 61 61 61 62 63 64 65 63 65 68 70 70 70 70 70 70 69 68 68 67 67 67 66 65 64 64 65 65
65 64 64 63 63 63 62 62 62 62 61 60 60 57 59 60 61 63 63 64 64 64 64 64 65 66 67 69 70 70 70 69 68 68 67 67 66 65 65 64 64 64 64
66 64 63 62 63 63 63 62 62 62 62 61 61 61 61 62 62 62 63 64 63 62 62 63 64 63 64 67 68 70 70 70 70 68 68 67 66 66 64 64 64 64 64
66 64 63 62 63 64 63 63 62 61 61 61 59 59 59 61 61 62 62 62 62 61 61 61 61 60 62 64 67 69 70 70 70 69 68 67 66 66 64 64 64 64 64
65 64 64 62 63 64 63 62 62 61 61 61 59 57 54 57 60 61 61 61 61 61 61 60 60 60 60 64 64 67 69 70 70 69 67 66 66 65 65 64 64 64 64
64 65 64 63 63 63 63 63 63 61 60 60 61 58 53 52 56 59 60 61 60 60 61 60 60 60 60 61 63 63 62 63 68 69 68 66 66 66 65 65 64 64 64
64 64 64 62 62 63 62 63 63 62 61 59 60 59 58 57 54 52 58 59 60 60 59 59 59 60 62 61 61 59 57 57 61 66 67 67 67 66 66 65 65 64 64
64 64 63 62 62 62 64 62 62 61 61 60 59 57 58 57 56 54 53 55 57 59 60 59 60 60 61 61 60 59 56 55 56 61 65 67 67 66 66 65 65 65 65
62 63 63 62 62 62 60 60 60 61 60 59 59 57 57 55 56 55 54 55 55 56 58 60 59 60 60 60 61 58 55 54 55 57 61 63 65 66 66 66 65 65 65
62 62 62 62 61 60 59 58 60 59 59 59 59 58 58 59 59 59 56 55 55 55 55 57 59 60 61 61 60 57 55 52 53 55 57 59 61 62 64 65 65 65 65
63 63 63 62 61 59 59 60 59 58 58 58 58 58 58 59 58 59 57 55 52 52 53 54 58 59 61 61 60 54 59 51 51 52 54 56 57 58 59 61 62 63 64
63 61 63 61 60 59 60 59 58 57 58 58 59 59 57 57 57 57 58 59 57 50 52 54 55 60 61 61 60 59 59 53 51 50 51 52 55 56 56 57 58 59 61
62 61 62 61 59 59 59 59 57 58 57 58 59 57 57 57 57 57 56 56 56 54 52 57 57 58 61 62 59 59 59 55 50 48 48 49 51 53 54 54 55 56 57
61 60 62 61 60 59 58 58 57 58 57 57 58 57 57 58 57 57 56 56 56 55 54 55 58 58 56 58 59 59 58 58 59 49 48 48 48 49 50 51 51 52 52
61 61 61 61 60 60 59 58 57 58 57 57 57 57 57 57 57 57 57 56 56 55 55 53 53 54 55 57 58 57 58 60 59 52 48 47 47 47 47 46 47 47 48
60 60 61 60 60 60 59 59 59 58 58 58 58 57 58 57 57 57 57 56 56 56 55 55 54 54 55 55 54 55 56 57 57 53 46 46 46 46 46 46 46 46 46
60 59 60 60 60 60 60 59 59 58 58 59 59 59 59 58 57 57 57 57 57 56 55 54 54 53 54 54 55 55 53 55 54 50 44 43 43 43 43 43 43 43 43
59 59 59 59 59 60 59 59 59 58 57 57 58 58 58 56 51 54 57 56 56 55 55 55 54 52 52 51 53 54 54 54 52 47 43 43 42 41 41 41 42 42 41
53 58 58 58 57 49 39 45 54 58 57 57 56 56 57 50 50 45 46 46 53 55 54 53 53 52 53 53 53 53 53 50 47 47 43 37 40 37 38 39 40 40 40
38 40 43 46 42 40 38 39 43 57 57 56 56 55 55 53 50 52 39 38 37 37 37 53 53 53 52 52 52 50 50 50 47 40 41 33 34 32 36 38 38 38 38
35 34 35 37 38 38 38 39 38 50 45 42 42 44 50 47 42 48 45 40 36 35 36 39 40 37 36 38 43 46 47 38 35 34 37 30 32 30 33 34 36 36 36
34 33 34 34 35 35 36 37 40 39 36 34 35 36 38 40 37 40 42 35 32 31 35 35 35 34 34 35 37 41 36 37 33 32 32 32 29 29 30 31 32 34 35
32 33 32 33 33 32 36 36 36 35 33 32 32 33 34 35 36 37 39 36 31 29 30 30 30 30 31 31 31 32 34 35 32 31 31 31 29 29 26 30 31 30 30

GFSMA_sfc_temp_120.txt.gz
Temp
67 64 63 64 64 64 64 64 65 61 61 61 62 62 62 63 63 63 64 64 65 71 72 73 73 72 72 71 70 70 70 70 70 69 68 67 67 67 67 67 67 66 66
67 66 63 63 63 64 66 66 65 61 61 61 61 61 62 62 63 63 63 64 63 66 69 70 72 73 72 71 70 70 69 69 69 69 68 67 67 67 67 67 66 66 66
67 66 65 63 63 63 64 64 62 60 59 60 60 61 62 63 62 62 63 63 63 62 66 68 68 71 72 72 70 69 69 69 69 69 68 68 67 66 67 65 65 65 66
66 64 65 63 62 62 62 61 61 61 59 58 58 59 60 61 61 62 62 63 63 65 63 65 66 68 70 71 70 70 70 69 69 68 68 67 67 66 66 65 65 65 65
65 65 65 64 62 63 62 62 62 62 60 59 58 58 59 59 60 62 62 62 63 63 64 63 63 64 67 69 70 71 71 70 69 68 68 67 67 66 65 65 65 65 65
65 64 64 63 63 63 63 62 62 62 62 61 61 61 59 59 61 60 61 63 64 64 64 63 63 64 64 67 69 70 71 71 70 69 68 68 67 66 65 65 64 64 64
65 64 64 62 63 64 63 63 62 61 60 61 59 59 59 61 61 62 62 63 63 63 63 63 63 63 64 65 67 69 71 72 70 69 68 67 66 66 65 65 64 64 64
65 65 64 63 63 63 63 63 62 60 61 61 59 58 55 57 60 61 62 62 62 63 61 62 63 62 63 64 65 67 69 70 70 69 68 66 66 66 65 65 64 64 64
65 65 64 64 63 64 63 63 63 62 60 60 61 58 53 53 56 59 61 61 61 61 61 61 61 62 62 63 64 64 62 64 68 69 68 66 66 65 65 65 65 64 64
66 65 64 63 64 65 64 63 64 63 61 59 60 60 59 58 54 53 58 60 61 60 60 60 61 61 62 62 62 61 58 57 61 66 67 67 66 66 66 66 65 65 65
64 65 64 63 63 64 64 62 63 63 62 61 60 58 58 57 57 54 53 56 59 60 61 60 60 60 61 62 61 60 56 56 57 61 65 67 67 66 66 66 66 65 65
63 63 63 63 63 63 63 63 63 62 61 61 61 59 58 57 56 55 54 55 56 57 59 60 59 61 61 61 61 58 55 54 55 58 61 64 65 66 66 66 66 66 65
62 62 63 63 63 63 63 63 62 61 61 61 60 59 59 59 58 58 57 56 54 55 56 58 59 60 61 61 61 56 54 52 53 55 57 59 61 63 64 65 65 66 66
63 64 64 64 64 63 62 61 61 61 61 60 59 59 59 59 58 58 59 56 53 53 54 54 58 59 60 61 60 54 59 51 51 52 54 56 57 59 59 61 62 63 64
63 64 64 64 63 62 61 60 60 59 59 59 59 58 58 58 57 58 59 59 56 50 53 54 54 58 59 59 59 59 60 53 50 50 51 52 54 56 56 57 58 59 61
61 62 63 63 63 61 60 60 60 59 58 58 58 58 58 59 58 57 57 57 58 56 53 55 56 57 59 59 59 60 60 55 50 49 49 49 50 52 54 54 55 56 57
61 61 62 62 61 60 60 59 59 58 57 57 57 58 58 58 57 57 57 56 56 56 53 53 57 58 57 58 60 59 59 59 58 48 48 48 48 48 49 50 51 52 53
60 60 61 62 61 60 59 59 57 57 57 56 57 57 57 57 57 57 57 56 56 55 54 52 54 54 56 58 59 57 58 60 60 51 48 47 47 46 46 47 47 48 48
60 60 61 61 61 59 59 59 59 58 57 57 57 57 57 57 56 56 56 56 56 56 55 53 53 54 56 56 55 56 57 57 56 51 46 45 45 46 46 45 46 46 46
59 59 60 61 61 60 59 59 58 57 57 57 58 58 58 57 57 57 56 56 56 55 55 54 54 53 54 54 55 55 54 55 51 48 44 43 43 43 43 43 43 43 43
45 47 59 60 60 59 59 59 59 58 57 57 58 58 59 57 52 55 57 57 57 55 55 54 54 54 53 52 53 55 55 55 51 45 43 43 42 41 42 42 43 42 42
41 41 42 46 52 45 41 45 54 58 58 57 57 57 58 50 50 46 46 48 54 56 55 54 54 53 54 55 54 54 54 51 46 46 42 38 40 37 38 40 40 40 40
39 38 38 38 38 38 37 43 43 58 57 57 57 56 56 56 51 54 40 38 38 37 39 56 54 53 52 53 53 51 52 50 47 42 40 32 35 34 37 38 39 39 38
35 35 36 36 36 37 36 38 41 50 47 41 40 43 53 52 51 47 45 41 37 36 38 39 41 39 39 41 47 50 51 39 36 35 38 30 32 31 33 35 38 38 37
33 33 33 33 34 34 36 36 38 37 35 34 35 35 36 41 37 42 43 36 33 32 35 36 35 35 35 35 37 43 39 39 34 33 33 31 30 29 31 31 33 36 35
32 33 32 32 33 32 34 35 36 34 32 32 33 33 34 36 36 37 41 37 33 30 30 30 30 30 30 31 31 32 34 36 33 32 32 30 30 29 26 30 29 29 30

GFSMA_sfc_temp_123.txt.gz
Temp
71 73 74 73 74 75 75 74 73 74 74 73 73 74 74 74 75 77 77 65 65 70 72 71 71 72 72 71 70 70 70 70 70 70 69 68 68 67 68 67 67 67 67
71 70 71 72 71 74 74 74 73 72 74 73 71 69 72 74 75 75 76 75 64 64 70 71 69 69 72 72 70 70 70 70 69 69 68 67 67 67 67 67 67 66 67
72 69 69 71 73 71 71 71 69 68 72 71 70 68 73 73 74 74 75 75 74 61 64 69 68 69 70 72 70 70 70 69 69 69 68 67 67 67 67 66 66 66 66
71 69 67 69 71 69 67 66 65 65 70 71 71 71 71 71 72 73 74 74 75 76 65 64 68 68 67 70 71 71 70 69 69 69 68 67 67 67 66 65 65 65 65
70 68 68 69 69 69 67 65 64 66 65 65 69 70 70 69 71 72 72 73 73 73 74 66 64 65 65 67 70 71 71 70 69 69 68 68 67 66 65 65 65 65 65
68 69 69 68 69 67 67 67 67 65 66 67 66 67 67 68 69 70 71 73 73 73 73 73 70 65 63 66 69 71 72 71 70 69 69 68 67 66 65 65 65 65 65
69 69 69 68 67 67 66 66 65 63 63 64 62 61 61 64 64 65 70 69 70 71 71 70 70 64 63 64 67 69 71 72 71 70 69 68 67 66 65 65 65 65 65
71 71 69 68 67 66 66 65 64 62 63 63 62 62 58 61 62 66 64 66 68 71 69 69 66 64 64 67 69 67 70 71 71 70 68 67 66 66 65 65 65 64 64
72 72 70 69 67 67 65 65 64 65 62 63 67 67 58 60 62 64 63 65 66 65 67 68 67 63 64 67 68 67 62 63 68 69 68 67 66 66 66 65 65 65 64
72 72 69 69 68 67 67 66 67 67 67 63 64 65 68 69 64 61 64 63 64 67 64 65 66 63 63 68 67 64 58 58 62 67 68 67 67 67 66 66 65 65 65
69 70 68 67 67 67 68 66 67 67 67 67 65 63 62 62 65 63 61 61 64 65 65 63 65 63 63 69 71 67 57 56 58 63 66 67 67 66 66 66 66 65 65
66 66 66 66 66 65 66 66 68 69 67 66 67 65 63 61 59 61 58 60 59 63 65 62 61 62 62 63 65 60 56 54 55 59 62 64 65 66 66 66 66 66 66
64 65 65 65 65 65 65 66 65 68 67 68 67 66 67 67 69 65 63 58 57 63 59 60 61 62 62 62 65 58 55 53 53 56 58 60 62 63 64 65 66 66 67
66 67 65 66 67 65 65 65 65 65 65 65 66 65 65 66 66 62 61 59 55 57 55 56 60 61 61 62 64 54 63 51 52 53 55 56 58 59 60 62 63 64 65
68 68 67 66 67 67 65 64 63 63 63 63 62 63 62 63 61 61 61 61 61 53 53 55 56 60 60 60 60 65 66 53 50 51 51 53 55 56 57 58 59 60 61
66 67 67 68 69 68 64 63 62 63 61 62 61 61 61 61 60 60 61 64 62 58 53 57 56 58 59 59 57 62 63 55 50 49 49 50 52 53 54 55 55 56 57
64 65 67 67 67 65 63 61 61 62 61 61 60 60 60 62 61 60 60 61 59 59 55 56 57 58 58 58 58 59 60 61 63 48 48 48 49 50 50 51 51 53 54
63 63 64 65 67 65 63 60 60 61 60 59 59 59 60 63 60 60 59 59 60 61 56 54 55 56 58 59 59 58 59 63 65 54 48 48 48 47 47 47 47 48 49
49 60 62 62 62 62 62 61 60 60 60 60 60 59 61 63 59 59 59 60 60 59 56 54 53 55 57 57 57 58 62 64 64 55 48 46 47 47 46 45 46 46 47
45 46 48 59 61 62 61 61 60 60 59 60 61 60 62 63 62 61 60 60 60 57 56 55 54 53 55 56 57 56 55 60 57 52 45 47 45 45 45 45 45 45 45
43 44 44 44 43 46 42 42 56 59 58 58 58 60 64 62 53 58 59 59 58 56 55 54 54 54 54 53 54 57 56 55 51 47 44 44 44 44 43 43 44 43 42
39 39 39 41 40 41 37 38 41 57 58 57 57 60 64 52 51 47 47 48 56 57 55 55 55 54 55 55 56 55 55 53 47 47 43 38 41 39 39 41 41 41 41
37 36 35 37 36 36 37 38 38 50 57 57 58 59 59 58 53 58 45 41 40 40 43 60 56 56 55 57 56 54 55 54 52 45 40 33 36 35 38 39 40 40 40
35 34 35 35 35 35 35 36 37 39 38 37 37 39 45 54 54 55 48 44 41 40 41 44 51 54 53 54 57 56 54 40 38 36 39 32 33 32 34 36 38 38 37
34 33 33 33 32 33 34 34 37 38 35 33 35 35 36 38 36 40 47 40 35 33 36 36 36 36 35 36 41 48 41 41 35 35 35 33 32 31 33 33 34 36 36
33 35 33 33 33 32 34 34 33 34 33 33 33 33 33 34 35 36 42 40 36 33 32 32 32 31 32 32 32 33 43 44 35 33 33 31 31 31 28 31 31 32 32